GFSCGP_925_spd_003.txt.gz
Wind_Speed
6 5 10 24 14 8 5 6 9 18 10 10 17 18 21 19 10 12 16 18 20 17 16 23 32 39 39 40 42 45 45 41 40 39 37 32 33 31 28 27 24 23 21 19
3 13 20 5 10 10 10 14 15 15 12 10 14 21 16 9 13 16 17 19 24 11 9 9 21 31 38 41 41 43 44 42 43 41 40 32 37 33 31 27 25 24 23 21
20 11 17 12 9 8 19 15 19 19 10 6 9 11 12 11 9 14 18 21 21 12 11 8 10 25 32 36 42 45 45 45 45 43 40 28 31 24 27 29 29 30 27 24
11 11 11 6 7 12 22 10 14 8 3 13 4 16 9 7 12 10 15 21 11 11 10 8 11 15 30 35 41 45 45 46 44 44 42 40 36 28 33 40 38 33 29 26
10 3 8 14 26 9 20 4 5 2 4 5 5 6 3 8 8 12 16 20 17 12 13 12 15 26 28 36 40 43 44 43 41 45 45 43 36 32 30 36 37 34 30 26
11 0 4 7 2 6 2 1 1 2 2 12 8 9 5 7 9 6 11 15 16 10 9 10 10 21 22 31 34 37 40 42 44 45 45 46 40 39 33 35 37 37 34 30
3 10 2 5 3 2 3 4 4 4 1 12 11 10 21 6 8 11 14 14 15 8 9 10 12 12 21 30 34 36 38 36 41 44 48 50 45 44 42 41 41 41 38 34
4 15 12 9 16 12 10 10 7 7 9 18 3 9 8 10 12 12 15 16 5 8 8 11 13 11 20 27 32 34 35 33 42 46 48 48 48 45 45 43 43 44 44 39
6 14 1 5 2 9 5 6 11 2 3 2 10 13 10 8 11 11 16 4 9 10 10 10 8 14 21 26 34 39 38 39 41 45 44 45 46 45 46 44 43 44 42 36
5 12 8 2 1 3 6 1 1 1 3 7 15 6 14 14 20 16 11 10 8 6 8 8 9 11 23 29 33 35 37 39 37 43 45 46 47 48 45 45 45 42 38 35
7 6 17 4 6 9 1 4 5 2 4 12 14 15 6 2 6 10 8 7 8 9 9 10 10 17 23 25 32 35 37 38 39 43 44 42 45 46 46 46 46 43 38 37
2 5 4 8 8 5 5 6 6 9 10 3 6 16 10 5 4 10 5 6 4 5 8 8 10 10 18 24 29 37 35 39 46 41 41 41 40 41 42 42 42 41 39 37
3 2 4 12 9 3 6 8 7 6 2 9 12 15 25 22 19 9 4 9 9 7 8 8 7 10 13 21 25 30 34 42 36 39 41 38 40 41 41 41 41 40 38 36
12 11 9 16 18 7 5 5 8 10 8 20 19 29 26 32 31 27 20 23 24 14 14 11 9 9 8 19 24 28 33 40 39 40 39 38 39 42 41 41 40 40 38 38
13 13 19 27 29 28 25 25 28 26 25 20 29 28 25 30 31 24 23 24 15 8 8 9 11 9 12 15 24 27 30 34 39 36 36 38 37 39 40 40 39 40 39 38
15 23 22 24 28 31 30 34 35 35 34 28 32 31 33 31 32 30 34 33 21 18 20 16 12 12 13 13 23 29 30 35 38 35 35 35 37 39 41 41 42 42 40 38
10 7 10 26 24 25 24 31 37 31 26 24 29 36 36 34 31 33 31 33 23 21 21 15 12 12 11 15 27 24 33 34 37 33 33 36 37 38 40 43 44 44 44 40
23 17 9 15 14 23 10 15 27 33 32 31 35 34 32 30 28 25 25 22 25 29 23 11 9 10 17 29 27 31 28 33 32 31 32 35 38 36 38 42 41 40 42 42
20 15 10 11 14 18 13 7 16 19 30 26 28 28 24 22 24 22 18 21 19 22 22 17 12 16 21 24 30 26 25 27 27 29 33 37 39 36 38 37 37 37 37 37
11 19 18 21 26 32 25 10 12 20 21 21 16 19 15 15 7 5 21 20 20 17 16 17 22 13 14 12 16 23 20 24 26 32 33 34 36 38 40 39 37 38 37 35
14 10 16 15 14 6 10 19 10 9 8 19 15 15 19 15 10 17 19 24 18 12 11 23 21 9 12 11 17 15 17 21 22 26 31 34 35 36 34 35 35 38 37 34
8 5 10 13 21 25 21 7 8 14 14 12 15 13 12 14 17 17 17 19 19 16 16 18 9 11 10 7 15 12 14 17 21 28 31 31 31 30 33 35 31 34 35 31
8 3 4 4 7 22 15 18 14 0 6 8 12 15 16 18 18 18 18 19 18 19 15 21 14 11 15 9 17 12 14 19 24 27 26 28 31 32 36 36 33 30 29 27
5 11 8 11 12 20 24 17 8 12 10 10 10 13 13 15 17 21 19 18 17 16 16 19 18 16 15 16 18 24 18 23 26 24 21 26 30 29 31 29 31 30 29 24
8 11 7 15 17 14 12 10 12 8 9 12 12 12 15 16 18 18 18 19 18 16 18 20 15 12 19 25 23 27 27 28 27 25 28 29 24 28 30 31 34 31 29 30
12 17 12 15 19 9 15 11 5 7 8 9 12 16 16 16 19 17 16 17 17 16 21 18 23 20 24 28 26 25 26 30 26 23 23 23 27 34 34 31 26 24 26 21

GFSCGP_925_spd_006.txt.gz
Wind_Speed
3 4 10 22 14 13 3 6 8 7 10 6 10 17 18 22 10 11 16 19 20 21 26 23 27 32 37 38 39 43 44 47 47 46 43 38 39 38 35 34 32 31 30 28
2 9 18 11 5 10 12 18 20 16 15 6 16 23 19 12 18 21 19 22 21 19 21 7 20 26 34 39 41 43 46 49 50 47 42 32 38 41 39 36 34 33 31 30
19 10 13 10 8 6 15 15 18 19 6 5 9 20 12 13 15 20 14 20 21 25 23 12 9 22 28 33 41 44 46 48 48 45 42 31 31 28 34 36 35 35 33 31
10 9 11 10 8 14 24 12 14 9 4 12 4 24 7 8 12 12 14 17 19 23 17 14 9 10 26 33 34 37 41 44 45 46 45 41 35 26 33 35 41 38 35 33
9 5 6 9 21 11 21 4 6 3 4 5 4 5 4 8 7 12 15 15 19 20 13 13 11 18 26 29 35 38 42 44 44 48 45 43 34 30 32 35 39 38 36 34
10 2 5 9 5 9 1 3 4 4 1 11 10 9 7 6 7 6 10 15 16 18 10 8 6 14 20 26 31 37 40 42 44 47 45 45 43 38 33 38 39 42 40 37
3 6 3 5 5 3 4 5 3 3 1 12 9 6 20 7 9 11 14 16 14 14 6 7 9 10 18 29 33 34 38 37 45 47 49 50 48 45 43 41 40 39 42 44
2 17 9 6 10 9 11 10 7 7 10 20 4 10 11 11 12 11 11 13 12 9 7 10 10 11 18 24 31 31 36 35 42 49 50 49 47 46 42 43 41 42 44 45
5 18 3 4 4 8 2 6 11 2 2 1 9 14 10 2 8 7 10 13 17 11 8 9 7 9 17 23 29 36 36 36 42 43 39 43 44 44 43 43 43 43 41 42
3 7 4 1 2 3 7 3 1 2 5 8 11 6 15 9 5 8 15 17 18 9 3 2 5 7 15 22 29 34 37 40 36 38 41 42 44 47 41 42 43 43 41 39
4 5 11 2 7 10 2 5 5 3 4 12 16 14 6 8 1 6 12 12 10 10 5 7 7 10 18 22 27 32 35 35 37 44 46 44 46 47 46 45 43 45 43 41
6 5 6 15 12 5 7 16 17 10 11 5 5 11 30 29 18 20 18 12 7 9 10 8 8 6 13 21 26 35 35 39 49 47 44 47 44 46 47 47 46 45 43 41
4 4 11 7 12 14 8 12 10 8 8 21 17 14 26 25 21 20 15 17 11 12 9 7 7 9 12 21 25 30 34 44 39 38 43 40 42 42 45 45 47 45 43 42
7 15 19 20 19 4 6 8 9 16 15 19 19 25 25 27 29 30 16 17 10 15 11 9 10 10 10 19 24 27 32 40 38 41 42 41 42 47 46 45 45 46 45 45
10 20 18 28 28 25 29 29 29 27 26 25 30 29 22 25 28 24 26 25 15 9 10 15 13 12 11 13 23 30 33 35 42 40 38 41 44 40 38 41 44 44 44 45
6 14 22 31 29 26 27 33 32 33 33 34 29 30 28 27 29 29 31 28 26 18 15 17 13 13 11 11 23 28 30 33 38 36 39 36 35 39 43 41 42 43 44 44
9 9 14 19 8 21 19 25 36 35 29 24 27 29 17 17 20 22 20 19 18 18 19 19 19 21 19 24 31 27 33 35 37 37 32 35 36 38 40 39 41 43 45 46
17 18 14 20 20 26 15 7 16 27 25 24 13 15 17 19 22 11 20 21 22 21 22 20 17 19 33 37 34 36 29 29 28 26 27 31 35 34 34 36 39 40 43 47
19 17 11 14 20 20 21 8 8 8 5 18 12 14 15 18 19 3 21 21 18 19 15 15 23 28 31 32 36 33 22 23 24 24 29 34 37 34 35 35 36 37 37 37
13 8 8 14 11 13 7 15 18 15 8 20 10 12 15 15 14 15 23 20 20 18 20 21 26 27 30 37 37 19 15 14 18 19 20 23 26 29 31 31 32 33 34 32
4 4 7 12 14 6 8 9 11 6 9 9 6 10 9 11 7 17 19 18 14 22 30 32 29 26 25 29 40 26 19 13 10 11 16 22 28 29 28 29 29 28 28 28
4 3 4 4 4 13 20 10 4 8 6 8 9 10 11 13 14 15 16 17 19 21 24 26 24 28 32 28 27 25 22 27 15 11 15 20 25 26 29 31 28 29 28 26
4 6 3 4 5 20 16 7 13 1 3 3 6 7 10 14 15 14 15 18 17 20 23 26 23 26 30 26 24 17 29 31 18 12 15 18 19 22 27 28 25 24 27 26
4 7 3 3 6 9 16 15 8 3 3 4 5 8 8 11 14 16 14 15 15 17 18 26 27 22 27 29 29 25 29 31 23 20 18 20 23 26 27 26 25 24 25 25
7 1 7 9 15 17 14 8 3 5 3 7 9 9 11 10 14 13 14 15 14 17 25 25 24 24 30 33 35 29 29 29 24 24 21 20 21 29 24 26 32 35 39 40
12 16 11 15 17 14 17 11 1 5 5 5 9 13 13 12 15 15 15 15 16 16 25 24 27 28 30 30 34 36 32 27 22 20 18 19 23 22 21 22 19 27 24 29

GFSCGP_925_spd_009.txt.gz
Wind_Speed
3 4 9 21 16 13 4 7 9 8 11 3 13 17 15 17 18 19 16 19 22 21 27 30 28 29 31 34 38 43 44 45 44 44 44 41 45 44 41 40 38 37 35 34
1 10 18 7 4 7 8 15 18 18 17 6 17 23 15 13 15 23 25 22 23 22 20 21 12 23 31 36 38 38 42 44 46 45 43 31 34 42 44 42 39 38 36 35
16 8 11 8 8 7 11 10 20 18 6 6 12 21 15 11 9 19 24 20 20 21 22 23 8 20 26 31 35 40 43 45 45 42 38 30 30 24 35 38 40 41 38 36
9 7 12 7 6 13 19 11 13 10 3 10 3 19 5 11 16 15 18 18 14 18 19 16 8 8 26 34 32 33 36 41 42 45 45 42 36 27 35 39 46 43 40 37
9 4 4 6 14 9 12 4 6 3 4 5 5 4 2 6 9 13 11 12 15 13 14 17 7 16 25 27 28 31 34 38 40 46 46 46 35 34 35 38 43 43 41 39
10 2 6 8 5 9 2 3 2 4 2 7 10 8 6 5 7 4 5 10 10 11 17 9 10 12 12 18 25 30 33 36 41 45 46 44 39 39 36 40 40 44 43 42
2 5 3 5 4 1 3 5 4 3 1 11 7 5 22 10 11 9 11 10 11 11 10 17 10 7 9 18 24 30 34 35 40 44 45 47 44 42 42 41 39 41 44 47
3 16 9 7 9 8 8 9 6 7 8 17 6 10 16 8 8 4 6 7 9 11 11 9 12 6 8 16 20 24 32 31 40 43 44 46 46 43 41 41 40 44 46 46
4 10 2 5 5 9 5 6 6 3 0 2 12 17 16 7 5 1 8 7 8 12 16 13 10 3 6 11 19 24 27 30 35 42 41 41 42 41 41 40 41 43 43 44
3 9 5 3 1 4 6 1 1 1 4 11 8 17 16 12 15 12 9 10 12 11 11 10 8 5 6 13 20 24 25 31 35 39 42 41 45 47 45 44 44 44 43 42
3 1 9 3 5 17 1 4 5 1 5 15 17 10 26 20 7 9 9 9 10 10 9 10 8 5 8 10 16 22 29 34 36 40 43 42 46 48 48 48 46 45 44 43
9 5 6 16 6 5 5 8 5 6 9 10 16 16 21 30 18 11 12 17 11 9 9 8 9 7 8 14 20 27 31 36 42 42 41 47 43 43 43 48 50 48 46 44
4 4 10 6 7 2 6 13 15 19 18 22 22 21 16 23 26 19 11 8 9 9 10 8 9 11 9 18 24 27 28 38 39 37 40 37 39 42 47 48 47 48 47 46
4 9 17 14 11 18 22 14 17 16 14 22 21 25 16 22 28 29 16 10 13 19 19 17 16 14 20 26 28 29 32 35 36 36 39 40 42 51 49 44 45 48 49 48
3 14 15 19 15 17 20 24 28 30 27 24 23 24 23 24 21 15 17 17 19 18 18 17 16 15 19 28 34 37 35 33 32 36 35 41 43 41 40 42 46 47 46 48
2 9 16 21 23 18 18 16 17 14 15 22 25 30 18 18 21 22 18 17 18 18 17 16 16 16 16 23 26 31 36 39 33 31 38 39 32 34 42 40 42 43 43 45
5 5 3 19 18 12 14 19 18 21 14 11 9 7 14 17 19 15 16 19 18 17 16 16 15 15 23 28 31 29 35 38 38 33 34 35 37 37 39 37 36 36 39 39
13 12 6 16 17 20 11 3 5 1 8 9 8 10 12 13 15 11 14 18 17 17 15 14 14 23 27 31 31 31 35 32 34 31 29 29 31 34 35 34 36 35 38 41
16 13 6 3 6 11 15 7 6 5 4 8 6 5 8 12 15 6 14 14 15 15 12 18 25 27 28 29 30 31 31 30 27 26 26 26 23 25 26 28 30 30 32 32
3 6 5 3 4 5 2 6 6 7 7 4 3 4 5 7 9 12 14 14 13 13 18 20 24 27 29 30 30 29 27 27 25 32 26 27 25 24 24 25 25 24 28 29
3 3 3 4 4 7 3 6 4 4 7 13 4 5 4 4 6 14 15 13 14 16 21 25 24 24 26 31 34 32 28 26 29 39 30 19 18 22 23 22 23 26 27 24
4 3 3 2 1 8 6 10 3 6 4 9 4 4 7 7 11 13 14 14 14 15 19 20 20 23 27 28 26 29 29 29 31 37 33 20 12 14 15 19 19 21 22 23
2 6 4 8 6 6 17 15 12 5 9 5 5 7 7 8 10 11 12 14 13 15 20 23 21 27 28 24 25 29 33 35 34 30 30 28 19 13 16 20 18 17 19 18
7 12 5 2 12 14 11 12 13 13 11 6 7 7 5 9 12 13 13 15 15 19 20 21 22 25 30 29 30 29 32 32 35 33 29 27 24 18 19 22 24 23 22 20
9 4 6 10 16 15 19 14 15 10 7 7 5 5 8 7 14 12 14 14 13 18 22 21 23 26 34 33 35 30 30 31 33 34 31 25 24 19 19 22 24 27 30 33
9 17 12 15 20 15 16 16 3 5 7 3 5 9 8 9 13 13 16 16 17 19 24 23 25 27 31 32 37 37 31 28 31 32 28 27 22 19 20 20 18 25 24 24

GFSCGP_925_spd_012.txt.gz
Wind_Speed
2 4 9 20 14 1 3 5 11 8 9 4 22 22 17 16 13 25 22 18 21 20 24 29 26 24 25 29 33 37 40 42 43 42 42 39 47 49 46 47 44 42 41 39
3 7 15 0 2 6 6 13 17 14 15 5 13 21 18 20 23 22 24 22 19 19 18 18 17 16 20 28 32 34 40 41 44 42 40 28 34 40 48 49 46 45 43 40
11 7 4 5 3 8 7 7 16 15 6 5 10 13 8 10 8 15 20 20 12 18 18 19 8 13 19 26 30 34 39 42 41 40 36 30 27 24 38 42 45 46 44 43
6 4 7 4 6 10 16 11 13 10 6 5 5 14 8 9 10 7 14 9 12 12 9 10 11 9 19 28 27 31 32 36 39 44 43 42 34 26 36 40 49 50 48 47
8 4 4 5 10 7 10 4 6 3 4 5 2 4 3 4 8 11 9 8 8 6 7 10 12 17 24 20 21 25 29 33 35 42 42 44 36 32 29 35 42 46 48 47
7 1 5 8 7 9 2 2 3 4 2 6 11 9 4 4 5 1 8 7 9 7 11 15 15 17 20 14 12 19 26 30 33 37 40 41 35 31 30 36 38 44 46 46
1 5 3 4 2 1 3 4 4 3 1 9 3 3 13 5 10 7 10 9 7 8 10 11 14 14 20 13 6 12 20 25 30 33 38 41 39 41 41 42 37 39 42 47
4 13 7 5 9 8 8 9 6 7 6 13 2 9 13 8 6 8 8 7 5 6 7 8 10 8 17 11 7 11 17 22 26 33 37 38 38 37 37 40 41 42 43 48
5 9 2 5 4 5 5 5 3 2 0 3 11 15 14 6 6 4 5 7 8 9 7 7 10 11 12 11 8 12 15 20 24 29 32 36 39 41 39 38 39 39 41 45
1 11 4 2 4 4 6 3 1 2 3 6 7 8 13 20 10 11 12 14 11 11 16 14 12 17 25 19 16 13 12 18 22 27 32 37 40 43 43 40 41 41 42 42
2 2 7 4 5 8 2 3 4 3 6 9 12 10 16 16 12 9 8 9 11 17 18 15 14 24 25 27 27 22 17 18 22 24 27 30 33 36 39 42 43 44 42 42
6 7 7 14 6 5 5 14 11 11 8 6 12 13 17 24 21 22 11 17 17 15 15 14 13 17 22 27 30 30 34 31 31 29 30 32 35 34 36 41 45 45 44 43
1 4 4 2 3 4 2 3 4 11 10 17 13 11 11 17 20 18 15 16 15 16 18 17 17 17 22 24 25 25 30 31 29 30 33 33 34 35 41 44 44 45 45 47
3 5 11 12 15 10 10 12 11 11 7 12 11 15 18 12 16 17 13 14 15 16 18 16 16 15 23 25 26 26 26 30 32 31 26 30 32 35 40 41 40 43 44 44
2 11 12 14 9 8 9 16 19 21 18 14 18 23 8 12 14 12 13 15 15 17 18 17 16 16 24 26 28 29 27 28 29 27 31 31 27 32 34 38 39 41 44 45
4 3 6 17 21 16 19 17 19 20 21 16 17 9 4 5 6 10 7 12 16 16 15 14 14 17 20 26 28 30 29 34 35 31 29 32 33 27 35 35 38 40 40 40
2 3 3 17 12 8 11 20 19 19 21 1 9 3 0 3 6 8 6 10 11 12 13 12 13 15 21 26 28 29 30 30 29 29 31 33 35 33 29 31 32 35 38 36
7 8 4 11 9 21 8 4 5 7 4 6 5 2 6 5 5 9 4 4 9 9 10 10 12 19 25 28 27 28 31 31 27 26 26 32 37 34 33 30 30 32 31 35
17 9 3 4 7 8 10 4 3 3 5 4 3 6 8 7 6 5 4 2 7 10 8 13 16 19 23 26 28 30 32 30 29 29 29 33 36 38 33 28 28 29 29 28
3 14 9 2 4 6 2 3 4 2 4 6 7 8 7 2 4 7 4 5 8 9 13 15 19 19 18 24 24 26 28 28 27 28 32 34 36 37 36 30 25 28 28 27
3 2 9 7 4 7 4 5 0 5 5 5 5 6 7 6 6 8 10 8 11 15 19 20 22 17 21 21 25 25 25 26 29 31 35 34 31 35 36 32 25 26 27 23
5 4 4 3 2 7 4 3 4 5 4 5 4 11 11 10 10 10 11 11 8 10 19 21 18 22 25 23 21 23 26 29 30 32 33 33 34 33 31 32 31 23 25 24
2 6 4 7 6 4 4 8 14 4 6 8 7 12 10 9 10 11 11 13 12 16 19 20 19 25 29 24 21 23 28 28 31 33 35 35 34 32 29 26 25 22 20 19
6 3 9 13 17 17 17 18 8 8 14 15 12 12 6 10 12 12 12 13 14 20 20 21 21 24 28 28 27 26 29 27 28 31 34 34 33 33 29 24 24 21 19 20
8 5 6 13 18 14 16 16 16 17 14 10 6 5 7 5 11 11 12 14 14 22 26 22 21 24 32 33 34 33 31 30 30 30 31 31 29 29 29 27 26 25 27 26
9 17 10 12 20 16 17 19 9 7 5 4 4 5 4 5 10 12 15 18 21 22 27 25 28 29 34 34 36 35 33 31 31 34 31 26 26 27 27 27 25 26 30 26

GFSCGP_925_spd_015.txt.gz
Wind_Speed
1 4 8 15 14 2 3 5 6 8 8 4 22 19 15 15 16 23 24 21 14 15 18 14 20 21 21 24 28 32 34 39 40 41 38 38 46 49 53 54 54 50 47 45
3 7 15 2 4 7 7 10 14 8 10 4 12 20 20 22 20 20 23 19 10 11 14 13 20 22 21 23 25 29 34 37 42 41 40 29 33 34 43 49 52 51 50 48
9 6 4 7 5 8 5 6 10 10 6 6 7 8 4 7 5 7 13 8 9 7 11 10 10 17 17 21 27 26 32 35 38 39 34 31 22 25 34 43 48 52 52 51
6 3 6 4 6 8 9 10 11 6 4 4 5 9 5 8 10 2 7 7 8 7 4 5 9 19 25 24 18 20 23 30 33 36 34 37 32 24 31 35 40 49 52 53
7 5 4 4 8 7 10 1 2 2 3 3 3 4 6 3 6 7 4 5 2 2 7 7 14 24 29 29 23 15 11 19 25 33 35 35 30 26 22 30 36 43 48 50
7 3 4 7 4 6 3 3 5 4 2 5 10 8 1 4 4 1 8 2 3 5 11 15 22 23 25 32 24 18 9 7 16 23 28 30 27 24 23 28 32 38 45 50
1 4 3 2 1 2 2 4 4 4 1 7 3 3 5 5 5 5 6 9 8 9 8 16 19 21 25 26 32 27 20 11 9 15 23 27 28 28 30 31 30 33 38 46
3 17 8 6 7 7 7 8 5 6 6 12 2 9 7 8 2 6 2 4 7 20 17 17 16 22 29 33 34 36 28 21 15 13 16 22 27 28 29 29 30 34 38 45
5 10 1 5 4 7 4 6 5 2 3 2 8 12 14 5 5 7 11 17 16 14 14 16 21 28 30 33 38 38 35 29 23 18 19 20 24 27 31 31 30 33 35 37
3 7 7 3 2 3 7 3 1 1 3 9 6 5 13 6 9 14 15 13 14 15 16 14 14 21 26 29 31 35 37 35 35 31 24 23 24 26 31 32 33 35 36 36
3 5 7 3 6 8 1 4 4 3 4 5 7 8 4 8 12 8 5 7 9 11 11 11 13 21 24 28 30 29 31 33 35 35 36 27 23 26 28 31 34 36 36 36
6 5 7 13 7 3 3 7 8 5 7 5 6 8 14 13 11 9 9 11 11 10 11 10 14 17 20 21 24 27 30 30 33 36 36 34 34 25 25 30 33 35 37 38
2 4 5 5 3 3 3 3 6 5 2 11 11 5 11 10 13 11 10 10 9 10 13 12 11 13 16 17 18 20 25 26 31 36 36 38 37 34 29 28 31 33 35 39
2 4 13 15 13 4 7 6 4 4 7 11 9 8 11 5 12 9 7 7 7 8 9 9 10 15 21 20 19 18 20 21 25 30 27 26 33 37 37 33 31 32 32 34
5 10 9 13 13 4 8 10 16 16 16 11 15 20 22 1 3 6 4 6 7 6 8 11 11 9 17 21 24 25 23 24 26 26 24 27 27 31 36 36 31 28 30 34
2 4 1 4 11 14 17 17 18 17 17 14 17 21 7 3 2 4 6 3 9 9 9 8 7 9 14 18 21 25 26 29 31 24 24 26 28 30 30 35 36 32 31 31
3 3 8 20 7 4 7 14 14 13 18 12 16 3 1 2 4 4 5 5 6 7 9 8 8 9 15 19 20 20 24 29 27 24 26 26 28 32 33 34 35 34 30 31
9 8 4 8 4 19 7 4 0 5 2 5 6 3 5 6 4 6 8 6 6 6 8 9 10 16 19 24 26 26 26 30 26 25 25 27 31 34 32 35 35 34 29 25
17 11 5 8 14 13 16 4 4 4 5 5 5 3 4 4 3 6 9 9 6 7 10 14 18 21 24 26 27 26 27 26 23 23 25 28 29 31 28 30 32 36 33 31
9 13 10 2 4 6 3 2 1 3 4 6 6 5 5 1 3 10 7 6 8 12 17 17 23 24 23 25 23 24 23 24 23 24 27 30 31 29 31 31 31 32 32 33
3 2 12 11 8 6 5 5 3 5 5 4 5 8 7 5 10 12 5 7 12 15 18 19 21 21 25 23 21 23 23 23 25 28 31 31 30 30 32 33 33 32 31 30
4 4 3 2 2 8 5 2 5 5 5 6 6 9 8 10 12 13 14 11 8 9 18 22 18 23 27 25 23 24 26 27 27 31 31 30 31 33 32 31 34 31 29 28
4 6 4 9 6 4 5 6 11 12 9 12 5 9 8 10 11 13 11 7 7 13 17 20 24 28 33 30 25 25 33 27 28 28 34 35 35 33 30 28 33 30 27 24
6 6 9 13 11 13 14 16 13 8 12 10 8 8 7 10 12 9 8 9 10 17 18 20 21 23 30 33 27 27 30 27 29 31 35 35 34 36 34 31 29 28 27 24
9 4 6 13 15 13 16 16 17 15 11 8 6 2 3 3 6 6 10 11 14 20 22 22 22 24 31 33 35 33 31 30 31 32 36 35 33 33 33 30 29 29 31 29
11 17 10 14 16 14 19 17 7 6 4 3 3 3 1 2 7 8 11 16 19 22 25 26 28 29 33 35 37 37 35 32 33 35 34 31 30 30 30 30 33 33 35 37

GFSCGP_925_spd_021.txt.gz
Wind_Speed
8 8 10 15 16 20 20 21 23 21 20 22 21 21 20 20 23 23 19 15 8 5 14 18 21 22 21 20 18 14 7 7 10 14 16 17 19 19 21 22 21 22 23 27
4 12 15 15 13 13 18 21 21 20 17 13 17 21 25 21 19 14 12 10 4 11 14 17 23 26 28 26 24 19 13 7 5 9 9 12 11 16 17 17 19 21 23 24
17 15 5 9 12 18 18 19 22 22 18 17 13 15 12 10 19 10 7 12 16 14 14 14 19 23 23 25 25 24 20 12 5 2 4 6 7 5 9 13 16 17 21 23
11 8 6 11 15 14 15 12 7 12 9 10 7 11 11 17 12 9 13 14 14 14 14 13 16 23 25 24 21 21 21 19 15 8 2 3 6 8 7 10 11 14 18 21
0 5 4 8 9 4 8 2 7 8 11 16 14 9 5 15 8 13 12 12 12 13 13 15 19 23 23 23 24 24 23 22 21 17 9 6 5 8 8 6 5 11 14 20
17 2 4 10 3 7 6 7 14 13 8 8 6 6 4 4 5 12 10 10 11 11 12 13 15 15 17 17 18 20 22 26 25 20 16 13 11 9 9 9 10 9 12 16
5 7 5 4 7 5 6 8 7 8 8 13 5 6 9 6 3 5 10 8 9 10 10 11 11 12 14 16 17 22 25 29 27 27 21 16 13 13 12 10 10 10 11 12
13 17 7 10 6 12 10 9 7 10 14 16 8 12 10 5 12 12 10 10 9 8 8 8 10 12 13 16 22 22 24 23 23 22 21 22 20 15 12 12 13 11 13 11
10 9 5 4 4 2 5 7 8 6 11 8 14 23 18 12 12 9 10 9 8 7 6 8 12 16 16 17 17 18 20 21 20 19 18 19 20 21 18 14 13 13 14 14
1 10 3 1 2 8 6 5 7 4 5 15 12 18 13 7 12 10 7 7 6 8 10 10 12 13 13 14 16 19 20 19 18 18 17 17 17 18 18 18 19 18 16 15
4 3 9 6 7 12 10 10 11 12 11 13 16 13 8 9 8 7 7 7 7 8 8 8 8 11 12 14 17 18 18 18 19 17 17 17 17 16 17 18 18 21 20 18
10 5 10 23 21 19 14 15 16 12 9 11 13 12 10 8 7 5 4 5 5 5 6 6 6 8 13 15 16 15 14 15 16 16 15 14 15 17 19 20 22 25 23 22
3 2 5 8 10 2 4 6 12 14 12 17 14 12 7 4 3 2 4 6 4 4 4 5 7 9 10 11 11 11 12 12 12 15 14 15 16 20 24 25 24 25 26 25
2 5 11 13 17 19 19 18 15 11 9 17 16 14 15 14 9 7 11 6 5 4 4 4 6 9 9 10 10 11 11 10 11 13 15 15 16 16 19 24 26 26 26 24
4 10 15 18 21 19 18 19 24 24 23 23 24 23 24 23 17 7 2 1 5 7 6 4 5 8 11 12 14 14 14 15 15 15 16 16 17 19 24 26 27 28 27 28
7 10 11 16 19 20 21 24 24 22 22 24 25 28 23 9 2 3 2 4 7 9 8 5 5 8 10 11 12 14 15 16 18 25 27 27 27 26 22 22 23 22 24 28
11 8 8 18 16 18 16 24 23 26 26 25 22 12 7 5 3 5 6 7 9 10 10 8 8 10 11 12 12 14 15 15 18 25 28 31 29 27 27 29 29 25 23 24
12 13 9 15 13 20 14 14 12 16 14 10 5 1 2 2 7 9 10 11 11 12 12 11 14 16 15 15 15 16 15 17 18 20 22 25 24 27 28 28 27 28 26 27
17 16 10 11 15 19 25 21 20 17 17 11 7 5 2 9 12 14 10 7 10 11 12 15 18 17 17 16 16 15 15 18 19 21 23 24 24 25 26 29 32 31 28 30
7 14 12 10 14 17 15 5 2 2 13 6 5 3 7 7 9 12 12 11 11 14 15 16 18 15 17 18 17 16 19 20 22 23 25 26 26 27 29 29 30 33 31 32
3 5 14 14 16 12 8 4 2 7 9 10 5 6 9 10 11 13 11 13 14 14 17 17 13 14 17 18 20 20 22 22 24 25 27 28 29 30 32 34 34 33 34 34
8 7 7 5 6 12 4 5 5 5 2 5 10 13 12 14 12 12 13 11 10 13 14 12 14 17 20 20 20 23 24 26 27 28 31 31 31 32 33 34 36 35 35 35
7 11 7 7 8 5 9 9 11 12 13 15 18 16 12 12 12 12 12 11 10 10 11 12 13 18 23 19 18 24 27 29 32 33 33 33 33 32 32 33 34 33 32 32
15 18 12 14 17 23 19 19 18 16 17 17 15 13 11 12 10 7 6 6 6 10 11 12 14 17 22 21 22 23 27 28 29 31 32 31 31 32 31 31 30 31 30 30
12 5 13 14 20 21 19 18 19 18 16 15 12 8 10 8 6 5 5 5 8 10 12 13 15 19 23 25 26 25 26 27 29 30 30 30 29 29 31 30 30 31 32 34
16 21 13 15 19 16 18 16 15 11 14 13 10 6 4 2 4 3 4 6 8 10 13 16 17 19 23 26 28 28 27 27 29 30 29 29 31 31 31 31 32 32 37 39

GFSCGP_925_spd_027.txt.gz
Wind_Speed
2 4 6 11 10 6 3 3 4 5 9 5 9 6 10 10 10 10 7 13 10 11 13 21 28 33 33 34 32 30 27 26 19 12 4 2 1 6 12 15 16 17 19 21
4 6 13 6 5 6 4 4 6 5 5 2 7 9 13 14 3 4 13 10 8 9 11 20 26 32 34 33 32 31 29 27 23 19 14 10 7 8 2 7 10 14 15 17
8 8 6 7 5 4 3 4 5 8 3 4 4 6 8 3 12 13 11 10 11 11 12 13 22 25 28 33 34 33 31 28 26 22 14 13 11 10 14 10 6 8 12 11
6 5 7 7 6 6 5 3 4 3 2 3 3 5 4 2 7 8 7 8 9 11 12 13 17 21 26 29 30 33 34 33 30 25 23 24 22 18 16 17 11 7 5 7
6 6 3 3 5 7 7 2 2 3 4 2 5 0 7 9 5 4 6 9 10 9 11 10 15 20 25 27 29 29 30 32 32 31 28 24 23 21 19 15 12 12 10 11
5 1 3 6 2 2 3 2 4 2 3 1 5 5 5 4 8 6 7 9 10 9 8 12 16 19 22 23 26 28 29 29 29 29 29 28 26 24 22 22 21 18 15 12
2 5 2 2 2 4 4 4 3 4 1 5 2 2 7 5 5 12 13 10 7 7 7 7 11 17 22 24 25 25 26 26 24 25 27 26 25 25 25 24 22 21 20 19
4 4 7 3 5 5 5 5 4 5 3 4 7 5 4 9 16 17 13 9 7 6 6 7 11 14 17 19 20 21 23 22 22 22 23 21 21 22 22 21 22 21 21 20
5 5 2 2 3 7 4 4 3 2 1 3 4 5 8 9 12 12 10 8 7 6 6 6 9 11 12 13 15 16 17 18 20 20 20 21 20 20 20 20 20 22 22 21
2 2 3 1 3 3 2 1 2 2 1 4 5 4 4 5 10 8 6 7 6 5 6 6 9 10 10 9 10 11 12 15 16 15 16 17 19 21 21 20 21 21 20 22
3 3 4 3 4 5 1 1 2 2 4 4 2 5 4 6 11 10 8 8 8 7 6 6 9 11 9 7 7 8 6 8 10 11 11 13 15 16 19 21 22 20 21 24
2 4 4 8 5 3 6 6 5 3 5 3 3 11 3 8 10 9 9 8 7 6 6 6 10 11 8 7 6 4 2 4 9 10 11 13 15 17 17 20 22 22 21 22
5 1 2 8 4 2 1 1 4 3 2 6 5 5 2 4 6 7 8 7 6 7 6 6 8 9 9 8 5 4 3 1 5 8 10 13 15 18 19 21 24 25 25 25
5 3 6 8 4 2 3 7 1 4 2 3 8 7 16 13 6 7 8 6 7 7 8 7 8 11 10 8 3 1 4 7 10 12 16 19 23 26 26 27 28 29 29 31
6 6 4 6 2 3 4 10 11 6 10 8 20 17 19 17 9 4 4 4 6 7 7 7 7 11 10 8 8 8 9 9 10 15 18 23 28 32 33 34 35 35 35 36
1 2 2 4 2 4 8 18 12 14 16 15 19 22 18 1 2 4 5 5 5 5 5 3 8 12 13 14 15 13 12 11 11 15 19 25 30 32 34 36 39 40 36 35
5 5 3 6 2 4 7 15 16 12 11 7 9 10 0 4 4 5 4 2 4 5 4 4 5 10 9 9 8 6 4 5 9 14 21 25 27 31 33 34 37 39 37 38
5 5 3 4 4 2 9 4 5 8 7 4 2 5 7 5 5 5 6 5 6 6 6 5 5 4 2 4 4 2 4 9 15 20 22 24 24 24 28 32 33 34 34 34
7 5 1 4 5 6 13 6 5 5 7 6 5 4 6 4 1 3 3 3 4 5 8 9 6 4 6 4 2 3 9 14 17 20 20 20 23 30 31 30 31 32 33 35
6 5 6 2 5 9 7 4 6 5 8 7 5 5 6 4 1 4 5 5 7 10 10 7 5 8 7 2 4 11 14 16 17 15 20 27 29 28 29 29 31 32 31 34
3 1 15 14 6 7 7 6 5 5 8 4 5 7 6 5 6 6 4 7 12 13 9 9 9 8 4 3 10 13 14 15 15 22 25 24 25 29 30 30 29 30 31 33
7 7 5 2 1 9 8 2 7 7 3 6 7 7 7 8 8 7 8 7 12 10 12 8 6 3 2 6 10 11 12 16 21 23 26 28 30 29 28 29 32 29 29 30
1 7 5 10 7 5 7 7 9 5 6 6 7 9 10 9 6 8 7 8 9 13 10 6 3 1 4 7 10 13 16 19 21 23 27 29 29 27 26 27 28 27 26 27
5 2 5 3 6 9 9 8 8 8 9 8 8 10 8 8 8 8 7 6 9 13 10 5 3 4 7 9 13 16 18 19 20 24 27 26 24 27 24 24 26 26 27 26
8 5 6 8 10 11 11 9 10 11 9 8 8 9 10 9 9 9 7 6 10 11 7 3 4 6 9 12 16 17 17 18 21 24 24 22 21 22 24 25 27 27 30 29
11 18 11 13 15 11 14 11 7 8 12 11 9 7 8 8 9 6 5 11 11 7 4 4 6 7 12 16 17 17 16 16 19 24 20 22 22 22 24 25 27 30 30 32

GFSCGP_925_spd_030.txt.gz
Wind_Speed
0 4 7 12 11 4 3 4 5 4 7 2 8 5 13 9 7 7 7 8 9 11 12 18 23 29 30 32 32 32 31 30 24 19 11 11 13 8 3 4 5 6 9 12
4 7 14 3 5 7 4 5 6 6 5 1 7 9 12 6 5 6 9 8 9 8 9 16 21 29 33 34 35 35 33 30 27 23 19 14 12 20 21 16 14 10 5 7
8 7 5 6 5 5 5 5 5 7 5 3 4 6 7 5 9 12 10 10 8 8 8 9 17 24 30 34 35 35 34 33 29 24 18 14 13 17 20 20 18 19 15 11
5 7 5 3 4 4 5 6 6 4 3 3 3 5 6 3 6 8 7 7 6 7 6 9 15 22 28 29 31 33 35 36 34 29 28 27 25 20 18 18 17 15 14 13
6 4 3 4 7 8 7 4 3 1 2 1 3 0 6 6 4 5 5 6 6 6 6 7 13 20 23 27 28 30 31 33 32 33 33 31 29 24 22 20 18 17 15 14
6 1 5 7 2 4 4 4 5 4 3 2 6 6 5 4 5 7 6 6 6 6 5 10 15 18 21 22 25 27 29 30 29 30 30 30 29 28 29 29 30 27 23 21
1 4 2 2 4 2 5 5 2 3 2 5 5 3 6 7 2 13 13 8 7 6 6 6 9 14 17 21 21 23 24 26 25 26 27 27 27 28 28 28 27 29 29 29
6 4 8 4 5 7 5 7 5 6 3 4 5 5 3 4 7 11 8 8 7 6 5 5 8 11 13 16 18 20 22 22 23 24 24 24 24 25 25 24 25 26 26 26
5 5 1 1 2 6 4 4 2 5 2 3 4 1 3 3 5 6 7 6 7 7 5 6 8 10 11 13 15 16 16 18 18 18 19 20 19 20 20 21 22 23 23 24
5 1 2 1 2 2 4 5 3 2 2 5 5 5 5 8 9 7 7 7 7 6 7 5 8 10 10 9 10 10 12 13 13 14 15 14 16 18 19 21 22 23 23 22
5 4 3 3 5 8 2 2 2 3 5 5 2 6 3 9 12 13 10 10 9 9 7 6 11 11 10 8 7 7 8 9 10 11 12 14 16 17 17 19 20 22 24 25
4 4 4 6 1 1 3 6 6 4 5 3 3 11 2 8 12 10 10 10 9 5 7 8 13 12 11 10 9 6 5 4 6 6 7 9 12 15 18 20 22 24 26 27
7 1 2 6 5 2 4 3 4 5 3 5 4 6 1 4 6 8 6 7 6 7 7 7 13 14 14 12 10 8 5 3 2 3 5 7 11 15 19 21 23 25 26 28
6 5 7 9 5 3 3 5 4 5 3 3 8 5 6 5 7 6 7 8 9 8 8 7 8 15 16 14 12 11 9 5 2 3 6 11 14 19 24 26 27 28 28 30
4 5 3 3 5 3 5 8 7 8 6 7 16 9 15 7 5 7 5 3 6 7 8 8 8 13 16 16 15 13 11 9 7 7 9 11 16 23 27 29 31 31 32 32
3 1 3 2 3 5 6 14 6 11 13 11 14 19 15 8 2 2 4 5 6 7 7 8 9 15 19 20 19 15 12 10 9 7 8 14 20 25 28 30 31 34 37 38
6 6 4 5 2 3 8 9 16 12 9 8 11 13 1 5 6 6 7 6 6 6 6 7 9 16 21 19 15 12 9 6 6 9 12 17 21 23 24 28 34 38 38 36
5 5 2 2 3 2 6 2 3 10 7 7 2 4 6 6 5 6 6 6 7 6 7 7 10 10 11 11 11 11 9 7 7 10 14 17 18 22 28 34 34 36 34 32
2 4 3 4 5 6 12 6 7 7 8 7 7 4 6 4 2 3 6 6 7 6 10 15 15 14 13 14 12 10 7 7 10 12 12 14 19 26 27 30 32 32 33 34
3 0 5 3 5 10 7 1 5 5 4 6 7 8 5 6 3 6 7 7 9 14 16 17 16 14 16 13 10 7 6 7 9 10 14 21 22 24 26 29 31 31 31 30
3 1 13 10 4 8 8 6 2 5 7 4 6 7 7 6 9 5 8 8 13 18 18 16 17 22 19 14 9 5 3 5 7 12 17 19 21 23 25 27 28 30 31 30
7 8 5 3 4 8 8 6 7 6 3 6 6 7 11 12 8 7 9 8 13 14 11 18 21 20 15 10 6 4 4 7 12 14 16 18 20 21 23 25 29 30 28 26
2 7 6 11 7 3 7 7 12 5 6 6 6 8 12 11 9 10 10 10 14 15 18 21 20 15 11 7 6 4 6 10 12 13 15 18 20 20 21 24 29 27 23 22
4 4 4 4 5 6 7 12 5 7 9 8 10 11 9 11 12 12 9 9 10 16 21 21 17 14 11 8 6 6 8 10 12 14 16 19 20 22 22 23 26 22 24 21
6 6 4 3 6 7 9 9 10 12 9 11 9 11 14 12 12 11 9 8 14 17 18 19 17 14 12 9 6 6 8 9 11 13 16 18 19 21 23 22 24 23 25 25
7 13 5 7 16 12 12 8 7 9 13 13 13 11 10 12 13 9 9 16 15 17 18 15 12 11 10 8 6 6 7 8 9 12 15 17 19 20 20 21 24 26 23 26

GFSCGP_925_spd_033.txt.gz
Wind_Speed
1 4 7 13 11 3 2 4 4 3 5 1 6 5 12 8 9 8 7 7 8 8 10 19 24 27 29 31 32 32 31 30 26 20 20 25 26 24 23 23 19 14 11 9
4 7 13 4 5 5 2 2 5 6 4 3 6 10 3 7 5 5 8 7 7 5 7 14 22 27 32 32 34 35 34 31 28 25 23 19 17 26 27 24 25 22 21 19
8 6 5 7 4 5 4 5 5 8 3 1 3 6 2 5 8 10 8 6 6 6 6 8 16 23 27 31 34 35 36 34 31 28 21 20 18 23 26 27 26 25 22 20
5 4 4 4 5 7 4 8 7 3 3 4 1 5 6 5 5 5 5 6 6 6 5 7 12 19 22 24 27 31 33 34 32 30 32 32 31 28 24 24 23 23 22 22
7 5 4 5 8 6 7 4 4 2 2 3 4 1 6 6 3 5 5 5 6 5 6 6 11 15 17 21 23 27 30 30 30 29 30 31 31 27 26 27 27 28 27 27
6 2 4 6 3 6 5 4 6 4 3 1 7 7 4 5 3 6 5 6 6 6 5 7 10 13 16 19 22 25 27 28 27 27 28 29 29 27 27 27 29 29 28 29
1 4 2 2 5 3 4 5 2 4 2 5 3 1 7 4 5 10 12 9 8 7 6 5 7 10 14 17 18 21 22 24 23 25 26 27 27 26 27 26 26 26 27 28
7 3 8 4 6 6 6 7 5 7 3 4 2 6 5 1 4 9 11 9 7 8 7 6 8 10 12 14 15 17 18 19 20 22 23 22 22 23 23 22 22 23 23 23
6 4 2 3 2 5 5 5 3 5 2 3 4 4 2 3 4 4 6 7 9 8 7 8 11 11 12 12 12 13 14 16 17 18 18 19 18 19 19 19 19 20 20 21
5 2 1 1 2 3 4 6 4 2 2 5 4 5 5 7 10 7 7 9 8 8 7 7 11 12 11 11 11 11 12 14 14 14 14 15 15 15 15 16 18 20 20 22
5 4 2 3 5 8 2 2 3 3 5 6 2 6 5 11 13 14 11 9 9 8 7 6 13 13 12 11 11 10 10 10 10 10 10 10 11 13 14 16 17 19 20 21
5 4 4 8 1 1 3 7 7 5 6 3 1 12 5 6 11 11 10 10 7 6 7 10 15 15 14 12 11 9 8 7 6 6 5 6 8 11 15 17 18 20 22 23
8 1 2 6 4 2 4 4 4 4 4 7 6 6 3 4 7 8 8 7 7 9 8 7 13 16 16 14 13 11 10 7 5 3 0 3 6 9 13 17 20 22 23 24
3 5 8 13 6 5 5 5 5 5 3 4 12 5 2 4 7 6 7 6 8 8 8 7 9 17 18 17 16 15 13 11 9 8 5 4 6 10 14 19 22 24 25 29
4 5 2 1 4 4 3 5 9 8 7 11 8 12 6 10 9 8 8 7 7 7 8 10 9 15 19 19 19 17 16 15 12 9 7 6 8 12 17 21 24 26 29 32
1 2 3 2 2 1 5 7 9 10 7 8 9 17 7 5 6 5 7 7 7 8 7 7 9 13 17 21 22 21 18 15 13 11 9 7 11 16 20 23 26 30 33 34
6 6 4 7 2 3 8 12 15 10 6 8 11 17 2 6 7 7 8 8 8 7 7 8 9 17 21 24 25 22 17 15 13 11 9 12 15 18 21 24 28 31 33 35
6 5 2 3 2 6 3 2 3 8 10 7 3 3 6 4 2 4 5 6 7 6 6 6 12 14 17 19 22 19 16 16 12 11 11 14 16 18 22 26 28 30 31 33
3 6 4 4 5 7 9 5 7 7 9 9 10 8 4 2 2 5 4 5 6 7 13 17 18 19 18 17 16 17 17 15 12 11 12 13 15 19 21 22 25 27 30 32
3 4 4 3 5 8 6 2 5 5 6 7 7 7 6 5 1 7 6 6 9 14 13 13 16 18 17 18 20 20 19 15 13 12 12 14 16 17 19 21 23 25 26 30
4 1 9 6 7 8 6 5 3 6 8 5 8 7 7 5 7 5 5 7 16 20 19 18 18 21 23 22 22 20 17 15 12 12 13 13 13 15 17 19 20 23 26 27
7 7 4 2 3 9 7 6 8 5 1 6 6 7 7 9 9 7 8 8 14 19 21 19 19 22 24 24 22 19 17 14 14 13 12 12 12 13 16 18 20 22 24 26
2 7 6 11 8 1 7 6 12 5 6 6 6 7 8 8 9 11 8 10 15 21 25 25 23 23 24 24 21 18 15 15 14 13 11 11 12 13 14 17 20 23 22 22
4 4 4 4 4 5 7 7 5 6 8 6 6 6 7 10 12 12 9 9 10 20 24 24 23 24 27 24 20 17 15 14 13 12 11 11 12 13 13 15 18 20 22 20
6 8 5 2 4 3 8 8 7 8 8 7 7 8 10 10 13 11 9 8 17 22 20 24 27 27 28 23 19 16 14 13 12 11 11 11 12 13 15 15 17 19 21 19
6 7 4 5 8 6 6 6 9 9 12 12 9 8 9 10 13 10 11 19 20 19 19 21 25 25 22 20 18 15 14 13 12 12 11 11 12 13 15 16 22 17 16 17

GFSCGP_925_spd_036.txt.gz
Wind_Speed
1 4 8 12 10 2 5 4 5 3 3 2 6 7 7 4 7 7 6 6 6 6 8 15 19 21 25 28 29 29 29 27 22 24 29 31 32 29 29 26 24 24 22 21
4 7 10 4 4 5 3 3 5 5 3 5 4 9 3 4 3 4 7 6 5 4 6 13 20 24 27 27 30 31 29 28 29 29 27 23 26 28 26 25 23 22 20 20
8 5 6 7 5 6 5 6 4 7 2 1 2 7 3 4 5 5 4 4 5 5 5 6 14 19 22 27 29 30 30 29 26 25 22 21 22 24 24 25 24 24 22 20
6 4 6 4 6 7 5 8 6 4 3 4 1 4 4 4 5 5 5 5 6 5 3 5 9 15 18 20 24 27 28 29 28 29 29 30 31 29 25 27 26 27 27 27
7 7 5 7 6 7 6 5 6 4 4 1 3 1 6 4 5 6 6 5 5 5 5 5 8 12 14 17 21 24 26 28 26 27 29 32 34 30 27 26 27 28 28 29
4 1 6 7 2 5 9 6 7 5 3 1 8 7 3 5 4 5 6 7 8 8 7 7 8 11 14 16 18 21 24 25 25 26 28 28 28 26 26 25 25 25 25 26
1 4 2 3 5 3 5 6 1 3 1 5 1 2 8 7 5 7 14 12 8 6 6 6 8 9 11 14 16 18 21 24 23 25 25 24 25 24 24 23 22 22 23 24
7 3 10 6 6 7 6 6 5 7 4 4 1 6 6 2 4 6 11 10 7 7 6 6 7 8 9 11 13 16 18 21 20 20 21 21 21 22 21 20 20 20 20 20
6 4 1 2 3 4 5 4 4 6 2 2 5 4 3 1 3 5 7 8 9 8 7 7 9 10 11 11 11 12 15 17 16 17 17 18 18 17 17 16 17 17 17 17
6 3 1 2 3 4 3 6 4 3 1 5 4 4 5 6 8 6 8 11 9 8 8 7 13 12 11 11 11 11 12 13 13 13 14 15 14 14 14 14 16 16 17 17
6 3 2 4 6 9 3 3 3 4 4 5 2 5 5 7 8 14 12 11 10 9 8 7 14 13 12 12 12 12 11 11 11 10 10 10 10 10 11 13 15 17 17 19
8 5 4 6 2 2 1 6 6 5 5 2 2 8 3 3 10 14 13 12 7 7 8 11 17 17 16 16 15 14 12 11 9 8 7 5 5 6 8 11 13 15 16 17
9 2 2 5 3 3 4 4 3 4 4 7 5 8 3 4 7 8 9 8 8 8 8 8 16 19 20 19 18 17 15 13 10 8 6 3 1 4 7 10 14 17 19 22
5 5 7 9 6 6 5 5 5 5 4 5 12 13 2 4 7 6 7 7 7 6 7 7 8 18 24 22 21 19 18 16 13 10 7 5 4 5 8 12 15 19 21 24
4 6 3 3 3 4 6 7 11 10 11 12 14 14 8 11 10 10 9 6 6 8 7 7 9 16 23 21 20 20 19 17 15 14 13 10 8 7 9 12 17 20 22 25
3 2 3 1 2 4 3 9 8 15 5 5 4 12 5 4 3 5 8 8 7 7 7 8 8 12 19 23 23 24 22 20 18 18 17 14 11 9 11 15 18 20 23 26
6 6 4 5 3 5 8 11 14 6 7 10 12 13 5 5 8 9 9 8 8 8 8 7 10 18 22 25 25 25 26 22 22 21 18 16 12 11 13 17 19 22 24 26
6 5 1 4 3 7 3 4 2 13 6 6 1 4 6 5 6 6 5 7 9 8 8 7 13 17 20 22 22 23 22 22 21 21 19 16 13 13 15 17 19 22 24 25
2 5 3 4 6 7 3 5 7 7 9 10 11 12 6 5 4 5 8 8 8 9 14 17 16 16 16 16 17 18 19 21 21 22 20 16 14 14 16 18 20 21 23 24
4 3 5 3 4 8 2 2 5 5 8 9 12 10 7 6 2 5 6 6 9 14 13 15 14 13 15 17 17 18 21 23 25 23 19 15 13 15 17 18 19 19 20 23
3 1 7 4 5 7 5 5 4 6 7 3 6 5 6 5 6 4 4 5 15 19 18 16 15 17 18 17 19 23 25 27 24 19 16 14 14 15 16 17 16 19 20 22
7 8 4 2 3 10 7 3 8 5 2 5 6 6 8 7 7 5 7 6 10 16 18 19 19 21 21 20 21 25 27 25 20 17 15 14 14 14 15 16 16 17 19 22
3 6 6 10 6 0 12 4 6 5 6 5 6 6 8 8 7 9 8 8 12 17 23 21 23 25 22 22 24 26 28 22 19 17 16 15 15 14 14 16 16 18 18 19
4 3 2 3 4 5 9 5 2 6 7 5 6 6 7 7 9 8 6 7 10 22 25 26 20 22 26 25 25 26 23 21 19 17 16 14 15 14 14 15 16 17 18 18
4 8 6 1 0 2 5 7 7 7 6 5 6 8 9 8 8 7 7 7 15 21 24 21 22 26 29 26 25 24 22 19 18 17 15 15 15 15 16 16 16 17 17 17
6 7 5 4 8 6 5 10 10 9 9 9 8 5 7 8 9 6 8 16 19 20 22 19 21 24 25 23 24 23 20 18 17 17 16 16 16 15 16 17 19 15 15 15

GFSCGP_925_spd_039.txt.gz
Wind_Speed
2 3 8 12 9 3 5 4 5 3 3 3 6 6 6 4 5 5 5 5 5 6 7 14 16 17 21 24 26 24 23 24 26 28 29 30 30 28 27 25 22 21 19 19
4 7 8 5 5 4 4 4 6 4 3 3 5 9 3 1 2 3 6 5 5 4 5 11 15 19 23 25 26 27 27 26 25 26 27 27 28 28 26 24 23 22 20 20
8 4 8 8 4 6 5 7 5 6 1 2 1 6 4 1 3 4 3 4 3 5 5 5 13 17 20 24 25 25 24 22 24 26 27 28 29 28 29 29 29 29 26 25
6 3 6 4 5 8 6 8 7 5 4 4 1 4 4 4 4 5 6 6 5 4 3 5 9 13 17 19 22 24 26 25 23 22 24 27 30 29 27 29 29 29 28 28
7 8 6 5 8 8 6 6 7 4 4 2 3 1 6 4 7 9 8 6 6 5 5 6 8 10 12 15 21 23 24 25 24 25 26 29 33 30 27 27 27 27 26 26
4 1 6 8 3 6 9 7 6 4 3 2 8 7 4 6 7 6 8 9 9 7 6 8 8 10 11 11 18 21 24 24 23 24 25 27 28 27 26 24 25 24 23 24
2 5 3 5 5 3 2 6 1 1 1 6 2 3 7 5 5 4 16 15 11 8 7 7 10 11 12 11 14 17 21 23 22 23 23 24 24 24 24 22 21 19 20 21
7 5 11 7 7 8 7 7 5 7 4 3 2 6 5 2 3 1 6 13 12 10 8 8 13 14 13 13 17 16 17 20 19 20 21 21 20 22 22 19 18 18 18 18
7 6 1 2 4 6 7 6 4 7 2 2 4 5 3 2 1 2 9 12 14 11 10 10 15 16 16 15 16 17 18 18 17 18 18 18 18 18 18 16 15 15 14 13
6 2 1 3 3 3 4 7 3 2 2 5 3 4 4 5 8 6 9 15 13 11 10 10 17 19 18 16 16 16 16 18 17 16 16 17 16 15 14 13 13 13 12 11
6 4 1 4 7 10 4 3 2 3 3 5 2 5 6 7 9 14 13 13 14 13 11 10 16 21 19 18 18 18 19 19 18 16 16 14 13 12 10 10 10 10 10 11
10 5 4 7 2 2 2 7 7 5 5 2 1 6 1 4 7 11 13 14 12 12 13 14 19 23 23 23 21 22 21 20 19 18 15 13 11 8 6 6 7 8 9 10
10 5 3 4 2 1 5 5 4 4 3 8 5 5 0 1 4 6 10 11 10 10 9 10 17 22 27 27 26 25 24 22 20 18 15 12 9 6 3 1 3 6 9 11
13 5 9 16 5 7 7 7 6 7 4 6 10 4 6 6 8 7 8 9 10 10 11 11 10 18 26 29 29 28 26 24 21 19 16 14 11 8 5 2 3 7 11 13
7 12 5 1 2 5 6 9 12 13 13 9 9 13 9 12 12 12 11 7 8 9 8 8 10 16 21 27 28 27 26 26 24 22 20 17 14 11 8 5 6 8 11 13
1 5 4 5 0 1 3 10 11 12 10 14 4 10 7 6 6 6 9 10 9 9 7 8 9 14 21 27 30 28 28 27 26 25 24 19 16 13 11 9 8 9 11 14
8 6 7 7 4 4 5 10 11 5 5 11 11 12 5 5 7 8 9 11 14 7 8 8 9 15 20 25 29 30 28 27 27 27 24 22 19 17 14 11 9 10 13 15
6 6 3 4 3 8 3 0 5 10 5 3 2 4 10 5 2 3 4 7 7 8 7 7 13 14 16 17 22 24 24 25 27 26 24 23 22 20 16 12 10 11 13 15
3 4 3 5 5 5 3 5 7 8 8 9 9 5 5 5 4 3 6 6 7 7 12 16 16 15 15 17 19 20 21 22 23 27 27 26 24 20 16 13 11 12 14 15
1 2 5 4 5 9 2 1 3 4 4 8 11 7 8 7 3 4 6 6 8 13 13 17 17 16 14 16 17 19 19 20 24 27 28 26 23 20 16 13 12 12 14 16
3 1 11 5 4 4 5 5 4 5 5 3 6 5 7 5 5 6 6 5 11 15 18 18 18 21 21 18 19 19 19 23 25 24 23 23 22 18 15 13 13 13 14 16
6 7 4 3 2 8 7 4 9 4 2 5 5 7 9 5 7 6 8 7 9 12 15 21 22 25 21 19 19 22 23 26 24 21 23 23 20 17 15 14 13 13 15 16
4 6 5 7 5 0 15 3 5 5 6 6 7 7 8 8 7 7 5 5 9 13 17 20 25 27 23 22 24 26 29 25 22 22 23 21 19 17 15 14 14 13 14 16
4 2 2 3 3 3 11 2 3 4 5 5 4 6 8 7 7 6 5 6 8 15 18 20 21 23 26 25 26 28 26 22 22 23 22 20 18 17 15 14 14 14 15 16
3 6 6 2 2 1 5 7 5 6 4 5 4 7 9 8 6 7 5 6 14 17 15 15 21 27 27 25 24 25 23 20 21 21 20 19 17 16 15 14 14 16 17 16
5 6 5 4 9 5 5 9 8 7 9 9 8 5 5 8 9 6 7 15 14 14 14 14 18 21 24 20 17 19 20 20 20 19 19 18 16 15 15 15 16 15 15 14

GFSCGP_925_spd_042.txt.gz
Wind_Speed
2 7 12 18 16 5 1 4 8 3 1 3 11 13 12 6 5 7 6 6 6 6 5 7 8 9 10 11 13 15 17 15 14 15 15 16 18 17 18 19 19 18 17 16
4 13 15 2 9 8 6 9 13 5 3 5 9 14 15 10 7 7 9 9 9 8 7 8 9 10 11 12 13 14 15 14 14 13 15 15 17 18 18 19 21 21 19 19
13 2 7 9 8 11 11 13 12 9 2 4 6 15 19 6 6 7 8 10 11 12 11 9 10 10 10 11 12 18 19 20 20 20 22 23 20 18 17 18 22 24 23 23
9 4 7 11 12 13 15 13 9 7 4 10 3 8 4 8 10 11 12 13 13 12 10 11 12 11 10 10 11 14 18 20 20 20 19 17 17 19 16 16 18 21 22 22
6 10 11 11 8 12 6 5 10 8 10 6 8 7 4 3 11 15 15 14 13 11 10 10 11 10 9 9 11 14 18 20 20 20 20 21 22 18 16 15 17 19 20 20
4 2 4 5 3 4 13 7 5 2 3 9 16 13 6 7 8 12 16 16 16 14 12 11 9 8 8 8 11 14 18 20 19 22 21 21 21 18 17 13 13 13 14 15
4 9 4 4 5 3 6 10 4 5 6 8 2 11 12 8 8 9 22 21 19 16 14 13 14 12 10 9 11 13 16 18 19 22 21 20 18 17 16 13 11 12 11 13
10 8 15 13 18 9 15 18 6 7 6 3 2 8 5 1 4 5 15 19 19 18 15 14 17 15 14 12 12 14 16 18 18 20 21 19 18 15 14 13 12 12 11 11
10 7 3 4 3 13 8 11 3 4 1 3 6 4 6 4 5 5 12 17 19 19 17 16 20 19 17 16 15 16 16 16 16 18 18 18 17 15 15 13 11 11 10 9
4 5 2 3 4 1 6 11 5 5 5 6 4 5 8 9 13 11 14 18 19 18 18 16 20 19 17 17 16 15 15 16 17 17 16 16 16 14 13 11 10 10 8 6
6 4 3 5 12 18 7 7 6 3 4 4 3 5 5 11 15 17 17 19 21 21 19 17 21 21 20 18 17 16 15 16 16 16 16 16 15 14 12 10 9 8 6 4
9 3 6 11 0 2 12 11 15 7 6 4 2 6 5 4 7 12 15 17 19 19 18 20 23 23 22 21 19 19 18 17 17 17 18 17 16 15 12 10 8 6 3 2
12 4 4 4 4 2 8 10 11 8 2 11 7 5 3 3 5 8 12 15 17 19 19 18 23 23 23 23 21 21 21 20 19 21 21 18 17 16 14 11 8 5 2 1
15 9 13 16 6 10 11 16 17 17 11 14 19 8 7 9 10 10 12 14 18 19 19 18 18 23 23 22 23 23 22 22 22 23 21 20 19 17 15 13 9 6 3 3
12 13 21 26 15 7 6 17 22 25 31 16 21 18 15 17 15 16 16 14 17 19 19 19 17 21 22 22 23 23 23 24 25 27 23 22 20 18 17 14 11 7 6 6
3 12 17 19 16 12 10 15 27 29 27 24 15 15 8 14 7 10 13 16 18 19 18 16 15 19 21 24 25 24 25 26 28 26 26 23 22 22 19 17 13 11 9 8
12 12 7 18 20 3 7 32 20 21 21 23 21 15 7 7 12 13 14 16 18 17 17 15 14 18 19 21 23 27 29 26 33 35 33 31 26 24 22 19 16 14 12 12
7 10 5 3 7 10 7 1 17 18 11 11 1 4 10 6 6 5 8 13 12 14 13 10 13 14 14 16 20 21 25 29 32 34 35 32 29 28 25 22 20 17 14 13
2 8 4 5 9 7 1 4 8 13 12 10 12 5 5 5 4 4 6 6 10 11 11 12 14 12 14 17 17 21 25 26 27 32 35 32 32 31 28 26 22 18 15 14
1 3 7 4 6 10 2 5 3 3 6 7 10 9 9 7 6 7 10 8 7 10 12 12 11 12 13 15 17 19 22 24 28 31 31 32 33 32 31 25 21 18 17 16
5 3 12 7 6 4 2 5 3 7 3 3 8 9 12 7 4 4 10 7 9 11 11 9 11 16 18 17 19 21 22 25 27 25 26 27 28 29 27 23 21 18 17 16
10 9 5 3 5 10 6 6 8 3 3 4 5 8 10 5 7 8 8 7 8 9 10 14 16 21 22 21 23 23 24 27 25 24 24 25 26 25 24 22 20 18 17 16
5 4 5 8 4 2 11 3 3 2 5 5 6 7 8 9 7 9 7 6 7 11 12 12 17 20 20 22 26 27 29 27 24 22 24 24 24 23 22 21 20 17 17 16
4 1 0 2 2 2 10 2 1 3 4 4 3 5 8 9 8 8 7 7 7 11 12 13 12 18 23 27 30 30 25 22 22 23 23 23 24 23 22 20 19 19 18 15
1 7 5 1 1 3 4 5 6 6 3 5 4 6 9 6 6 7 6 5 9 13 14 13 16 21 27 26 31 26 24 22 21 22 22 22 22 21 19 20 19 19 19 19
5 6 5 3 7 4 9 16 12 8 8 7 7 4 4 6 8 7 6 13 14 16 15 15 18 20 21 18 20 21 21 21 22 21 20 20 19 18 18 16 17 21 21 18

GFSCGP_925_spd_045.txt.gz
Wind_Speed
9 9 14 18 16 17 8 10 12 8 4 4 13 15 12 14 12 12 11 10 9 7 5 4 5 7 9 9 11 13 20 21 21 21 19 17 17 17 17 18 17 17 16 15
5 16 18 13 11 14 13 15 16 13 4 4 12 17 15 14 18 16 14 12 11 9 8 7 7 7 8 9 10 11 10 9 8 10 13 14 16 17 18 18 20 20 19 18
17 4 7 10 8 12 16 16 14 14 2 10 12 19 22 24 15 9 10 11 10 11 11 9 9 9 9 9 9 11 11 10 11 13 17 20 20 18 17 16 19 20 20 21
14 13 5 10 16 15 16 14 14 12 7 10 6 10 11 11 16 16 14 14 14 13 12 11 12 12 11 9 10 12 12 13 11 10 11 12 15 18 15 16 18 19 19 19
6 10 12 13 12 11 8 2 7 11 14 15 18 9 13 7 14 18 18 17 16 15 14 14 15 14 12 11 11 12 13 13 12 13 15 18 20 19 16 17 19 18 18 17
14 3 7 11 3 7 10 5 2 3 8 12 18 16 14 13 14 13 18 19 19 18 17 18 16 14 12 11 12 12 13 13 13 12 12 15 18 17 18 15 14 12 12 13
13 16 6 5 6 3 12 7 4 5 6 8 1 13 17 2 5 9 21 21 20 18 17 15 17 16 14 12 12 12 13 14 15 16 16 16 15 14 15 13 12 12 11 10
15 10 22 17 22 10 18 17 6 6 6 5 2 9 7 3 7 4 15 19 18 19 16 16 19 18 16 14 13 13 14 14 14 15 15 16 16 13 12 11 12 12 11 10
12 11 6 7 10 16 7 12 13 4 2 4 7 10 7 7 7 7 16 19 20 19 17 17 22 20 18 16 14 14 14 14 14 15 15 14 15 15 14 13 12 11 10 9
5 6 5 5 4 4 9 8 6 6 6 8 9 14 10 9 15 14 18 19 18 18 18 17 22 23 21 19 17 15 14 15 15 15 15 15 14 13 14 12 11 10 10 7
8 7 6 7 11 17 7 9 8 6 9 4 5 7 9 13 16 20 18 18 20 21 20 18 22 24 23 21 20 19 19 19 18 16 16 16 16 14 14 13 12 10 8 7
14 4 11 14 4 9 17 14 20 6 6 6 4 11 3 3 11 16 17 17 19 20 19 17 23 24 23 24 23 23 21 20 19 18 18 16 15 15 14 13 12 11 9 7
13 5 3 4 1 2 9 15 16 19 1 14 8 8 3 6 8 12 16 17 17 18 19 17 21 24 25 24 24 23 22 22 22 21 19 17 17 17 16 14 13 12 11 9
9 6 11 18 6 8 9 16 22 17 12 17 25 17 6 10 12 13 14 16 17 19 20 19 17 23 25 25 25 24 23 23 23 23 22 21 20 18 17 17 16 14 12 11
11 9 17 23 22 11 8 14 23 28 34 17 32 24 14 16 15 17 16 16 16 17 19 20 18 19 25 25 25 24 24 25 25 25 24 24 23 21 19 19 19 17 15 12
3 5 13 22 21 20 21 19 23 30 30 31 32 29 5 15 14 11 13 15 16 17 19 20 18 22 25 27 26 26 26 27 28 27 27 25 24 24 25 24 22 19 16 14
11 7 6 17 10 14 5 38 24 26 30 24 28 31 4 6 11 10 8 11 14 16 18 18 18 22 24 26 27 27 27 26 30 30 30 29 28 29 29 26 23 22 19 16
10 13 7 9 5 11 20 10 15 29 26 21 21 1 2 8 6 5 5 12 12 11 13 13 16 19 21 22 24 21 23 27 31 32 31 33 32 32 30 27 26 23 21 20
3 10 5 6 11 11 16 5 8 12 23 22 10 9 6 5 5 4 6 4 7 9 10 15 18 18 20 22 23 24 26 26 28 31 32 35 36 35 32 31 30 26 22 20
1 5 7 4 6 10 2 5 2 7 10 10 14 13 10 9 7 7 10 6 6 10 15 17 19 19 19 18 19 22 25 28 30 31 33 34 35 35 34 36 32 27 23 21
4 3 13 13 6 5 3 6 3 7 2 3 9 11 11 6 3 5 11 8 10 13 17 18 18 17 16 17 20 23 24 27 28 27 28 29 30 32 32 32 29 26 23 20
11 9 6 5 5 10 9 4 7 1 3 4 4 7 9 6 5 7 9 10 9 11 14 15 16 14 13 16 21 22 24 23 23 23 24 25 26 26 28 28 27 25 22 22
5 4 4 3 1 3 4 2 2 1 4 3 4 5 7 8 7 9 9 9 7 13 14 12 11 10 11 14 19 21 26 23 21 21 22 23 22 23 24 24 26 23 22 22
3 2 4 4 1 1 4 4 4 1 2 2 3 7 9 8 8 5 6 6 6 12 11 10 10 11 15 18 21 25 24 22 20 20 20 20 21 22 23 23 24 24 24 23
2 7 5 4 4 5 5 5 7 6 1 3 4 5 8 8 7 6 5 6 8 12 12 13 15 15 17 15 18 22 26 22 17 18 20 20 21 23 24 25 26 27 26 24
5 5 4 3 12 6 10 16 13 9 8 5 6 4 3 6 8 6 5 10 13 14 14 14 14 15 16 14 13 15 19 23 21 20 19 19 20 19 20 18 18 19 19 16

GFSCGP_925_spd_048.txt.gz
Wind_Speed
5 4 9 13 12 11 9 8 8 5 4 6 9 11 10 13 9 10 10 9 9 8 10 9 8 9 10 11 12 16 24 23 24 25 23 22 22 22 22 20 18 19 18 17
3 10 12 9 9 6 10 10 10 8 8 3 7 11 9 12 12 17 14 11 11 9 8 12 12 12 11 13 16 20 19 13 13 16 19 18 22 22 23 22 22 22 21 21
9 4 6 13 5 5 8 8 7 8 5 4 6 8 12 10 14 14 10 9 10 14 11 9 16 16 16 15 15 15 14 15 14 17 22 25 26 23 23 23 25 24 23 23
10 13 4 6 8 8 9 7 11 7 4 4 6 5 6 9 13 15 11 9 10 12 11 12 17 20 19 16 15 16 15 17 19 20 27 24 24 24 21 23 23 22 22 23
6 8 10 8 7 9 5 4 2 1 6 5 8 9 9 15 18 13 14 11 10 11 13 11 17 21 19 18 17 18 18 19 17 19 22 23 26 25 24 23 23 22 21 20
6 2 4 5 5 0 8 5 2 1 1 6 12 13 7 13 14 7 12 13 12 13 11 14 19 22 20 18 18 18 19 19 19 21 21 26 28 27 25 21 20 19 18 17
7 8 3 4 5 4 5 6 2 2 2 7 1 9 16 4 2 6 16 18 14 15 14 12 16 20 22 22 21 21 22 22 21 22 23 24 25 24 23 20 19 17 16 16
11 5 17 9 12 7 9 9 5 7 5 4 3 7 6 2 6 3 14 16 15 15 14 14 18 20 24 25 24 24 25 26 25 25 25 23 23 23 20 19 18 17 16 15
8 8 7 9 4 8 6 9 9 3 2 2 6 7 7 5 3 2 11 16 17 17 15 15 20 21 25 27 26 27 26 25 25 25 26 24 22 21 21 19 18 17 16 14
4 3 1 3 5 3 4 5 3 2 3 6 5 9 10 6 11 8 13 18 17 17 16 14 20 22 24 27 26 24 25 27 26 25 24 23 22 21 21 20 19 17 15 13
5 3 1 6 8 13 4 4 5 5 5 4 5 8 3 13 14 18 15 18 20 20 18 16 21 24 28 28 27 26 26 26 26 25 24 24 23 23 21 19 18 16 15 12
10 2 5 8 3 3 7 9 10 5 7 7 2 20 2 5 9 15 16 16 17 17 17 15 21 23 26 28 29 29 27 27 27 26 26 25 24 23 21 19 18 17 14 12
12 5 1 4 2 3 6 8 18 14 2 19 6 13 4 6 4 8 13 13 15 16 16 14 17 22 26 27 30 31 30 29 28 27 26 24 24 23 22 21 19 17 15 14
13 5 10 18 5 6 8 11 19 19 10 6 25 14 2 4 6 6 10 13 14 16 18 16 15 21 24 26 28 29 31 31 30 29 28 28 27 26 24 22 21 19 17 15
12 14 9 20 16 4 5 12 20 24 28 16 25 25 17 12 12 16 13 12 15 17 17 18 17 18 25 26 27 28 31 32 33 32 31 31 27 25 23 23 21 20 18 17
2 6 10 23 11 17 18 11 15 25 25 28 26 32 7 10 12 9 12 14 15 16 19 20 17 20 24 29 29 30 33 36 35 34 34 31 28 27 26 25 25 23 22 20
8 6 6 14 9 13 10 32 24 22 24 23 25 35 6 7 10 11 11 14 15 15 17 17 18 21 25 28 30 33 34 35 35 35 33 32 31 31 31 29 28 26 25 22
12 14 7 8 6 11 10 7 25 27 28 24 25 14 7 10 11 8 15 19 17 15 13 11 15 19 27 30 33 30 33 34 37 35 34 33 33 34 33 32 30 28 27 25
15 12 6 7 11 10 11 5 8 10 21 21 25 18 8 6 5 2 2 2 7 8 9 18 22 22 26 30 33 33 33 34 35 36 36 36 36 35 34 34 33 32 29 27
1 13 10 3 6 9 2 4 4 7 13 8 17 15 10 8 8 4 8 7 8 13 18 20 26 26 31 31 34 33 33 34 34 34 36 35 36 37 36 35 34 33 31 30
4 3 13 13 8 5 4 5 3 6 6 3 2 5 9 8 5 7 9 5 8 14 19 24 27 27 29 27 29 29 29 32 33 31 30 30 33 35 35 34 34 33 31 30
9 9 4 5 4 8 4 2 8 3 5 1 3 5 6 6 5 6 6 8 9 10 17 22 22 19 19 21 24 24 26 26 25 24 25 27 28 30 31 31 30 30 30 30
4 5 6 6 4 2 2 2 1 3 1 3 3 3 6 7 4 7 7 8 6 14 18 19 21 18 15 17 19 20 21 19 19 21 23 25 25 26 27 28 28 28 29 31
2 2 3 4 2 3 1 3 3 3 3 3 3 5 7 7 8 6 7 7 7 14 17 19 19 17 15 14 14 14 14 15 17 21 23 23 24 25 24 25 26 29 31 32
1 5 5 1 0 3 6 5 5 2 4 2 4 3 5 8 6 6 5 6 8 15 17 19 16 13 11 10 10 12 15 15 17 18 19 20 21 22 23 24 26 28 28 27
4 5 4 4 7 3 4 9 9 7 4 5 5 3 3 6 8 5 5 10 14 15 15 14 13 12 8 6 5 6 8 11 15 17 17 18 18 18 20 20 21 15 14 15

GFSCGP_925_spd_051.txt.gz
Wind_Speed
3 4 8 12 9 5 3 3 4 5 4 5 9 8 10 11 8 9 10 11 12 12 15 18 15 14 15 16 17 20 23 25 27 29 29 28 27 25 23 21 19 18 17 16
3 8 11 8 8 8 8 8 9 6 4 5 6 11 9 7 13 15 18 15 14 9 9 17 18 17 18 20 21 25 27 27 27 25 25 27 29 24 26 24 21 20 20 20
8 7 8 9 6 7 7 7 5 8 1 3 4 7 8 8 11 9 15 11 11 17 15 11 20 22 21 22 27 29 27 22 22 24 24 29 29 29 29 27 27 24 24 24
9 8 4 5 7 8 8 6 6 6 1 5 4 9 7 5 10 10 18 14 16 15 11 14 20 23 26 25 29 23 24 24 23 24 29 32 33 32 29 30 29 27 24 24
9 8 8 14 8 9 7 2 2 3 4 1 3 4 6 9 12 18 16 15 15 17 17 17 22 26 26 25 25 25 23 22 23 25 30 31 33 34 32 31 30 28 25 23
6 2 7 8 2 6 7 5 6 4 2 5 12 9 7 9 16 11 6 9 15 16 15 17 25 30 27 24 26 26 26 26 28 29 30 34 37 37 35 32 31 28 25 24
3 5 3 5 6 3 5 7 1 3 1 8 5 8 20 5 8 10 11 12 14 16 16 16 18 24 29 28 28 29 30 28 30 30 30 32 36 36 35 33 32 30 27 23
11 7 13 8 8 8 8 9 6 8 5 4 3 7 6 10 7 6 8 15 16 16 16 17 21 23 27 31 31 31 32 31 30 30 32 33 34 33 32 30 28 26 25 23
7 7 4 1 4 12 6 9 4 2 2 1 6 7 7 4 7 3 7 13 16 17 17 17 21 25 28 32 34 34 34 32 32 33 34 33 31 31 30 27 25 25 23 23
4 2 3 1 5 3 7 6 3 1 2 6 5 6 9 6 13 8 8 10 10 12 13 14 20 24 27 32 35 34 34 35 34 35 34 33 32 29 28 27 26 25 24 22
5 4 2 3 6 13 5 5 5 5 5 5 3 8 6 11 11 12 13 14 15 16 15 14 18 23 28 32 34 35 35 35 35 34 34 32 31 29 28 27 27 26 24 21
13 4 5 9 4 3 3 7 6 5 7 5 2 20 5 3 4 9 11 13 13 15 14 14 20 22 26 30 35 37 37 37 36 35 34 32 31 30 29 28 28 25 23 20
10 5 1 4 3 2 6 8 17 1 3 15 5 18 3 2 3 6 8 9 12 14 13 13 16 22 27 29 31 33 36 37 36 35 34 32 32 31 30 29 27 25 23 21
13 6 14 20 6 7 7 10 13 18 9 8 24 27 1 4 6 6 8 8 10 13 16 15 14 21 26 28 29 31 36 38 38 36 35 34 34 32 31 30 28 27 24 23
13 13 8 18 5 5 7 13 20 21 31 15 32 25 17 10 11 10 7 8 11 14 16 18 17 16 25 27 29 32 35 40 40 38 36 36 35 33 31 30 29 27 26 24
3 10 12 19 9 8 8 9 19 24 23 26 28 34 7 9 6 8 12 15 16 17 19 18 17 20 25 29 31 31 32 36 40 39 39 37 35 35 34 32 32 29 27 25
10 7 5 18 8 8 8 33 21 20 17 22 25 40 5 11 11 9 10 14 19 19 20 19 19 21 27 31 31 32 32 36 40 40 39 39 38 37 36 34 32 31 30 28
7 12 6 11 6 12 14 9 28 30 33 24 24 21 9 14 13 10 10 16 18 18 17 16 18 24 26 28 30 29 33 38 41 40 39 39 38 38 37 35 35 34 33 31
18 12 7 7 13 10 14 5 9 13 25 26 29 29 24 8 2 7 8 9 14 12 13 19 25 27 29 33 36 37 38 40 39 40 39 39 38 39 38 40 39 37 35 33
5 18 12 5 7 11 6 2 3 6 17 11 21 25 22 9 9 18 7 8 9 12 19 21 25 28 32 33 37 36 35 34 37 38 40 39 39 42 42 40 40 38 36 34
6 6 16 15 10 4 5 5 2 8 6 2 1 2 7 8 8 2 8 4 5 7 17 23 29 28 28 33 36 31 29 33 36 36 35 36 37 37 38 38 37 36 35 34
9 9 5 6 4 9 8 2 8 3 1 2 2 3 6 5 3 5 6 6 7 8 14 19 20 20 22 30 33 27 29 31 31 30 30 30 32 34 35 35 34 33 33 33
5 6 6 9 5 1 1 2 3 1 1 1 2 3 6 6 4 6 6 7 6 9 14 21 24 22 21 23 25 27 26 24 24 23 25 27 28 29 31 33 34 32 31 33
2 1 3 3 5 4 4 3 3 1 2 3 4 3 4 5 6 4 5 5 6 11 16 22 24 21 19 20 19 17 16 15 17 21 23 24 25 27 28 28 29 30 31 33
3 6 4 3 3 3 7 6 4 5 5 4 3 3 5 7 5 5 4 4 5 12 16 23 23 21 19 17 16 13 10 12 15 17 19 21 22 24 24 24 25 26 28 27
4 5 5 4 5 3 3 11 9 7 5 5 5 2 2 5 7 6 5 8 13 15 17 16 15 18 17 16 14 12 11 11 13 16 18 19 20 20 19 20 19 17 15 15

GFSCGP_925_spd_054.txt.gz
Wind_Speed
1 3 7 13 9 4 4 4 5 4 4 6 9 9 11 9 7 9 10 12 13 15 11 21 20 18 18 19 20 22 24 26 29 31 31 29 27 24 24 22 21 21 22 21
4 8 12 4 5 6 5 4 8 6 5 7 7 11 12 6 9 14 17 15 17 8 10 20 24 23 24 23 23 25 27 29 30 31 30 31 30 24 25 23 22 20 20 21
8 6 6 9 5 6 7 8 5 8 2 3 4 7 9 9 10 8 16 16 16 19 18 14 21 28 26 27 27 28 30 30 28 30 29 30 25 27 25 24 23 22 22 24
7 5 5 5 7 8 8 7 6 5 1 5 3 7 5 6 11 9 18 14 18 14 14 15 22 27 33 31 29 29 29 29 28 29 31 35 35 31 27 29 27 26 25 25
9 7 8 6 7 9 7 4 5 3 3 2 5 4 5 3 8 12 17 14 15 16 21 21 26 31 35 32 32 31 32 30 29 29 31 34 33 30 33 31 30 28 26 25
4 1 7 8 3 7 5 5 6 4 3 5 11 8 5 7 11 8 17 11 14 16 18 17 24 26 33 33 34 34 32 31 30 30 32 34 36 39 38 35 33 30 28 26
3 5 3 5 5 3 4 7 2 3 1 9 3 8 19 6 10 12 15 9 10 11 14 15 16 24 28 35 37 35 34 33 31 30 33 34 38 41 41 39 37 34 30 27
11 7 12 7 12 8 10 9 6 7 5 5 1 8 6 11 12 8 9 7 7 9 12 16 19 26 28 34 37 36 35 34 32 33 34 36 40 42 41 39 37 34 32 29
7 7 1 1 4 12 7 9 6 2 2 2 6 8 8 10 9 10 13 4 8 10 12 13 17 23 27 33 37 37 36 34 35 35 35 39 41 42 41 38 35 32 30 28
5 3 1 1 4 2 6 8 2 1 2 6 5 6 9 5 11 12 11 8 9 8 9 10 15 21 26 31 37 37 38 38 38 38 39 41 41 40 38 36 34 33 31 28
5 5 1 3 7 11 3 5 3 5 5 5 3 7 7 11 11 10 11 9 10 12 12 12 14 20 25 30 35 36 37 38 38 39 40 42 41 38 37 36 35 33 31 28
10 4 5 8 2 2 1 4 6 5 5 5 2 17 4 6 6 7 8 8 9 11 12 12 16 22 25 28 33 36 37 39 40 41 42 43 41 39 38 36 35 33 31 28
10 5 1 5 3 2 5 6 12 1 2 11 5 17 1 4 4 5 9 5 6 9 10 10 12 18 23 28 32 35 38 39 39 41 42 41 41 40 39 38 36 34 32 30
15 6 10 17 4 7 7 9 14 19 10 8 22 21 6 4 5 7 7 5 8 10 13 13 13 16 23 27 30 32 35 39 42 42 42 43 43 42 40 39 38 35 33 32
13 11 12 22 13 8 9 13 22 24 31 13 34 19 24 9 11 10 6 6 8 10 12 15 15 13 23 26 29 31 34 40 43 43 43 44 42 41 40 39 37 35 34 32
4 18 21 27 19 11 8 11 23 30 28 27 30 32 7 8 5 6 11 10 11 14 17 16 15 17 25 31 33 33 35 41 44 41 40 41 41 40 39 37 37 35 34 32
11 13 7 19 17 5 5 34 12 14 21 21 23 37 9 15 12 11 11 12 15 14 16 17 20 19 27 33 35 35 35 35 40 37 39 40 40 40 39 37 37 37 36 32
4 16 12 14 6 14 22 18 25 25 22 19 20 29 11 16 18 16 7 9 14 15 14 14 15 24 30 30 31 31 35 38 38 36 38 40 40 40 39 38 38 37 35 34
17 10 6 7 14 9 9 6 9 12 28 29 28 31 27 18 4 20 9 13 12 13 13 16 24 23 25 29 30 32 35 36 36 38 40 43 41 39 40 40 39 37 35 35
21 20 12 4 10 13 8 4 4 6 17 11 19 28 24 5 9 20 7 7 11 8 14 17 25 27 28 30 36 35 31 32 34 35 35 38 39 42 43 41 39 37 38 41
4 10 19 17 13 5 5 5 3 10 8 1 2 2 5 8 8 2 2 2 2 5 13 21 26 26 29 35 36 29 28 31 35 32 34 37 42 42 41 39 37 40 43 37
6 4 4 7 8 12 8 2 9 4 1 2 2 2 5 1 2 3 4 4 5 7 11 19 20 20 25 32 34 26 29 29 27 30 35 37 38 38 38 39 39 37 35 35
5 8 5 8 5 2 3 2 1 3 3 3 3 2 5 5 3 4 4 5 5 7 10 13 19 18 17 22 25 22 21 21 24 25 28 31 32 33 34 34 34 31 31 32
4 2 3 2 5 5 3 2 4 4 4 3 2 3 4 4 5 4 5 5 5 7 12 18 21 19 17 19 20 17 18 17 20 24 25 25 26 27 27 27 28 30 31 33
2 7 6 4 4 3 6 4 1 2 3 3 2 2 3 6 4 3 4 3 3 8 13 19 21 20 19 16 14 12 14 15 17 18 19 20 21 22 22 24 25 27 28 28
5 5 6 4 4 2 3 7 10 6 3 2 1 2 2 2 6 5 5 5 8 13 16 17 19 22 19 17 16 13 12 11 12 13 14 16 18 19 21 21 19 17 17 16

GFSCGP_925_spd_057.txt.gz
Wind_Speed
3 3 7 13 8 3 5 4 5 4 3 4 8 10 12 7 7 10 11 13 14 17 17 26 28 25 23 21 21 20 21 24 27 28 28 26 25 23 23 22 19 18 19 19
4 7 10 4 5 4 2 3 6 5 5 6 8 12 11 5 9 11 15 15 16 14 9 19 29 29 28 26 25 24 25 27 31 32 29 28 28 24 24 22 22 21 21 21
8 5 4 8 5 5 5 6 5 7 3 4 4 8 8 10 8 7 13 16 15 20 18 13 23 33 32 32 31 30 30 31 31 31 29 28 25 25 22 23 23 22 21 22
7 4 4 4 5 9 7 8 6 5 2 5 2 8 5 6 11 9 16 15 20 17 11 14 23 25 34 36 32 31 32 33 33 32 32 35 33 26 26 28 25 24 23 25
9 8 7 6 7 9 7 4 5 1 3 3 4 3 3 1 8 14 17 17 18 13 15 18 25 33 35 36 36 34 34 34 33 32 33 35 29 27 31 28 28 28 28 27
5 2 7 8 2 6 7 5 5 4 3 4 15 8 10 6 13 8 13 14 10 10 11 10 20 24 29 35 36 35 33 36 33 34 33 35 35 31 35 33 33 32 31 29
2 5 3 4 5 3 4 6 2 3 0 9 4 5 18 5 9 12 14 13 6 5 8 9 13 21 25 35 35 34 34 35 36 34 34 35 34 35 40 41 39 37 35 32
10 9 12 7 14 8 8 9 6 8 4 5 1 7 7 11 11 9 10 7 3 5 7 11 15 23 26 31 33 32 35 37 38 36 35 35 35 38 41 43 43 41 39 35
7 7 2 2 3 11 6 7 6 2 2 2 6 8 8 12 11 11 12 6 6 8 8 8 11 20 25 31 35 35 36 37 38 37 35 35 36 40 42 43 43 41 37 35
4 3 1 2 4 3 6 7 3 2 2 5 5 7 8 6 10 11 12 9 6 6 7 7 10 18 24 31 35 35 38 39 39 37 36 37 38 41 43 43 42 40 38 37
4 4 1 3 7 11 3 5 2 5 5 5 3 8 8 12 10 10 9 8 9 8 8 8 9 17 23 27 34 38 38 38 39 38 37 37 40 42 43 44 43 41 40 38
8 4 5 9 2 3 2 6 9 5 5 5 2 16 4 8 7 7 9 7 4 5 8 8 12 19 22 27 32 38 39 39 39 38 37 38 41 43 44 45 43 41 41 38
8 3 2 7 2 3 5 5 11 4 3 10 5 15 4 2 5 7 8 3 4 6 7 8 8 15 20 24 29 32 38 38 38 40 40 39 41 43 44 43 42 41 40 38
10 6 9 14 3 5 7 9 11 17 9 13 20 23 7 5 7 7 8 6 6 7 9 9 9 12 21 26 30 32 34 38 38 40 41 43 44 46 45 44 43 42 40 38
10 8 15 23 10 5 7 9 16 20 29 12 33 17 26 16 10 12 8 6 7 8 9 12 13 12 21 24 27 31 34 39 41 40 41 42 44 45 45 44 43 42 39 38
9 5 9 18 16 11 11 8 20 28 26 26 31 26 5 2 5 3 12 9 9 10 12 13 13 12 21 27 29 30 34 39 42 40 38 38 41 42 42 42 42 41 39 37
13 9 8 16 13 10 10 31 28 18 21 24 25 38 6 16 11 14 14 10 10 12 14 13 17 17 25 31 32 34 34 35 39 37 38 40 42 43 42 41 40 41 40 37
6 12 6 12 2 12 21 21 20 24 25 21 25 31 18 13 14 14 7 5 13 13 11 11 12 20 28 28 31 29 33 36 37 35 38 41 41 41 40 40 40 40 39 37
13 6 7 9 15 15 13 11 9 12 28 25 29 30 27 16 4 25 9 14 15 10 13 15 23 23 24 30 32 33 32 33 33 33 35 39 42 41 41 41 40 39 37 34
17 17 10 5 6 12 11 3 7 8 14 24 15 25 28 6 8 21 3 5 10 8 7 10 18 22 26 27 34 32 29 29 31 33 34 41 43 41 41 40 39 37 35 36
4 7 18 15 12 5 5 5 3 10 8 4 6 18 10 9 8 3 5 3 4 3 3 7 17 20 22 28 32 25 25 26 28 31 32 34 36 36 35 35 34 32 31 35
10 8 6 7 10 18 5 2 10 4 2 2 1 2 4 5 3 2 4 3 4 4 6 10 15 16 20 25 27 22 23 26 27 28 29 29 30 30 29 28 27 30 35 35
3 6 5 8 5 7 9 8 5 3 4 1 2 1 3 3 2 2 2 4 4 4 8 12 18 17 16 22 25 21 19 22 24 24 25 27 28 32 34 33 31 31 35 34
3 2 3 1 5 4 5 1 1 2 2 1 1 1 3 2 4 3 4 3 4 4 7 16 20 18 15 17 17 16 19 19 21 24 25 26 28 29 30 30 31 32 31 30
3 3 4 5 4 3 7 6 6 3 2 5 4 2 2 5 3 4 4 3 3 6 11 15 18 18 17 15 15 14 14 16 19 20 21 22 23 26 26 26 27 27 28 28
5 6 4 4 1 2 3 3 8 8 7 3 4 2 1 1 5 4 5 5 6 10 13 18 20 23 20 20 18 15 13 12 14 15 16 17 18 19 20 20 17 16 15 14

GFSCGP_925_spd_060.txt.gz
Wind_Speed
3 3 7 13 6 3 5 4 4 4 3 4 8 11 11 8 6 11 11 11 14 15 25 24 29 29 27 26 25 24 23 22 23 25 25 25 24 22 20 21 21 23 25 23
4 6 10 6 5 4 3 3 5 5 3 5 9 14 13 8 9 11 15 15 16 12 9 16 29 32 34 32 29 27 27 27 27 28 29 26 26 22 22 23 22 19 19 19
8 5 4 7 4 5 5 6 5 7 3 4 4 8 8 8 7 8 10 15 12 18 18 11 21 34 36 36 35 33 31 29 29 31 30 23 26 23 22 22 23 22 20 21
6 3 5 4 4 8 6 8 5 3 1 5 2 6 6 7 10 9 14 12 19 18 12 9 18 24 35 44 39 36 34 32 32 33 33 33 34 26 25 29 26 25 23 23
8 9 7 6 7 7 7 6 6 3 3 4 4 1 4 2 8 14 13 16 16 13 11 13 16 29 34 33 40 37 34 34 34 35 37 35 33 31 31 31 28 26 25 24
4 1 7 8 3 5 8 6 5 4 2 5 11 9 10 7 12 7 12 11 11 8 8 8 17 24 28 32 36 37 36 36 36 36 36 35 35 34 34 32 31 29 28 28
2 5 3 4 6 3 3 6 2 3 1 10 3 3 16 4 7 11 13 13 4 5 6 7 9 16 22 29 32 33 37 32 37 36 37 37 37 36 38 38 37 34 33 32
9 9 12 8 11 8 9 8 6 8 4 6 5 8 7 12 11 10 10 11 4 6 6 8 8 16 21 27 31 33 34 32 38 38 38 37 36 36 36 38 39 39 39 39
6 7 2 2 2 12 7 8 4 1 2 2 5 7 8 8 13 8 14 6 7 7 8 8 8 18 21 26 29 32 33 33 38 39 38 37 36 36 37 39 39 41 43 41
4 4 1 1 3 3 6 6 3 2 3 5 6 6 7 7 10 12 13 10 8 7 7 6 7 16 21 26 29 32 33 35 38 39 39 38 37 36 37 40 41 42 43 42
6 5 1 2 7 10 4 5 2 4 5 5 3 9 8 11 11 8 8 7 6 7 8 7 7 17 22 25 29 34 35 34 37 40 39 38 37 37 37 40 42 43 44 43
9 4 6 10 2 2 2 6 8 5 5 3 3 15 3 7 6 7 7 4 1 3 6 7 7 14 18 23 29 33 33 36 39 41 39 38 37 37 38 40 42 44 45 43
7 4 2 7 3 2 5 5 8 4 3 11 7 15 3 3 4 3 7 5 4 4 4 5 6 8 16 22 26 31 36 36 39 39 39 37 37 38 40 40 43 45 45 43
12 5 8 13 4 5 5 7 11 15 7 17 14 34 11 3 6 6 8 8 6 6 7 6 7 8 17 23 26 28 32 38 40 40 39 40 40 40 40 42 45 47 46 44
12 8 11 20 10 4 7 7 14 21 28 10 35 19 31 17 10 10 9 5 8 8 8 9 10 10 15 18 23 28 32 37 40 39 38 40 40 39 40 43 46 47 46 45
9 5 10 17 17 17 13 8 17 22 23 24 31 28 15 7 7 5 10 16 11 10 11 11 10 9 15 23 26 28 31 36 39 38 36 34 36 37 39 41 44 44 43 43
15 9 9 17 10 8 9 30 24 17 19 21 23 35 17 16 10 16 13 10 10 11 12 11 13 14 20 27 28 32 31 33 38 37 38 39 38 38 41 41 42 44 44 42
3 15 8 11 5 12 16 7 23 25 24 21 25 33 29 20 15 11 19 11 11 13 10 9 10 17 26 25 29 27 30 34 35 34 38 39 39 38 39 41 43 42 42 43
12 7 6 9 15 9 9 7 9 11 24 23 28 31 31 24 2 19 8 11 15 11 9 11 18 18 19 26 28 30 31 31 31 32 32 35 36 34 38 38 38 39 39 39
12 14 8 5 6 7 8 2 4 7 14 9 17 25 27 4 8 20 3 2 6 6 8 9 12 12 17 20 25 27 26 28 27 27 30 34 36 36 35 34 35 36 37 37
4 6 15 13 12 5 5 4 3 7 7 2 1 10 8 6 9 2 4 3 4 3 7 4 3 8 13 19 24 22 23 22 24 27 28 30 32 31 31 32 32 33 31 30
7 6 5 5 7 7 7 3 9 5 3 4 3 3 4 4 6 5 4 4 5 3 3 4 9 10 12 18 22 20 18 19 20 23 25 26 26 27 28 28 27 26 27 26
8 12 6 8 5 3 7 3 3 5 7 5 3 5 5 4 4 2 2 0 2 2 5 8 15 15 12 15 16 18 16 18 21 23 23 24 24 23 23 24 25 25 26 26
3 2 2 1 5 7 5 3 2 2 3 1 2 3 3 2 2 2 2 3 3 2 4 14 18 16 16 13 12 13 18 19 22 22 22 21 21 21 21 22 24 26 27 26
2 1 2 4 7 6 7 5 3 4 3 3 2 2 3 3 3 2 2 0 1 3 8 13 15 15 16 15 15 15 17 20 21 20 22 22 22 23 23 23 25 27 28 29
3 4 3 4 4 1 4 5 4 5 4 4 2 1 2 3 2 3 3 3 3 8 13 16 18 21 19 20 18 14 13 13 17 18 17 17 18 18 19 20 17 18 17 17

GFSCGP_925_spd_063.txt.gz
Wind_Speed
3 5 6 12 5 3 5 2 3 4 3 3 7 11 12 10 6 11 13 13 14 15 23 24 32 33 32 31 31 30 28 26 24 23 24 23 27 26 25 26 26 27 29 30
5 5 10 6 6 4 4 3 5 6 3 4 8 14 16 8 12 15 17 17 17 14 9 15 28 33 38 38 36 34 32 30 29 28 29 24 28 26 26 25 27 30 30 30
8 5 6 7 5 6 4 6 5 7 3 3 6 7 8 7 11 15 13 18 12 18 18 12 19 32 34 39 41 40 37 34 31 30 29 25 26 23 24 26 27 27 27 27
6 4 6 5 5 8 5 8 5 4 3 4 1 6 8 7 13 7 14 13 19 19 14 10 13 21 34 44 42 41 39 36 34 34 33 35 32 24 28 31 29 29 28 27
8 10 7 5 8 8 7 5 6 3 3 4 2 4 7 0 8 11 17 16 15 13 12 12 12 26 35 33 40 41 39 37 37 36 36 37 33 31 28 30 30 29 28 27
3 0 6 8 3 5 9 6 6 4 2 4 9 7 9 6 7 6 7 11 10 6 8 8 15 20 24 28 34 37 40 37 38 38 38 38 37 33 30 33 32 31 29 28
2 4 3 4 6 4 2 6 1 3 0 9 2 5 18 6 9 8 11 15 4 5 5 5 7 10 16 24 29 31 33 36 39 39 39 38 39 36 36 38 37 35 33 32
8 8 11 7 9 9 9 8 6 8 4 4 3 8 7 9 9 9 12 10 3 4 5 7 6 10 16 22 26 28 28 31 37 38 38 38 39 39 38 39 41 40 39 37
6 6 2 2 2 9 6 8 3 1 3 2 6 9 9 9 13 10 14 6 6 9 8 8 7 13 19 23 28 30 27 28 34 38 36 38 37 38 39 38 39 40 38 38
5 4 0 1 2 1 6 6 3 1 4 4 6 6 9 5 9 10 9 11 9 8 8 6 6 12 16 20 23 26 25 29 33 37 38 38 38 38 37 37 39 40 39 38
5 4 1 3 6 10 4 5 2 4 5 5 2 8 8 10 9 9 8 7 7 7 8 7 5 10 13 16 20 25 26 31 33 36 37 37 37 36 35 36 38 40 40 40
8 4 7 10 3 3 3 6 8 5 5 3 2 16 4 6 6 4 7 5 2 3 3 4 5 10 14 20 23 27 30 35 37 38 38 36 36 36 35 36 37 38 39 40
8 4 1 7 2 2 5 5 7 3 3 10 7 16 2 4 5 4 5 4 5 5 4 4 4 6 13 19 22 26 30 33 35 37 39 38 39 40 39 38 37 37 38 40
8 5 9 13 5 5 6 7 9 13 4 18 11 32 17 3 5 8 8 7 7 7 7 6 6 7 15 20 24 28 31 34 35 37 37 37 38 39 39 38 38 38 39 43
10 12 8 20 10 3 4 6 14 17 25 12 31 18 31 12 10 12 12 7 7 9 8 9 9 9 13 18 23 27 30 36 38 37 37 38 40 40 39 38 38 37 39 43
5 9 12 21 21 20 19 9 10 21 21 20 29 26 29 16 7 6 12 18 17 10 10 11 12 8 12 20 24 27 30 34 37 37 38 38 41 41 40 38 38 38 41 44
6 7 8 21 21 13 11 25 27 21 18 21 19 32 19 18 15 12 12 11 13 12 13 11 10 10 18 27 29 30 28 29 35 37 38 39 38 38 38 39 38 39 43 47
9 10 4 11 9 15 15 18 22 25 27 25 24 29 27 20 8 11 19 11 14 10 11 12 10 15 25 28 27 27 27 33 34 32 31 35 37 35 35 35 37 36 38 43
19 10 7 4 6 9 10 8 8 11 24 21 24 29 29 23 1 20 16 11 17 13 10 10 18 20 21 21 23 25 27 29 29 30 31 34 36 33 33 32 32 33 34 35
17 18 12 9 11 12 9 8 5 7 14 11 20 25 27 3 6 18 3 1 4 4 5 9 12 15 15 15 18 24 24 24 23 25 28 32 33 34 35 33 32 33 32 29
4 5 15 15 13 6 6 1 4 7 6 3 4 12 5 7 10 3 2 5 2 4 7 7 6 7 8 9 16 18 20 21 22 23 24 26 28 31 31 30 29 30 28 28
4 4 7 6 6 9 8 4 8 6 0 3 3 4 6 7 7 7 4 6 7 6 6 4 2 4 4 9 14 14 15 16 17 19 21 23 25 26 26 27 26 26 28 27
8 8 5 6 3 3 5 6 2 6 3 4 3 4 4 4 5 4 2 2 4 5 4 3 5 8 8 9 10 14 13 15 19 21 23 24 24 24 26 27 27 25 24 25
4 3 3 3 4 5 8 8 5 1 5 5 5 4 3 4 4 3 3 3 3 5 7 6 9 12 12 8 8 12 17 19 21 21 22 22 23 24 24 24 25 26 26 23
4 1 3 4 7 10 11 5 7 7 8 5 2 2 4 4 3 2 2 3 3 6 8 9 10 12 13 14 16 14 16 19 20 21 21 20 19 20 21 20 23 24 25 28
4 5 3 5 5 5 7 3 5 7 6 6 4 0 3 3 1 3 5 4 6 9 13 14 13 15 16 17 16 14 14 15 20 21 21 21 22 21 21 21 16 16 16 18

GFSCGP_925_spd_069.txt.gz
Wind_Speed
4 8 10 14 14 14 6 7 9 3 3 4 11 18 17 17 19 19 19 20 19 20 19 22 24 27 27 28 29 31 30 27 26 26 24 23 23 22 24 30 31 29 29 33
5 13 14 3 1 6 10 13 14 14 3 4 13 20 18 18 23 21 20 21 20 19 19 19 21 24 29 30 32 30 31 29 29 25 24 22 22 22 22 27 35 33 32 31
16 3 8 7 7 10 14 15 13 14 3 12 13 16 16 15 17 15 20 21 21 21 19 16 18 24 25 29 32 34 34 32 30 28 23 21 15 17 20 23 34 38 36 35
12 8 6 10 15 13 16 12 14 12 8 8 2 10 17 17 18 15 15 18 19 17 15 14 14 22 26 28 30 32 31 32 32 32 28 30 27 23 23 24 32 36 36 36
6 9 12 13 10 10 5 3 6 6 9 10 14 8 8 11 10 15 17 16 15 13 12 10 11 18 19 22 25 27 27 29 30 32 32 30 27 23 18 20 23 34 35 36
6 1 5 7 4 6 9 5 4 2 4 9 14 15 14 14 11 8 7 7 6 6 5 5 7 8 14 16 19 22 25 27 28 29 31 29 27 24 21 21 23 33 35 36
13 10 4 3 5 4 10 7 4 5 6 11 5 6 16 9 9 10 11 12 11 2 4 5 6 8 12 16 19 22 24 27 28 29 29 30 27 25 24 23 23 32 36 38
15 12 16 13 16 10 14 15 8 9 8 12 5 10 9 3 6 8 10 13 11 8 6 8 7 8 10 12 15 17 20 23 26 28 27 26 26 25 25 23 23 30 39 40
12 13 4 3 11 14 8 11 14 13 3 5 10 20 19 11 8 14 16 15 14 10 7 8 9 10 8 10 12 14 15 16 20 23 24 25 26 26 24 22 25 28 35 37
8 17 4 4 3 8 8 2 8 8 6 12 14 19 15 10 13 13 10 10 9 7 6 7 6 8 7 8 10 11 13 14 16 19 22 24 26 26 26 23 23 24 32 33
11 7 3 4 11 15 8 10 8 6 9 7 12 13 13 8 7 4 5 4 6 9 9 7 3 3 6 6 8 9 11 13 15 18 21 23 24 25 25 25 25 26 30 31
9 6 13 19 7 7 14 22 22 11 12 7 11 19 0 6 4 4 9 9 3 3 4 3 2 2 4 6 8 10 11 13 15 17 20 23 23 24 25 26 25 27 35 34
4 5 3 5 10 2 8 15 14 16 9 10 12 13 4 6 4 10 7 4 5 4 4 2 2 3 7 8 9 9 11 13 15 17 19 22 25 26 26 26 25 31 33 34
5 4 9 11 6 4 6 17 19 17 10 20 19 27 26 22 19 10 8 8 9 8 7 7 5 7 10 11 11 10 13 15 17 19 22 25 28 28 27 26 28 33 33 33
2 5 13 21 22 23 20 14 12 19 23 22 27 23 32 23 20 20 20 17 19 19 17 15 8 9 12 14 15 17 17 17 20 21 23 27 25 24 25 27 28 30 33 34
8 5 9 18 22 19 20 22 24 24 25 23 27 28 28 24 20 19 21 20 21 18 17 19 18 13 9 16 17 19 19 23 23 25 28 25 25 24 27 28 31 32 32 31
3 1 3 11 12 6 7 22 24 26 26 24 23 28 23 24 21 20 20 14 17 18 19 19 17 13 13 14 19 19 21 22 25 28 28 28 27 27 29 29 30 31 31 30
8 7 3 7 8 10 7 10 9 14 20 21 24 26 27 26 28 29 20 17 20 19 19 15 14 16 13 12 12 13 16 18 22 26 27 27 27 28 28 29 31 30 30 30
18 12 8 11 18 19 24 22 13 14 19 17 16 20 24 26 23 26 17 15 18 16 11 8 10 11 12 11 11 13 14 13 18 20 21 23 25 25 26 27 28 27 27 27
12 16 11 12 11 14 14 14 11 5 9 13 13 15 16 16 11 14 12 9 8 9 9 10 12 13 13 12 17 13 12 11 14 15 17 18 21 24 25 25 24 24 24 23
5 4 13 14 12 7 8 8 5 12 7 14 9 15 12 8 7 15 10 11 10 7 12 14 11 10 11 15 13 10 7 7 9 9 11 14 16 20 21 20 20 20 19 19
9 7 8 8 9 15 3 3 2 2 13 11 6 4 8 11 11 11 14 7 7 7 8 9 11 10 10 11 10 8 5 4 2 5 8 10 12 15 16 18 16 16 18 18
12 14 10 8 5 4 6 6 9 6 8 5 5 6 9 9 9 9 8 9 7 8 11 8 7 7 9 10 8 6 5 2 3 6 7 8 10 11 14 17 18 17 16 16
14 13 13 14 18 21 20 13 6 7 8 5 7 8 5 10 9 10 7 4 4 5 5 8 6 5 8 10 9 6 4 4 7 11 11 10 10 11 12 11 13 14 13 12
9 6 11 12 16 15 15 13 9 8 7 6 9 9 9 8 9 8 9 5 4 4 7 4 3 4 6 7 9 9 8 8 12 14 13 11 10 9 10 11 9 9 9 12
12 18 13 14 17 14 17 10 7 8 10 8 7 6 6 7 8 4 4 4 4 2 2 0 3 4 5 7 8 8 8 8 14 16 14 14 14 12 11 12 11 7 4 5

GFSCGP_925_spd_072.txt.gz
Wind_Speed
3 4 6 9 10 7 3 5 8 5 3 2 7 11 10 10 10 9 10 10 10 12 13 23 29 34 33 31 34 36 36 36 35 33 33 31 32 30 31 31 30 30 29 30
3 6 8 6 3 3 1 6 8 8 6 2 7 12 12 10 13 12 11 11 11 9 10 15 28 32 37 37 36 36 38 37 39 35 34 32 34 33 34 35 36 33 33 33
6 2 9 5 3 3 6 7 7 8 2 6 4 8 10 10 17 12 11 12 10 11 10 8 14 32 36 36 37 37 39 39 39 34 31 27 25 26 28 31 39 41 38 37
7 7 2 4 5 7 6 3 8 5 5 3 2 6 7 10 9 8 11 10 11 9 9 9 9 17 32 39 40 38 37 35 35 36 34 35 32 27 32 35 35 37 40 38
4 6 7 5 5 7 3 4 3 1 3 5 4 4 7 9 7 9 9 10 10 8 8 6 9 18 31 33 34 36 35 34 35 38 38 37 32 32 24 30 32 34 33 40
2 1 2 3 4 3 7 4 2 1 2 6 9 8 4 7 4 2 1 4 5 6 5 6 5 1 11 21 27 30 33 35 37 37 40 37 36 32 29 24 29 32 31 38
6 6 3 1 5 5 2 5 1 2 0 7 3 3 9 7 8 4 5 8 6 3 1 2 5 4 7 12 18 24 29 32 33 35 35 37 32 31 28 27 32 31 28 36
9 6 11 7 8 8 8 7 5 7 4 5 4 9 6 3 2 2 4 8 7 5 5 6 7 9 11 14 16 20 22 23 25 30 31 30 32 29 28 30 32 34 35 34
5 8 4 6 2 8 6 7 7 4 2 3 5 10 12 7 6 5 9 8 9 8 6 6 7 7 9 11 13 16 18 22 23 27 30 31 31 33 32 30 31 32 31 31
2 3 2 3 3 4 3 1 2 2 3 5 7 7 11 10 14 9 6 6 7 7 9 8 3 2 3 5 9 12 15 17 21 23 26 29 31 31 31 30 29 29 30 30
4 4 0 4 6 7 2 4 3 2 5 5 5 7 5 6 5 6 7 6 5 5 4 5 4 8 4 1 5 9 12 15 17 20 24 27 29 29 29 31 31 31 31 31
1 2 5 6 2 3 3 6 10 4 4 3 5 16 2 1 3 4 5 4 3 5 5 3 2 4 4 5 7 10 12 15 17 18 22 25 26 26 29 31 32 30 30 31
2 1 3 7 3 2 4 4 6 8 2 13 7 13 7 5 4 3 1 4 4 6 6 3 3 6 9 11 13 14 14 16 16 19 21 24 26 27 30 31 32 30 33 32
5 2 5 5 4 5 3 9 5 5 5 14 14 24 24 16 11 14 11 8 9 8 7 6 6 7 13 14 16 17 18 19 20 22 24 27 28 30 31 31 31 31 32 33
3 4 4 14 13 12 7 9 12 12 13 15 23 18 30 19 13 15 14 9 9 9 9 9 8 6 11 15 17 18 20 21 22 24 27 32 30 30 29 29 30 31 33 34
6 2 2 5 7 11 17 16 14 15 17 14 22 20 23 20 16 18 15 12 10 9 10 9 8 7 7 15 19 21 23 24 25 28 31 31 28 27 28 28 29 29 30 31
3 3 2 5 5 3 5 16 16 17 19 18 20 25 19 20 20 18 13 14 20 19 15 9 8 9 10 7 10 16 19 20 24 27 29 29 27 26 26 27 28 29 30 29
5 3 1 4 5 7 8 8 6 4 7 9 17 19 19 14 17 16 10 12 12 12 9 8 7 13 14 15 12 11 14 18 20 22 26 26 25 26 26 27 29 30 29 30
12 6 3 3 4 10 15 17 6 5 14 10 5 10 13 13 10 11 9 8 5 6 6 8 13 14 15 15 15 17 17 16 17 18 19 20 22 24 25 26 27 27 26 25
13 13 7 1 4 6 6 3 6 4 5 5 1 5 8 9 7 6 10 13 9 10 11 16 19 18 16 15 16 17 15 11 11 13 15 15 16 19 22 23 23 23 23 23
5 10 17 14 11 6 10 4 1 5 10 4 3 4 7 4 5 11 13 10 12 12 12 15 19 15 12 16 14 9 9 8 10 9 8 9 10 12 15 16 16 16 16 16
8 7 5 7 8 12 7 3 7 5 4 4 5 8 8 8 10 11 13 8 8 11 14 17 15 14 13 14 12 9 6 5 4 3 2 3 5 7 9 10 11 11 12 13
6 7 4 7 5 3 3 3 4 3 5 8 6 8 8 8 8 10 12 8 7 10 13 13 11 11 9 11 9 5 4 4 2 4 5 5 4 5 9 11 12 11 11 11
4 4 6 4 12 17 12 5 4 5 8 7 7 7 5 9 9 10 11 8 5 5 7 8 7 5 6 7 6 5 3 0 4 11 10 10 11 10 7 8 10 13 13 11
4 3 3 6 12 6 7 7 8 8 6 7 8 6 9 8 13 7 8 8 6 10 10 9 6 5 5 4 5 5 3 3 8 13 14 13 13 13 12 10 9 11 9 9
6 11 6 11 10 7 10 11 5 7 9 10 7 7 6 7 10 4 8 8 8 10 9 9 7 4 3 2 3 4 3 4 10 12 11 14 16 15 15 16 13 9 10 7

GFSCGP_925_spd_078.txt.gz
Wind_Speed
2 4 6 10 8 4 5 4 3 2 3 4 7 7 11 11 8 10 11 10 11 11 21 24 27 33 39 41 41 44 44 46 45 42 40 40 41 39 40 42 40 39 40 43
5 4 8 2 4 4 3 2 4 2 1 3 4 10 10 8 10 9 9 10 13 8 8 18 28 24 30 41 44 44 45 45 48 43 43 36 35 38 40 41 40 39 40 42
6 4 6 6 5 6 5 5 3 4 1 1 3 8 6 5 4 6 8 10 7 11 11 9 13 21 26 32 42 45 47 47 47 46 36 34 29 32 35 41 42 43 43 41
4 3 5 5 5 5 5 5 3 2 3 4 2 5 5 7 10 7 11 6 9 9 7 7 10 14 19 28 35 42 43 44 45 44 39 40 36 31 34 32 39 42 40 42
7 6 5 4 6 5 6 3 2 2 3 2 3 1 7 4 8 10 9 6 7 7 1 5 5 7 12 16 22 32 38 39 41 43 44 43 34 30 28 30 31 37 39 37
5 1 5 7 3 2 6 6 7 5 3 3 7 6 5 4 4 4 5 6 7 8 8 8 9 11 13 12 12 17 27 34 36 39 42 42 37 33 30 31 33 34 36 40
1 1 1 4 5 4 4 6 2 3 2 6 2 2 7 7 6 2 6 6 8 7 7 9 10 15 16 15 12 8 14 23 28 32 36 40 42 40 39 38 38 36 36 38
7 3 7 5 7 9 7 8 6 7 4 4 1 5 5 1 4 5 6 5 6 8 7 7 7 9 11 12 10 8 8 14 20 25 30 33 37 39 40 39 39 39 39 40
6 5 1 1 4 8 5 4 5 6 3 3 4 5 10 6 4 6 7 7 7 7 6 8 11 11 10 6 6 8 9 10 12 17 21 26 29 33 37 38 38 38 38 39
7 3 1 1 3 3 5 7 3 3 2 4 4 4 6 3 3 8 9 8 8 8 9 7 8 12 14 11 9 8 8 10 10 13 18 22 26 30 33 35 37 38 38 37
6 4 2 4 5 8 3 3 2 5 5 5 1 5 7 5 9 7 5 6 7 7 6 6 10 13 13 14 11 10 8 6 9 12 15 20 23 26 29 33 36 36 36 36
4 5 4 5 2 2 3 6 6 5 4 3 3 7 5 8 9 6 6 5 5 6 8 7 9 11 14 15 16 15 14 13 13 14 16 18 20 22 26 30 33 33 34 35
6 1 3 4 3 1 2 1 3 4 3 6 4 5 3 8 6 5 4 4 5 6 8 8 9 13 18 19 22 20 19 20 19 18 20 22 23 24 26 29 30 32 33 34
5 3 5 7 4 3 5 3 3 3 3 4 13 10 11 11 10 14 13 12 10 8 7 6 7 13 23 26 23 23 22 22 23 23 24 26 27 28 29 28 28 29 30 32
3 4 2 3 5 4 5 6 5 5 4 4 1 9 5 7 10 10 5 7 7 8 9 8 8 9 18 23 27 27 24 22 21 21 24 28 29 30 30 30 29 28 29 31
4 2 2 2 4 5 5 10 8 8 5 11 7 20 12 10 5 6 6 7 6 6 6 8 9 13 16 20 23 26 27 28 27 27 26 27 29 30 31 31 30 27 27 28
4 5 3 2 4 4 7 10 13 8 6 9 11 17 4 3 3 3 4 3 3 5 6 7 7 12 18 22 24 26 29 30 30 29 30 27 25 27 29 29 27 27 26 25
7 6 3 3 2 3 6 2 3 12 9 10 7 2 2 4 4 7 6 4 6 4 4 5 10 19 21 22 24 26 27 28 29 31 29 26 25 24 24 23 22 22 23 24
1 4 2 5 4 6 8 6 7 8 8 7 6 4 1 5 5 2 7 7 3 4 6 8 12 16 22 21 21 24 29 26 27 27 29 31 28 26 23 22 21 20 20 20
1 3 4 3 5 8 6 2 3 4 4 7 5 5 2 2 4 4 7 4 3 9 10 13 15 18 19 21 20 22 23 27 25 28 30 28 29 26 22 19 17 16 17 17
5 4 10 4 3 8 10 6 3 5 7 4 6 4 4 4 5 8 6 4 5 8 11 12 15 17 18 19 21 23 21 22 26 27 27 26 24 23 21 17 14 13 11 14
7 7 5 4 6 11 7 5 8 4 1 5 4 4 6 7 9 9 11 3 3 10 14 15 17 18 18 17 18 20 23 22 23 23 24 25 23 20 17 13 13 12 9 8
2 6 6 9 7 5 4 4 3 5 5 4 2 5 5 7 7 7 8 7 4 8 12 14 15 20 19 16 16 20 22 22 23 23 21 21 21 19 14 11 11 10 7 6
4 4 3 3 6 6 2 2 1 4 3 3 5 7 5 7 8 8 7 8 6 8 11 12 14 17 21 18 17 17 19 20 21 19 20 17 16 18 14 11 8 6 9 6
5 5 5 3 5 2 3 3 5 5 7 6 7 7 9 7 10 6 5 4 11 11 9 10 12 15 20 19 19 18 19 18 20 18 14 13 12 12 11 10 5 4 4 6
5 6 5 5 4 4 5 6 6 7 7 7 7 7 5 7 8 4 5 9 10 10 10 12 13 15 18 19 21 19 17 17 18 17 16 14 12 10 9 5 4 6 3 4

GFSCGP_925_spd_081.txt.gz
Wind_Speed
2 4 6 9 6 3 5 4 4 2 1 3 5 6 12 10 7 10 10 10 10 11 19 23 26 27 34 37 38 41 41 43 43 40 38 36 38 38 37 35 35 35 39 40
5 4 7 5 5 3 3 3 2 2 1 3 3 9 10 9 10 8 10 11 10 8 10 13 17 20 24 33 38 40 42 44 45 39 41 34 34 36 41 40 36 36 35 39
6 2 9 6 5 6 3 4 3 5 1 3 4 8 7 5 5 7 7 6 7 10 11 9 9 10 16 24 30 37 43 45 45 44 34 30 28 28 31 37 34 38 38 38
4 3 6 4 5 6 5 7 5 4 3 3 2 5 6 5 11 6 9 6 8 7 4 5 8 11 9 11 16 25 32 39 42 41 36 38 34 30 35 33 41 39 37 38
7 8 6 4 6 6 6 4 4 3 4 3 3 1 7 3 6 6 8 7 7 8 7 9 10 13 14 14 9 9 16 27 34 36 37 39 32 30 29 32 32 36 39 39
4 1 4 7 3 3 9 6 7 4 3 2 5 5 5 3 3 3 4 7 8 9 9 9 15 15 17 16 16 12 6 11 21 28 34 38 35 31 29 31 31 33 34 36
1 1 0 3 6 4 4 6 2 3 2 5 1 3 8 5 1 2 4 6 7 8 9 9 10 22 24 21 18 16 11 4 9 19 26 32 36 36 37 36 34 34 33 33
7 4 7 5 7 8 7 7 6 7 4 3 3 5 5 2 3 4 4 4 7 9 7 8 11 17 20 20 19 17 14 11 7 9 17 23 28 31 34 35 35 35 36 36
6 5 1 2 4 8 6 4 5 7 3 3 3 5 6 3 6 5 7 9 9 8 8 9 12 13 16 18 19 19 16 12 9 7 11 15 19 24 28 30 32 34 35 34
8 3 1 2 3 3 4 8 3 2 2 3 3 3 5 6 7 5 9 8 7 7 9 9 12 16 18 20 19 19 17 15 12 10 11 13 14 18 22 26 29 31 33 32
5 4 0 4 6 9 3 3 3 5 5 5 1 5 6 7 8 8 8 6 7 8 7 7 12 14 17 19 20 21 20 20 19 16 14 15 13 15 18 22 25 27 29 31
6 5 4 6 2 3 3 7 6 5 5 2 3 5 2 9 8 8 5 3 3 5 7 7 12 16 20 21 23 23 22 20 19 19 19 19 19 20 21 22 24 24 27 29
7 3 3 2 2 2 4 3 4 5 3 7 6 5 2 5 6 4 3 4 5 6 8 8 14 14 17 20 22 23 23 24 24 23 22 22 23 26 27 27 27 27 27 28
5 3 5 10 2 4 5 3 2 4 4 4 7 5 7 6 6 4 5 5 6 5 5 5 7 12 18 21 23 25 26 26 26 26 26 25 25 26 27 29 29 29 28 29
3 4 4 5 4 3 3 5 7 6 5 8 2 5 4 7 7 2 3 5 6 7 8 8 8 12 22 27 31 32 31 31 31 31 31 30 28 27 27 29 29 29 29 29
4 4 3 1 3 2 3 6 7 5 4 5 4 15 9 2 6 4 5 6 5 6 7 7 7 12 17 21 25 28 29 31 31 29 27 27 28 28 27 27 28 28 28 28
5 6 3 4 1 4 7 7 9 5 5 6 9 8 5 3 5 5 5 3 1 3 5 6 7 12 18 21 23 26 29 30 30 30 28 26 27 29 29 28 27 28 28 27
6 5 3 3 1 4 2 2 2 8 9 8 9 3 5 5 4 5 4 4 5 5 4 5 9 14 16 20 22 25 27 29 30 30 29 30 30 29 30 29 26 27 27 25
2 5 2 4 3 6 5 6 7 8 7 10 8 3 4 4 3 4 7 5 1 0 4 6 7 11 15 17 19 21 25 25 26 27 30 31 30 31 28 27 27 24 25 24
3 5 3 2 5 9 4 3 4 5 5 6 8 7 5 4 0 3 6 1 2 5 5 8 9 11 14 16 17 19 22 23 24 27 29 28 28 28 27 27 24 20 18 23
4 2 6 4 3 8 7 6 1 6 7 2 6 6 4 2 4 4 1 4 6 5 5 6 9 12 13 15 16 18 20 21 22 25 27 28 26 26 25 26 21 20 18 19
8 7 4 3 2 9 7 6 6 4 2 5 4 3 2 5 7 6 3 6 6 5 6 8 11 14 13 13 15 18 21 21 23 25 26 27 26 25 24 23 21 19 17 17
2 6 6 8 6 0 6 0 2 3 5 3 4 2 0 5 6 8 6 5 9 8 8 11 13 17 17 13 14 18 21 23 25 27 29 28 28 23 20 21 20 18 16 18
4 3 3 4 5 5 5 3 3 3 6 4 2 1 2 5 8 8 8 6 3 7 9 10 11 16 23 20 19 19 21 22 23 25 24 26 21 20 20 18 16 15 14 13
5 9 6 3 2 3 2 4 5 2 4 4 3 3 7 7 11 7 6 6 13 11 9 10 13 17 24 24 23 21 22 22 23 24 23 22 19 22 21 17 16 11 9 9
6 6 6 5 5 4 4 7 5 5 4 6 5 5 5 7 8 6 6 11 13 15 12 13 19 23 27 25 25 22 21 21 21 24 22 21 21 21 18 15 12 4 6 7

GFSCGP_925_spd_084.txt.gz
Wind_Speed
2 4 7 8 5 3 6 4 4 2 1 3 4 6 12 9 6 10 9 9 9 10 13 15 19 22 24 30 34 34 34 37 37 36 33 32 33 31 34 33 32 31 31 33
4 5 7 7 6 5 4 4 3 1 2 2 4 9 10 8 9 6 7 9 9 8 8 12 12 10 16 23 28 33 36 36 38 38 40 31 31 33 35 35 35 35 34 34
6 2 9 6 4 6 2 5 4 3 2 4 5 9 6 5 3 6 5 4 4 7 8 8 10 9 5 9 18 23 30 35 37 38 31 28 26 27 29 35 31 35 35 36
3 3 7 5 4 5 6 7 4 6 3 2 3 5 6 5 9 7 8 8 7 8 7 6 11 15 16 14 4 9 18 25 31 33 32 35 30 27 33 31 31 31 35 36
5 8 6 4 5 7 4 7 5 3 4 4 3 2 7 5 4 5 8 8 8 8 6 8 11 14 16 17 15 9 2 11 19 26 31 34 30 27 27 28 31 32 32 35
3 1 3 6 4 2 9 7 7 5 3 1 5 5 5 2 3 2 5 7 7 7 8 9 17 23 24 22 21 18 13 6 3 14 21 30 32 30 26 26 26 30 31 32
2 1 1 3 7 4 4 6 2 2 2 5 1 3 8 3 1 2 5 5 6 7 8 9 11 21 26 27 26 23 19 15 9 2 11 19 26 27 28 29 28 29 30 31
7 4 8 4 6 9 6 7 5 7 4 2 3 5 5 1 6 5 5 3 5 8 7 8 12 18 23 26 27 26 25 22 16 9 4 8 13 19 23 24 25 27 28 30
5 3 1 1 3 7 6 5 5 7 3 3 4 6 3 5 6 6 5 6 7 7 7 7 13 20 24 26 26 25 23 21 20 17 13 10 9 11 15 18 21 23 23 25
7 4 2 1 3 4 4 8 4 3 3 3 3 4 4 6 8 4 5 7 6 6 9 9 16 22 24 25 26 26 25 24 21 18 16 15 14 12 13 15 16 20 21 21
5 4 1 3 6 8 3 3 3 5 4 5 2 6 5 10 9 8 6 5 6 7 7 7 14 20 22 25 27 27 28 28 27 26 23 20 17 16 16 18 18 18 19 19
6 5 4 7 2 2 1 6 6 5 5 1 3 5 4 10 9 7 6 5 5 5 6 6 13 19 23 24 25 25 26 27 27 26 25 23 21 20 20 20 21 20 21 20
7 3 3 3 3 2 4 4 4 5 3 7 6 5 3 6 7 5 5 4 3 4 7 6 12 15 17 19 21 22 23 24 25 24 24 24 25 26 27 27 26 25 24 24
4 3 8 11 4 6 6 5 5 6 4 5 6 7 6 5 5 5 4 4 5 4 4 3 4 6 9 11 15 17 19 23 25 24 22 21 21 22 23 24 26 26 26 26
3 5 4 4 5 3 3 7 9 10 13 10 10 11 18 14 7 8 7 5 5 5 4 4 4 6 10 11 17 23 25 25 26 25 24 24 24 23 22 23 23 23 23 23
3 3 3 3 0 5 1 5 7 2 2 1 3 4 6 5 8 6 7 7 6 5 3 3 5 11 17 21 23 24 26 27 27 27 27 27 28 27 27 28 28 27 26 25
2 4 2 4 2 5 5 12 8 5 4 6 7 6 7 3 4 4 6 5 5 5 4 5 6 9 13 16 18 20 22 23 24 25 26 27 29 30 29 30 30 30 30 29
5 4 2 2 2 3 4 4 3 7 4 8 3 5 7 6 5 5 4 5 4 2 3 4 6 10 13 15 16 19 21 23 25 26 27 28 30 30 30 30 28 28 28 27
4 4 3 4 3 5 3 5 7 7 8 12 8 9 5 5 4 2 6 3 4 4 1 3 4 7 9 12 14 17 20 21 22 24 26 28 29 30 32 32 32 30 28 28
3 6 2 4 5 7 4 2 5 5 5 4 7 9 9 7 3 4 4 5 2 2 2 3 5 6 9 10 12 14 17 18 20 22 25 25 25 27 29 29 30 30 25 26
4 2 6 2 3 7 6 5 2 6 7 1 5 7 7 4 3 1 5 3 3 4 4 6 7 10 11 11 12 15 17 19 20 25 26 25 26 26 25 27 26 26 25 26
8 7 4 3 2 9 8 3 9 4 2 4 5 5 6 5 4 3 4 5 7 8 8 10 12 14 12 11 13 15 18 19 23 25 28 30 29 28 27 24 27 25 24 24
4 5 6 8 6 1 6 3 3 3 5 4 6 5 5 4 3 2 4 6 9 11 12 11 13 14 11 10 12 16 19 22 24 25 27 27 26 24 18 21 25 26 24 21
3 3 3 3 3 4 6 4 4 5 6 6 5 4 3 2 4 5 5 4 8 11 13 11 11 14 16 16 16 18 21 23 23 25 25 26 25 24 20 22 23 23 23 21
4 8 6 2 2 5 1 4 7 7 7 6 4 3 1 2 5 5 4 1 2 5 7 8 11 15 22 20 18 20 22 23 25 26 27 27 25 22 23 23 21 22 19 16
5 6 5 5 9 5 7 9 6 7 5 5 5 3 1 2 3 4 2 7 8 12 14 15 18 20 21 23 25 24 22 23 25 28 28 27 27 25 20 22 23 12 9 9

GFSCGP_925_spd_087.txt.gz
Wind_Speed
2 5 7 9 5 4 6 5 4 1 1 2 3 5 11 7 5 8 8 7 7 8 9 11 9 12 16 21 30 32 32 34 32 29 27 27 30 30 30 29 30 30 30 29
5 5 6 8 7 6 4 5 3 2 3 2 3 8 10 6 4 3 6 7 6 7 8 11 7 4 6 14 20 26 31 32 33 33 28 24 24 29 30 32 31 33 33 32
6 2 10 7 4 7 2 6 5 3 1 3 4 7 6 3 3 6 6 3 5 5 6 7 14 16 12 4 8 15 21 27 31 31 27 23 20 23 25 29 29 31 31 33
3 2 8 7 5 5 5 5 6 6 4 3 3 4 5 3 3 6 7 7 6 6 5 6 12 18 19 17 10 1 10 16 22 25 28 28 24 23 25 23 23 27 30 32
5 7 8 5 5 6 4 6 6 4 4 4 3 2 6 3 4 5 7 6 7 6 5 7 12 18 21 21 21 16 10 1 9 16 22 27 26 23 25 24 25 26 28 28
3 1 3 6 4 3 10 7 7 4 3 1 3 4 6 3 4 3 2 4 5 6 6 9 17 24 27 27 27 23 20 17 8 3 11 19 21 23 22 21 21 23 25 27
2 1 1 4 8 5 3 6 2 2 2 5 2 2 7 1 4 5 6 4 4 4 6 7 13 20 26 28 27 27 25 24 18 12 4 3 10 13 16 17 19 20 22 24
7 4 8 3 6 9 7 6 5 7 4 2 1 6 4 1 2 5 2 2 5 7 6 7 13 19 25 27 28 26 26 26 22 19 14 8 4 4 7 9 12 14 17 20
6 4 1 2 2 6 6 5 5 7 3 3 4 5 4 4 5 4 4 6 7 6 6 7 16 23 26 28 29 28 28 28 26 22 19 16 13 11 10 9 9 11 12 15
7 4 1 1 2 2 5 8 4 2 4 3 3 4 5 8 10 6 5 7 6 6 7 7 15 19 23 24 25 26 27 27 25 24 23 20 18 15 13 12 12 12 13 14
5 4 0 4 6 8 3 3 4 5 4 6 3 6 6 16 13 10 8 6 6 6 6 5 10 18 21 23 25 26 27 27 26 24 22 20 19 17 16 15 15 15 15 15
5 5 4 7 2 1 0 6 6 5 5 1 3 5 1 13 10 9 8 7 6 6 5 6 10 15 20 21 22 23 24 25 25 24 24 24 23 24 24 23 21 19 19 18
8 3 3 4 3 2 5 5 4 5 4 7 6 5 4 8 7 6 8 7 6 6 6 5 9 13 15 17 19 20 20 21 20 20 20 20 20 21 22 23 24 25 25 23
4 4 9 13 4 7 6 6 5 5 4 5 7 6 4 7 9 7 6 6 6 6 5 4 6 9 9 11 13 14 15 16 17 17 17 18 20 20 21 22 23 24 24 25
4 6 4 3 3 4 5 9 11 11 15 9 13 11 21 17 11 10 7 6 6 6 5 4 5 6 6 7 9 10 11 13 13 14 15 16 17 17 18 20 21 22 23 24
2 3 3 4 2 4 2 5 15 19 6 1 6 5 5 10 6 7 8 8 7 6 6 5 5 6 5 4 6 9 12 14 15 16 17 18 20 21 22 23 24 24 24 25
2 5 3 4 5 4 5 12 11 7 4 12 10 7 6 6 11 13 11 11 10 7 6 6 6 5 4 6 8 10 12 13 15 17 19 21 23 25 26 27 29 29 28 28
3 3 2 2 5 9 5 2 4 7 7 6 5 7 13 12 6 6 8 10 9 8 7 5 4 2 3 6 8 10 12 15 18 20 23 25 27 28 30 31 31 32 32 30
5 4 3 4 2 5 2 5 7 9 10 10 8 7 5 6 5 1 4 4 7 6 6 5 3 1 3 6 9 12 14 16 18 20 23 26 27 29 31 33 33 33 33 33
4 3 4 2 3 7 4 0 3 3 4 6 12 12 10 7 5 4 8 6 7 6 4 4 0 2 5 7 10 12 15 17 19 20 23 25 25 26 28 26 28 28 27 30
5 3 7 4 3 7 6 5 4 6 6 2 5 9 9 5 3 5 9 6 5 7 7 4 3 4 5 7 9 12 14 15 17 20 22 24 26 25 25 27 27 26 27 29
6 7 4 3 3 8 8 3 11 5 2 4 5 5 7 8 7 7 6 5 4 6 6 2 5 5 5 7 8 10 13 16 19 21 22 22 23 24 23 22 23 22 26 26
4 5 6 7 6 2 6 1 4 4 6 5 7 7 7 8 5 5 3 1 1 2 4 4 4 5 5 5 9 13 16 18 21 22 23 23 23 23 21 21 22 22 22 21
3 2 3 3 3 3 5 2 4 5 6 8 6 8 7 7 7 6 4 2 1 3 5 4 4 5 8 11 11 13 17 20 22 23 24 25 25 25 24 21 21 21 20 22
4 8 5 2 1 2 3 4 7 7 7 8 7 6 7 8 7 6 5 6 7 6 3 4 5 8 12 12 12 15 17 20 21 22 24 25 25 25 27 24 18 19 19 13
5 6 5 5 8 5 8 9 8 9 8 8 8 6 5 5 6 7 6 9 6 3 4 5 6 10 14 16 17 17 19 20 22 25 26 27 27 27 26 22 21 18 17 14

GFSCGP_925_spd_090.txt.gz
Wind_Speed
2 6 13 15 8 3 9 5 6 2 2 3 7 11 12 7 7 9 8 6 3 6 4 6 5 6 11 16 22 24 24 24 22 24 24 24 26 27 29 29 28 26 20 21
5 13 7 9 9 8 6 9 4 3 2 3 1 10 11 6 3 4 8 4 2 2 4 6 5 3 2 10 16 20 23 21 22 20 23 22 20 23 26 29 30 29 25 22
9 2 12 8 6 10 3 8 5 2 3 2 3 6 5 2 2 4 4 2 3 4 5 7 8 9 7 3 6 12 16 18 20 20 16 18 18 17 18 24 27 29 29 30
3 3 10 10 7 6 6 5 7 9 6 4 2 3 3 1 4 5 4 5 5 6 7 8 9 11 11 9 6 4 10 11 14 16 17 17 17 18 18 19 20 23 26 26
6 9 10 9 7 7 3 7 6 4 4 1 3 4 2 2 4 4 6 6 8 8 9 10 12 12 12 13 13 12 9 6 8 11 15 14 15 14 14 13 17 20 22 23
3 2 3 3 3 1 13 10 6 3 2 4 6 5 5 5 5 7 6 8 9 10 10 11 11 13 16 16 16 16 16 15 9 6 7 9 9 9 10 11 12 13 14 17
3 3 3 4 9 5 4 14 3 3 4 5 2 4 6 5 4 12 13 11 9 8 9 9 11 13 15 17 17 18 19 20 16 13 10 6 3 4 5 7 8 10 12 14
10 6 10 7 6 9 12 9 6 7 5 4 3 7 3 3 2 10 10 10 9 9 8 9 12 13 14 16 17 18 20 20 18 17 16 13 9 6 2 2 5 6 8 10
9 5 2 2 3 7 6 8 4 7 2 2 5 4 5 4 9 10 11 12 11 9 9 10 12 13 14 15 16 17 18 20 20 18 17 16 14 12 9 8 7 7 8 10
6 4 1 1 2 2 5 11 3 1 6 5 5 5 6 13 18 15 14 14 12 9 9 9 11 12 12 13 14 16 19 19 18 18 17 17 15 14 12 11 11 11 11 12
6 3 3 3 8 13 5 6 2 3 3 5 4 6 6 21 23 21 17 14 13 11 9 9 11 11 12 13 12 14 16 17 18 17 16 16 16 15 14 14 14 15 14 15
4 5 5 13 2 3 2 7 11 6 7 2 0 4 2 14 18 18 15 12 11 10 9 10 11 12 12 11 10 12 13 16 16 16 16 16 16 17 17 17 18 19 19 19
8 5 4 3 2 1 7 6 11 3 3 7 6 6 4 14 17 15 16 12 11 10 10 9 10 10 9 9 9 11 14 14 16 16 16 16 17 18 18 18 19 19 20 21
6 4 13 14 14 8 9 11 9 12 6 8 10 8 8 16 18 16 13 14 12 11 11 9 8 8 8 7 9 10 12 12 14 14 14 15 16 16 16 17 18 19 21 21
4 8 8 10 2 7 8 15 17 17 24 13 21 13 19 23 22 20 14 14 12 12 11 9 8 8 7 6 6 8 7 8 10 9 10 11 12 13 15 17 19 20 21 22
1 3 5 4 1 5 6 13 20 25 23 19 12 14 12 20 15 15 17 16 16 14 13 11 10 9 7 6 4 4 5 6 7 7 7 9 12 14 16 18 20 21 22 22
6 6 4 7 6 2 7 20 19 18 21 23 18 16 11 17 17 18 18 17 16 15 13 12 11 11 7 6 5 4 4 5 5 6 9 12 15 16 19 21 22 22 22 23
5 5 1 4 6 8 5 3 7 18 9 16 11 9 20 22 22 14 14 16 14 12 12 11 11 10 9 6 5 4 3 5 7 9 12 16 18 19 21 22 23 22 21 22
3 4 3 5 9 5 5 6 8 12 15 15 14 10 9 8 12 4 9 10 10 10 12 12 12 10 9 5 3 2 3 6 8 11 14 18 21 22 23 24 22 22 23 23
3 3 4 3 7 11 1 3 3 4 11 12 14 14 13 15 12 8 12 9 11 15 15 14 12 10 6 2 1 3 6 9 12 15 19 21 23 25 25 24 24 25 25 26
4 4 8 6 3 5 4 4 3 8 4 3 10 14 16 11 1 11 13 9 15 15 15 12 9 7 3 1 3 5 7 9 12 16 19 21 21 23 24 25 25 26 26 27
9 8 4 3 5 9 7 5 7 2 2 3 6 8 12 10 10 16 14 11 13 13 13 9 7 5 3 2 3 4 7 11 15 18 21 22 23 23 24 25 27 24 22 21
5 5 7 8 6 1 9 2 1 2 5 5 8 10 14 14 14 14 11 11 12 14 13 8 8 8 4 1 4 8 10 13 17 19 22 23 24 24 23 23 24 19 18 18
4 2 3 4 5 4 10 2 3 4 4 8 9 15 14 12 11 9 8 7 9 11 10 8 7 4 2 4 7 8 11 15 18 21 23 24 24 25 24 21 18 18 18 17
2 8 4 3 1 2 5 6 6 5 6 10 9 7 12 13 8 8 6 7 10 11 9 7 5 4 3 4 7 10 13 16 18 20 21 21 19 20 23 21 20 20 21 21
6 6 7 7 9 4 6 11 9 10 12 12 13 8 5 7 11 8 7 11 12 11 8 7 4 4 6 9 11 12 15 16 17 20 17 17 21 20 19 20 25 18 21 22

GFSCGP_925_spd_093.txt.gz
Wind_Speed
10 10 16 18 15 13 16 14 10 8 3 6 12 12 12 9 6 7 8 7 5 4 2 3 6 7 11 15 19 21 22 21 19 20 19 21 22 22 23 24 24 23 20 15
7 16 14 10 7 7 8 13 11 4 4 4 4 11 11 10 7 4 4 6 5 3 3 1 1 3 6 11 14 18 21 20 20 22 21 17 17 20 24 25 25 25 24 22
14 10 11 7 8 10 10 14 11 4 6 1 2 8 11 5 5 4 3 4 3 3 3 3 4 3 0 2 8 13 16 18 18 16 17 18 15 13 13 18 21 23 22 23
9 5 11 12 15 13 9 1 10 11 9 5 3 4 7 9 7 4 4 6 5 5 5 5 6 6 5 4 1 7 11 14 16 16 16 15 14 13 13 14 16 18 18 18
7 9 14 13 14 10 5 7 7 6 5 2 7 5 5 7 8 8 7 6 6 5 6 7 8 8 7 7 8 7 8 9 10 12 13 11 14 12 10 9 8 11 15 16
4 3 6 6 6 5 15 12 10 5 2 6 11 9 8 8 12 10 8 9 8 9 8 9 9 10 10 10 11 12 12 10 8 8 9 8 6 7 8 7 8 6 8 9
5 5 2 6 9 8 9 15 4 5 5 7 4 4 12 4 4 11 13 12 11 10 9 8 10 12 12 12 12 14 14 16 13 12 10 7 5 3 2 4 4 6 7 9
12 8 13 10 7 10 16 15 6 7 5 4 2 8 4 8 3 11 13 13 11 10 8 8 10 11 12 13 14 15 16 17 16 16 14 12 9 7 6 5 4 5 5 6
14 8 3 5 1 12 7 9 3 6 1 2 6 6 4 7 9 13 14 13 12 11 9 8 10 11 12 13 13 14 15 17 16 15 15 14 13 11 10 9 8 7 7 8
5 5 3 2 2 0 6 11 4 3 5 5 6 6 7 13 17 16 17 16 14 12 10 9 10 10 11 11 13 14 14 16 14 15 15 14 14 13 12 12 12 11 11 12
7 2 3 5 10 14 5 6 6 4 3 4 4 6 2 19 21 21 18 17 16 14 12 10 11 10 11 11 12 12 13 14 14 14 14 14 14 13 13 13 13 13 13 14
2 4 5 8 4 3 6 11 12 6 5 4 2 4 4 5 17 19 18 15 14 13 12 11 13 12 11 11 11 12 12 14 12 12 14 14 13 13 14 14 14 14 15 16
9 3 4 2 2 2 7 12 16 16 3 6 6 7 3 5 15 16 17 15 14 14 13 12 15 14 12 11 11 11 12 13 12 12 13 13 12 12 13 14 14 15 17 17
12 4 13 14 17 7 8 15 14 17 8 12 11 12 4 12 17 17 17 16 17 16 15 13 13 14 12 11 12 11 11 10 10 12 12 12 12 12 13 13 14 15 16 17
8 8 12 20 10 6 12 15 17 19 25 16 23 17 12 18 20 22 20 18 17 15 15 14 12 14 13 12 11 10 10 9 10 10 11 11 10 10 11 13 14 16 16 17
4 3 9 2 6 3 2 9 19 22 25 22 23 16 6 15 16 16 18 18 18 17 16 13 12 14 13 12 11 10 8 9 9 8 7 6 8 11 13 14 16 18 18 19
8 6 3 4 5 4 5 21 17 20 25 21 24 26 7 14 19 21 20 20 18 17 16 13 13 15 14 12 11 9 8 7 5 3 4 8 11 13 16 18 20 20 21 22
4 5 2 4 4 8 7 2 22 22 16 22 22 14 13 17 20 20 19 19 17 17 15 13 16 16 14 13 12 10 8 5 3 2 6 10 12 15 18 19 20 21 21 23
5 7 3 6 9 10 14 4 7 11 20 22 22 16 9 11 9 11 13 13 14 14 17 18 19 18 16 14 12 10 7 4 2 3 7 11 15 18 20 21 22 23 25 28
2 4 8 5 7 12 3 8 4 6 17 13 16 13 10 14 12 10 14 13 14 21 22 21 20 20 17 14 13 10 7 4 1 5 9 12 15 17 20 22 24 25 27 28
5 4 15 8 7 7 4 8 5 9 6 3 12 15 18 16 8 9 16 14 23 23 23 24 22 19 17 14 10 8 4 2 3 8 11 14 16 19 20 22 24 25 26 24
8 7 5 4 8 15 9 4 8 0 2 0 1 6 10 6 10 14 17 17 19 22 23 23 23 18 14 11 9 6 3 2 6 10 13 17 19 21 22 23 24 24 23 20
5 3 5 6 3 2 13 3 3 2 2 3 4 3 10 11 12 14 15 14 15 20 20 21 21 18 12 8 5 3 2 5 9 12 16 18 20 22 22 24 24 23 20 19
2 1 2 2 3 2 3 2 3 1 2 2 3 9 12 14 13 12 12 11 12 17 19 20 18 15 11 6 3 3 5 8 11 14 17 19 21 22 22 23 24 20 18 19
2 8 4 4 1 2 4 7 3 2 3 4 6 6 13 15 12 13 11 10 14 16 17 17 16 14 10 6 4 5 8 10 12 15 17 18 18 20 25 23 21 21 23 20
5 5 6 5 6 3 3 7 7 7 7 7 8 7 5 10 13 12 10 15 17 18 18 16 13 12 10 8 6 7 9 10 12 14 14 15 19 20 21 22 26 21 21 21

GFSCGP_925_spd_096.txt.gz
Wind_Speed
8 5 11 10 8 9 8 8 5 5 2 4 7 5 8 10 7 6 6 9 8 9 8 7 3 6 11 13 15 19 21 22 22 18 20 20 20 19 18 18 16 16 17 15
4 10 10 9 11 8 2 8 6 5 5 1 6 9 7 7 6 7 5 5 7 6 7 6 3 5 8 12 15 15 20 22 23 21 20 19 18 18 19 18 18 18 18 17
7 6 6 5 3 5 4 6 5 5 4 2 1 5 7 2 4 4 2 3 3 3 7 6 5 4 3 6 11 15 16 17 21 22 19 18 13 13 12 14 15 15 15 15
5 3 7 8 5 7 5 4 9 11 7 3 5 4 6 6 7 6 7 6 7 7 4 6 8 7 4 2 5 15 15 14 13 17 19 17 16 14 12 11 10 10 10 11
4 6 7 4 5 4 3 7 6 5 4 1 3 2 4 9 7 7 8 7 7 7 7 7 8 8 6 6 5 4 9 10 12 12 13 13 11 10 8 5 4 5 6 7
3 1 2 4 4 5 7 8 6 3 3 1 7 6 4 5 8 7 7 7 8 7 7 10 11 10 11 9 12 12 11 9 8 8 9 6 8 6 6 5 3 1 1 5
4 3 2 1 8 2 5 7 2 1 0 5 6 4 8 2 1 9 10 9 8 9 8 8 9 12 12 12 15 16 16 16 15 14 12 12 10 7 6 3 3 2 3 2
8 4 9 5 5 8 7 7 5 6 5 4 5 6 6 2 3 10 10 10 9 8 7 8 12 14 13 14 17 20 21 23 21 21 18 15 13 12 11 12 10 9 6 6
7 3 4 3 3 6 6 6 3 7 2 3 4 5 1 3 3 8 11 9 9 9 8 8 13 14 14 15 16 20 22 23 23 22 21 20 17 15 14 13 12 12 11 11
3 5 3 0 1 1 3 7 3 1 5 4 5 4 6 7 10 10 12 11 9 8 9 8 13 16 14 15 17 19 20 22 21 21 21 21 19 17 16 16 15 14 13 12
0 5 0 3 6 8 3 5 4 5 5 5 3 6 3 14 18 16 13 12 11 9 8 8 14 15 16 16 16 18 19 20 21 21 21 21 19 17 16 17 16 14 13 14
2 5 4 2 1 2 3 5 7 5 5 1 4 5 2 3 15 15 15 13 10 9 8 8 16 17 16 16 16 16 17 19 19 20 21 20 18 16 16 16 14 13 13 13
8 3 4 3 3 1 5 5 5 2 3 5 5 6 3 1 9 13 14 12 13 11 10 8 14 15 17 17 17 17 17 19 18 19 20 19 16 14 14 13 12 12 13 14
7 3 6 10 5 7 6 8 8 7 3 5 7 8 4 6 12 12 14 14 14 13 13 9 9 16 19 18 18 18 17 17 18 19 18 16 13 12 12 12 12 14 14 15
6 8 8 13 8 6 8 12 13 11 18 10 23 14 8 10 12 17 14 13 14 14 14 13 11 15 21 20 19 18 18 17 17 17 15 13 10 10 11 11 12 13 13 14
2 3 8 5 8 1 3 9 18 22 25 18 18 12 8 12 11 10 16 17 17 17 16 15 13 19 20 23 22 20 19 17 15 15 13 10 9 10 11 11 13 14 15 16
8 5 3 5 4 5 4 16 12 16 19 19 21 27 3 7 15 15 15 19 20 18 17 16 16 21 23 27 26 23 20 17 14 13 10 8 8 10 10 12 13 15 18 19
6 5 2 3 3 4 14 5 17 17 14 19 19 13 9 10 16 16 20 22 18 17 17 15 22 23 28 27 24 22 19 16 13 10 8 7 7 8 10 13 16 18 20 22
4 5 3 4 4 6 10 6 8 10 20 15 20 20 9 5 6 7 14 13 18 19 19 24 27 30 32 29 26 23 19 15 12 8 5 4 6 9 13 16 18 19 22 24
4 0 6 4 7 13 8 14 8 7 16 11 14 15 10 9 9 9 12 16 14 22 27 29 32 34 33 28 26 22 18 14 11 6 2 2 6 10 13 15 18 20 22 24
8 6 13 11 5 8 5 4 6 10 8 1 3 12 11 12 11 5 10 7 19 25 27 31 30 29 31 28 25 21 17 12 9 6 2 3 7 10 12 16 18 20 22 23
10 10 5 5 8 13 5 2 14 1 2 2 2 2 7 6 3 9 11 16 18 23 28 32 31 31 28 25 22 20 16 13 8 4 2 5 8 12 15 17 18 18 20 22
2 1 5 7 5 0 6 2 2 2 1 2 2 2 6 8 4 7 10 12 15 24 25 28 32 30 25 22 19 20 16 11 7 5 5 7 11 13 15 16 18 21 19 19
2 1 2 2 2 2 4 2 1 1 1 1 2 3 6 7 9 9 8 9 10 19 22 27 29 26 24 19 17 15 14 9 6 4 6 9 12 14 15 17 18 17 19 20
3 5 5 3 4 2 6 6 4 2 1 3 3 4 7 11 9 12 12 12 17 20 25 28 26 25 24 20 17 14 11 7 5 5 7 9 11 13 17 17 19 18 19 18
4 5 4 4 4 3 2 2 7 6 4 6 6 5 4 5 12 10 10 16 20 21 26 27 27 27 24 20 16 11 8 6 5 6 7 9 11 13 15 19 24 20 17 16

GFSCGP_925_spd_102.txt.gz
Wind_Speed
4 6 20 19 4 5 6 5 6 3 3 5 8 5 9 7 5 8 9 9 9 10 9 12 19 27 26 31 36 36 35 33 31 29 25 22 23 22 20 18 17 16 16 16
4 18 9 9 8 5 5 7 5 1 1 3 4 9 5 5 6 8 10 9 11 6 6 11 15 17 22 26 29 32 35 34 34 32 29 24 22 21 19 17 16 15 15 14
13 9 8 8 6 8 5 6 5 4 4 2 5 6 4 8 5 4 6 6 5 11 10 8 15 16 17 17 20 25 30 34 35 35 29 19 15 17 17 18 16 16 15 13
5 6 12 7 16 13 9 7 8 7 5 5 4 5 6 8 9 7 9 8 9 9 6 5 11 13 14 16 17 17 19 29 34 35 31 25 18 16 16 15 13 10 9 8
7 9 7 14 15 9 8 7 9 7 4 5 3 2 7 2 8 9 13 10 9 9 9 8 11 10 10 11 14 17 19 20 31 34 30 23 23 19 14 11 8 8 8 8
6 2 8 9 4 7 8 7 6 5 3 3 6 7 5 6 9 9 4 10 10 8 7 8 10 10 8 8 10 14 20 21 23 33 32 23 22 17 14 13 12 11 10 9
3 3 1 3 6 2 5 9 2 0 1 6 2 3 8 5 8 7 12 11 8 8 8 8 9 10 9 7 9 12 17 20 24 28 30 25 22 18 17 18 17 14 9 6
10 6 7 5 6 7 6 9 6 7 4 3 3 6 6 7 5 7 8 10 9 9 7 8 11 12 12 11 12 16 20 22 25 28 27 25 20 19 16 17 17 14 12 9
7 4 2 2 2 8 6 5 6 7 3 3 5 5 9 4 7 4 7 11 12 9 8 8 11 14 14 14 15 20 24 26 28 30 28 27 23 22 21 20 18 17 16 16
6 3 1 1 2 1 7 8 3 2 5 4 4 4 5 7 12 9 9 13 9 8 8 7 12 16 16 17 19 21 25 28 29 30 29 28 26 24 23 22 22 20 18 15
5 4 1 3 6 9 4 4 2 5 4 5 1 6 8 13 17 14 11 10 12 11 10 9 13 18 19 20 21 23 26 28 29 30 30 30 29 27 26 25 22 20 17 14
3 5 4 5 1 2 1 7 6 7 7 1 3 6 3 7 7 9 10 11 8 11 10 9 17 21 22 23 24 26 27 29 30 32 33 33 31 29 27 24 20 17 15 13
8 2 3 4 3 2 5 4 5 5 3 8 5 6 1 2 5 6 11 10 11 11 9 8 13 16 21 25 26 26 28 30 32 33 34 32 30 27 24 23 20 16 14 12
8 4 8 10 6 9 7 8 6 5 2 4 7 10 6 5 6 5 8 12 12 12 14 13 11 16 20 25 28 29 30 32 33 34 33 31 28 25 23 20 18 16 13 10
8 7 5 1 5 5 3 10 15 13 22 11 24 10 12 8 8 7 6 8 11 14 14 15 14 16 22 25 28 30 32 34 34 34 32 30 27 24 21 19 17 14 11 9
1 2 5 3 5 5 2 8 15 20 15 15 14 13 8 6 6 8 12 15 16 17 19 16 15 22 24 26 29 34 36 36 34 33 31 28 26 23 20 18 15 12 10 7
9 6 4 13 3 6 3 14 13 14 18 20 17 24 7 7 9 11 12 17 20 19 20 20 22 28 30 32 36 35 39 38 36 34 31 28 25 22 18 17 14 11 8 6
6 7 3 3 2 5 14 5 11 16 9 21 17 5 9 10 11 11 12 18 19 18 19 18 24 28 32 33 35 36 40 39 36 33 31 27 24 21 18 15 12 9 7 5
3 5 2 5 4 5 9 9 9 10 20 12 20 17 6 5 4 7 13 15 18 20 20 31 37 33 32 35 37 42 41 40 37 35 32 28 24 21 18 14 11 9 6 4
3 3 4 3 7 11 9 8 8 8 18 13 15 17 10 8 7 17 10 15 19 23 23 25 31 32 35 38 46 43 38 41 39 37 33 27 23 19 16 13 10 7 5 2
3 2 12 3 4 9 7 4 4 9 11 2 9 11 8 10 14 2 2 8 17 17 24 29 34 36 36 40 44 35 35 35 39 35 30 26 21 17 14 12 10 7 4 3
9 8 5 3 2 16 6 4 15 5 2 2 2 1 4 8 5 2 4 5 8 11 22 32 29 29 36 46 46 37 36 39 38 34 30 26 21 17 14 11 8 6 5 3
6 6 8 12 8 2 2 2 2 1 3 1 2 3 4 4 3 2 2 2 3 9 18 25 27 27 30 41 43 38 38 41 39 33 29 24 19 16 13 10 8 6 4 3
3 2 3 3 3 4 5 1 3 2 1 0 2 3 3 3 3 3 2 4 5 10 15 21 25 25 26 32 34 35 44 41 37 33 27 23 20 17 13 10 7 6 4 1
2 5 4 4 2 3 3 5 3 4 2 3 3 2 4 3 3 3 3 2 3 10 15 21 21 23 26 32 36 39 44 41 36 30 25 21 19 16 12 10 8 7 4 2
4 4 3 2 2 3 1 3 4 4 4 5 3 4 3 2 4 2 2 6 11 13 18 20 21 23 27 34 37 38 39 36 33 28 25 24 20 15 13 11 9 5 5 5

GFSCGP_925_spd_108.txt.gz
Wind_Speed
4 5 8 10 7 2 9 6 9 2 4 2 7 9 11 3 2 6 9 9 9 11 15 19 27 31 33 33 35 34 33 32 31 30 27 24 23 22 20 18 16 17 14 12
4 10 7 5 4 6 2 3 10 4 3 3 2 12 8 5 6 8 11 9 11 7 6 15 25 29 33 35 35 35 35 35 35 33 30 27 26 23 21 19 18 16 16 16
11 4 12 12 7 11 10 3 4 1 3 1 3 7 6 6 4 5 7 8 6 13 11 10 20 30 32 35 37 38 37 37 37 36 32 28 23 20 22 18 19 18 17 17
5 6 16 8 11 9 8 6 1 2 3 6 1 7 7 7 9 7 10 8 12 11 9 9 17 24 31 35 37 38 38 37 38 37 36 33 26 21 25 21 19 20 20 18
8 12 6 16 9 7 4 5 3 4 4 1 5 3 7 2 7 8 10 12 14 14 11 11 20 30 30 27 31 33 33 34 35 37 37 37 31 29 21 22 18 18 17 16
8 3 8 7 5 8 8 6 7 2 4 6 12 7 6 6 7 6 12 11 14 11 10 10 19 25 26 21 23 25 28 32 32 34 36 37 33 31 22 23 19 15 15 14
3 3 3 8 7 5 7 11 2 2 3 8 5 3 12 5 8 8 11 14 14 9 9 10 10 21 27 25 23 23 23 26 30 32 34 37 36 34 30 28 25 23 19 16
10 7 9 4 7 6 13 11 6 7 3 3 0 8 6 10 6 8 8 9 7 9 12 15 17 23 30 28 25 23 24 26 27 29 30 33 36 34 31 30 27 24 22 19
7 5 1 3 5 10 6 15 6 4 4 3 6 6 8 6 9 7 11 8 12 10 10 11 9 21 26 24 22 22 22 23 25 29 27 30 35 35 32 29 26 25 22 19
6 4 3 4 4 2 11 12 7 2 5 5 4 5 5 3 10 11 10 13 16 6 6 5 8 17 19 19 18 18 19 20 22 25 29 30 34 35 33 30 27 24 22 20
6 5 1 5 8 9 3 10 3 5 4 5 0 7 8 11 12 11 10 6 5 6 6 6 6 14 15 16 16 16 17 18 19 21 25 29 31 33 35 32 27 23 22 22
8 6 4 6 2 0 4 8 12 7 10 1 2 15 5 9 6 5 9 8 6 6 9 8 11 16 15 16 16 16 16 17 19 22 26 28 31 34 34 32 28 25 26 25
8 3 4 4 2 0 6 4 7 4 4 10 4 15 3 4 5 6 7 7 5 3 4 5 7 12 17 17 16 16 16 17 18 23 27 30 34 34 33 31 31 30 29 26
11 4 7 10 5 8 5 5 3 5 3 6 11 3 5 6 8 3 3 4 4 6 7 6 6 10 16 18 19 19 20 22 23 25 28 32 34 34 33 33 32 32 29 26
7 8 5 3 5 6 7 13 14 12 16 9 30 16 12 11 5 5 4 4 5 7 8 8 8 7 17 20 21 22 24 26 27 28 29 31 32 33 34 33 32 29 26 24
2 3 5 3 2 6 6 11 14 20 21 21 18 22 2 4 6 5 7 6 7 9 11 12 11 12 17 21 26 28 28 28 28 30 32 33 33 34 34 33 31 28 25 23
8 6 3 7 2 3 3 14 16 13 16 18 17 19 6 4 8 8 8 8 11 12 10 12 15 17 22 27 32 33 33 31 32 33 32 34 34 34 34 32 30 28 25 23
5 12 3 3 3 5 7 5 13 17 14 21 20 2 7 9 8 8 7 8 11 9 10 13 15 22 29 31 32 32 32 34 34 32 34 35 36 35 33 31 30 27 25 22
6 4 2 5 4 6 11 8 7 7 14 14 13 8 8 5 1 9 9 12 15 14 13 16 21 24 23 29 33 35 34 35 35 36 38 39 39 37 35 33 31 27 24 22
2 9 10 4 7 11 20 10 6 6 16 9 10 12 10 7 5 13 3 7 10 10 11 15 19 21 25 30 35 36 35 37 36 41 42 42 40 39 38 35 31 27 23 21
3 2 13 4 7 10 6 4 8 8 11 1 1 7 8 9 4 1 5 4 5 8 13 14 18 26 31 32 36 31 29 35 39 39 42 42 41 39 37 34 31 27 24 22
8 8 4 3 2 19 5 4 19 7 2 4 3 3 6 4 5 4 7 6 7 7 13 11 15 22 24 31 36 30 33 35 37 42 44 43 42 40 37 34 30 27 26 24
4 5 7 12 9 3 6 1 3 3 4 3 4 1 3 3 2 3 3 7 6 9 12 11 11 10 17 27 32 26 28 31 37 40 40 42 42 39 36 34 31 28 26 24
3 1 3 3 1 1 3 3 2 3 4 4 3 2 3 2 3 4 4 6 6 11 11 10 4 8 15 22 27 26 23 31 35 33 36 41 43 38 36 33 32 31 28 25
2 3 3 2 3 4 3 1 3 3 4 5 3 3 4 3 5 4 4 5 5 9 10 8 6 8 13 16 21 24 24 30 31 30 32 34 39 40 38 33 32 29 26 25
2 3 3 2 1 3 2 3 2 4 4 5 4 4 4 5 4 3 3 4 5 7 6 6 7 9 12 14 18 21 25 30 33 31 33 35 38 37 36 33 26 24 21 23

GFSCGP_925_spd_111.txt.gz
Wind_Speed
4 3 9 14 8 5 8 4 10 1 4 1 5 8 11 4 5 7 8 10 10 11 14 22 27 29 29 29 29 30 29 29 28 27 25 23 23 22 21 21 18 16 15 14
4 2 5 13 10 8 7 6 1 4 1 2 5 10 11 6 6 8 11 8 12 7 7 17 27 29 32 33 34 33 32 31 31 31 30 27 27 25 23 20 18 18 18 16
6 3 6 10 8 8 4 7 2 2 2 3 4 9 8 5 5 5 7 7 6 13 13 11 19 30 33 36 36 37 36 35 34 33 31 27 21 20 21 21 20 18 18 17
4 3 12 8 10 10 6 8 6 4 3 4 3 6 6 5 10 7 10 8 12 13 9 11 19 27 34 39 39 37 37 37 36 35 34 33 28 24 27 25 24 18 20 19
5 3 8 6 7 8 3 11 5 4 2 2 1 2 7 3 7 7 11 12 13 15 14 15 21 30 36 36 39 39 39 39 38 38 37 37 30 31 31 25 26 21 19 19
6 1 7 9 7 9 7 8 8 5 2 4 6 5 5 8 7 6 7 12 15 14 12 14 23 27 34 34 37 38 39 40 39 38 38 38 34 32 30 27 25 23 20 19
3 3 4 6 11 4 8 9 3 1 2 7 2 7 13 8 7 8 10 11 14 12 9 12 12 23 30 35 37 35 35 38 38 37 36 36 37 36 34 32 31 27 23 20
9 5 8 5 9 8 9 7 5 7 5 4 1 8 6 13 11 7 8 8 7 8 8 10 15 20 25 31 34 32 31 32 34 32 32 31 34 34 33 33 34 31 28 25
5 3 2 5 6 12 4 9 4 3 2 2 5 6 9 8 9 8 10 8 11 11 9 11 10 18 23 27 33 32 29 27 27 29 29 29 28 32 33 33 33 33 29 26
7 5 0 3 7 1 11 10 4 1 2 4 4 5 6 3 9 7 6 9 6 4 4 7 8 16 23 29 31 26 25 25 24 24 26 29 29 31 33 33 34 33 30 27
7 4 1 6 9 11 5 7 4 5 4 4 1 5 7 11 10 8 3 5 7 7 7 7 9 17 21 23 23 23 21 20 21 23 25 29 30 31 30 34 34 35 31 29
8 6 4 8 3 5 8 8 14 6 4 2 3 7 2 7 6 3 6 6 6 6 6 5 7 15 21 23 21 21 21 20 19 19 21 23 27 29 31 35 36 36 32 28
10 4 4 4 3 2 8 6 15 5 3 8 4 10 4 3 4 6 6 7 6 5 5 4 5 8 12 18 19 19 19 18 18 19 19 22 26 29 32 35 38 36 33 30
11 4 8 12 7 7 7 9 10 17 5 14 9 18 9 8 7 4 6 5 5 5 5 5 5 9 16 20 21 21 20 20 20 20 22 24 28 30 34 38 38 36 35 32
6 9 5 1 5 6 6 10 13 14 23 13 33 23 14 11 7 8 4 2 5 6 7 7 7 8 17 21 22 21 22 22 22 22 24 26 28 30 34 36 36 36 36 33
3 4 6 3 3 4 5 9 15 22 23 18 26 22 3 10 5 4 8 7 9 9 9 7 9 10 16 21 25 26 25 24 24 24 24 25 27 29 32 34 34 34 34 33
13 7 4 13 3 5 3 15 15 15 18 19 21 25 5 7 9 9 9 9 10 9 9 10 13 16 21 26 27 29 28 26 25 25 24 24 27 31 33 35 36 35 35 33
11 13 3 3 3 7 10 4 14 18 17 21 23 4 8 12 8 7 9 8 9 9 9 11 10 15 18 21 26 28 29 29 30 28 28 28 30 32 34 37 38 37 35 33
3 6 2 6 4 5 12 13 8 8 14 13 15 12 8 3 3 9 8 8 12 8 5 10 16 18 18 23 26 28 29 31 32 33 34 35 37 38 40 41 39 36 35 33
5 4 4 3 6 12 18 9 6 7 16 17 12 12 11 7 4 11 3 2 4 5 6 10 12 12 17 21 24 28 30 29 33 38 39 39 41 43 45 44 42 38 35 33
4 1 13 5 5 8 7 3 8 9 10 1 5 8 8 8 7 4 2 4 6 7 12 11 8 9 15 19 24 28 27 33 38 35 36 38 41 43 43 42 40 38 35 32
7 7 4 3 9 15 4 4 15 9 4 4 2 5 8 4 4 3 6 5 6 7 13 13 11 8 7 14 22 22 25 27 28 32 35 38 41 42 42 41 40 38 36 33
4 7 7 12 8 2 3 2 3 1 5 2 4 2 4 5 3 4 3 4 3 6 8 10 10 7 4 10 18 22 22 21 24 30 33 36 39 40 42 41 40 37 35 34
3 2 4 4 1 1 5 2 3 4 3 5 4 4 5 6 4 5 3 5 6 10 10 12 10 8 5 6 13 18 17 18 23 28 31 35 37 39 41 41 42 40 38 34
3 6 6 1 2 3 3 3 5 5 5 7 7 5 5 6 5 3 2 2 5 8 11 13 12 12 12 8 8 12 14 17 23 25 28 31 30 35 35 37 41 40 40 40
3 5 4 3 4 3 1 2 2 6 5 5 7 6 6 6 5 2 3 6 8 11 12 14 14 13 13 10 7 7 11 16 21 24 26 27 28 30 31 32 28 29 34 35

GFSCGP_925_spd_114.txt.gz
Wind_Speed
4 4 11 20 17 11 11 10 12 4 3 1 8 17 20 17 8 12 12 13 14 16 18 22 24 24 24 23 23 24 24 24 22 21 18 17 18 18 17 17 19 18 15 15
4 6 6 10 11 12 15 13 12 5 5 5 8 17 15 18 12 15 15 14 16 14 15 21 23 25 25 25 26 26 25 24 25 23 23 18 19 19 19 21 23 21 19 19
10 6 9 14 12 13 7 14 10 4 3 3 4 17 19 14 15 15 14 15 14 17 18 17 23 26 27 30 29 29 29 27 26 25 21 18 14 13 17 23 23 22 22 21
4 6 14 10 8 13 7 6 9 7 3 4 9 8 12 14 21 13 15 16 16 17 17 16 23 26 29 30 28 30 30 30 29 28 25 25 23 21 21 24 26 23 24 21
7 13 17 16 10 8 4 8 5 1 2 2 7 6 8 3 14 19 15 16 18 16 19 19 25 29 31 28 30 31 30 30 30 30 30 27 26 24 20 19 24 30 28 23
6 4 11 9 11 5 13 8 7 3 1 6 12 11 10 10 14 17 17 17 17 18 18 19 24 22 25 26 29 29 30 31 30 29 30 30 29 26 24 21 22 29 31 27
4 8 4 12 15 10 5 12 3 2 4 7 1 11 15 10 11 17 18 17 16 18 14 15 15 18 26 28 30 30 29 31 30 31 31 32 31 29 29 27 25 29 32 29
8 5 10 9 16 12 15 10 4 6 5 3 2 10 4 11 14 12 11 10 6 9 10 11 15 19 20 22 24 27 30 31 29 30 32 30 31 29 29 27 24 26 34 33
10 5 6 13 8 15 8 9 4 1 2 2 5 6 10 8 9 10 14 8 13 10 9 10 11 19 20 21 23 25 27 31 30 31 29 29 28 30 27 26 25 23 29 34
11 6 7 6 13 4 12 15 5 4 5 5 4 6 9 3 11 9 9 10 10 7 7 9 11 15 17 20 22 24 28 29 31 29 27 27 29 31 33 30 30 29 32 35
8 4 5 9 13 18 10 11 6 5 4 3 3 4 4 7 5 8 7 6 7 7 7 7 8 9 12 14 17 20 24 24 25 27 27 26 24 26 32 34 35 33 34 37
5 6 7 22 3 6 17 13 16 6 7 5 1 7 3 3 2 3 5 5 5 6 7 7 8 8 7 11 14 17 20 21 24 25 25 26 25 28 29 33 34 33 36 39
11 6 6 7 4 3 18 12 18 6 1 7 6 9 3 2 3 6 9 9 6 7 5 4 6 7 7 10 11 12 15 18 21 22 22 22 24 27 30 34 35 35 39 42
9 3 9 12 11 13 14 23 20 18 6 14 15 26 11 6 5 5 7 9 10 7 3 4 5 6 9 12 14 15 15 18 19 19 19 20 21 25 28 32 33 36 39 42
7 8 7 3 6 11 15 20 22 23 28 16 27 25 20 17 17 16 11 7 8 7 6 7 7 7 11 13 14 14 14 17 18 18 19 20 22 23 27 28 30 34 38 39
4 3 5 1 5 5 7 17 24 29 29 23 29 24 13 12 18 18 17 14 14 12 11 10 9 10 14 14 14 16 16 18 20 19 21 21 22 24 26 28 30 33 36 37
11 6 5 11 4 5 4 25 23 24 29 31 25 33 11 13 12 13 12 11 11 10 10 10 10 9 11 14 18 22 22 22 23 24 25 24 24 26 27 28 31 35 38 38
16 12 2 3 4 11 11 15 18 22 19 23 24 22 6 15 16 12 9 11 9 10 8 9 9 11 12 16 19 19 21 24 25 27 27 27 27 28 28 30 33 36 38 40
8 9 5 6 9 11 13 3 9 11 19 20 23 21 14 6 4 14 11 12 12 5 3 6 11 13 12 13 15 19 22 25 28 30 31 30 30 30 32 35 37 39 40 39
4 13 8 5 14 17 6 14 11 8 21 11 13 16 14 11 8 14 3 2 3 5 5 6 7 9 11 11 13 17 19 23 29 29 34 34 34 33 35 37 38 40 40 39
7 7 17 9 10 6 5 6 17 13 6 5 5 15 11 11 12 2 3 4 2 5 6 9 9 10 10 9 12 17 19 27 28 28 29 31 34 36 36 36 36 37 36 35
10 11 9 7 12 19 8 8 17 8 0 3 1 2 9 5 5 4 4 3 4 7 8 9 9 11 11 7 8 13 18 18 19 22 26 29 32 33 34 36 36 37 38 36
8 8 7 12 8 1 9 2 3 2 2 3 3 2 7 7 4 5 4 4 7 10 8 7 9 11 10 7 5 11 14 13 14 17 22 26 28 31 32 32 31 29 30 26
5 3 5 4 6 5 7 3 2 2 2 2 4 3 3 8 7 6 4 5 5 7 9 10 12 13 12 10 5 7 10 8 11 15 19 21 24 25 28 28 29 28 28 25
3 10 5 1 2 6 1 4 7 7 7 8 6 3 8 9 7 7 5 5 6 7 7 11 12 12 13 12 10 7 5 6 10 13 15 18 21 24 24 26 28 29 31 34
5 5 9 7 10 2 6 9 9 9 8 8 10 7 6 6 8 6 6 7 8 9 12 14 14 14 14 13 12 9 5 6 10 11 12 14 17 20 21 22 20 24 25 33

GFSCGP_925_spd_117.txt.gz
Wind_Speed
3 5 12 17 21 16 16 14 11 9 8 7 17 18 20 20 11 9 10 13 14 16 18 23 25 26 25 25 25 26 26 25 24 23 22 21 22 20 19 18 18 17 17 17
5 7 14 14 13 11 14 15 14 8 5 5 11 18 16 18 21 17 14 13 15 13 14 20 24 26 28 28 27 27 27 27 29 26 23 22 21 20 20 20 20 22 22 20
10 13 6 16 14 13 12 14 11 7 4 8 9 16 21 22 20 20 17 14 14 13 15 15 22 28 28 29 29 29 29 30 29 27 24 20 17 18 19 21 21 25 24 23
3 9 13 15 17 16 8 2 3 8 4 6 7 9 12 19 23 20 21 19 18 16 14 15 21 25 30 32 30 31 30 30 30 29 25 25 23 22 21 24 28 27 27 26
6 14 17 14 13 17 6 9 8 5 2 4 8 5 7 4 14 19 20 21 20 17 17 18 19 27 31 29 31 31 31 32 31 31 30 27 25 24 21 23 23 26 30 30
9 14 14 10 13 8 17 13 10 5 2 5 13 11 11 13 13 14 18 20 20 18 17 17 25 25 25 28 29 30 31 32 31 32 32 31 29 26 24 24 22 21 26 31
9 13 4 16 13 8 1 11 3 2 4 6 3 12 16 9 11 9 13 16 17 17 16 16 15 21 25 28 31 31 31 33 34 35 33 34 32 30 29 26 25 22 23 30
13 6 13 19 8 13 12 6 5 7 6 3 2 9 4 9 7 14 11 9 8 15 14 12 14 21 24 27 29 29 28 31 31 33 35 34 34 32 31 29 27 27 26 32
14 6 12 17 6 20 7 5 1 2 2 1 6 8 10 12 14 8 11 7 8 7 8 10 11 17 19 23 28 30 28 28 28 33 32 32 32 33 31 29 29 29 27 25
13 7 10 6 9 7 12 13 4 4 4 6 6 7 8 7 6 8 8 10 8 8 8 7 8 11 15 16 18 24 30 34 37 32 33 33 33 32 32 29 30 30 28 27
18 7 9 8 11 14 5 13 6 4 4 3 4 5 3 3 2 3 2 3 3 4 5 5 6 6 8 10 13 17 22 25 26 32 31 30 29 28 29 30 30 34 31 32
4 6 11 20 3 9 15 14 15 6 6 8 3 9 7 5 4 2 3 3 0 1 3 4 4 6 7 8 10 12 13 16 19 20 22 24 22 24 30 31 33 34 37 33
11 7 9 7 7 7 22 17 19 11 1 6 6 8 12 7 3 5 4 6 1 2 2 2 2 3 6 8 10 11 13 15 15 15 19 21 23 23 22 27 30 33 34 34
7 7 10 12 7 14 14 21 17 18 6 12 14 22 7 6 4 3 2 3 5 5 4 5 5 4 6 7 8 8 9 10 12 16 16 17 20 22 24 24 28 32 30 33
8 6 9 7 10 17 17 19 21 22 28 15 21 22 18 13 10 10 9 11 8 9 8 8 7 4 5 5 7 9 10 12 14 15 17 19 22 22 23 28 28 29 30 33
11 5 9 2 4 12 11 16 22 28 29 22 22 23 11 12 11 11 12 12 11 11 9 5 4 3 4 6 9 12 12 15 17 17 20 19 21 22 24 24 25 26 29 30
12 5 4 4 6 6 1 23 23 25 25 25 22 31 8 10 8 8 11 12 13 9 8 6 4 4 5 8 11 12 12 13 18 20 21 22 22 21 22 22 23 26 28 31
8 6 3 3 4 5 17 14 22 25 23 26 28 25 9 8 9 9 12 13 10 11 9 4 4 6 4 5 7 9 12 16 21 22 24 22 21 22 22 23 24 26 29 32
14 8 5 6 11 4 14 10 12 19 22 22 24 25 19 14 3 14 12 12 13 7 2 3 6 8 9 4 5 7 11 15 20 24 23 22 22 23 23 24 25 25 27 29
4 12 4 5 7 12 9 15 8 8 19 15 21 20 15 9 10 16 13 3 5 6 7 5 9 11 9 6 4 6 9 13 18 20 22 23 24 25 25 25 25 25 26 28
7 2 15 6 6 6 3 8 14 11 5 5 14 17 14 13 17 1 6 8 7 6 7 5 5 7 10 12 6 4 6 9 12 14 16 18 21 23 23 21 22 23 24 26
11 11 7 6 8 19 6 8 18 9 3 2 1 1 4 5 8 7 7 6 6 6 6 8 7 9 9 10 8 6 6 9 11 11 11 14 17 20 21 21 21 22 23 24
9 10 8 13 11 2 8 6 6 3 3 4 3 3 3 7 7 8 7 5 5 7 7 12 13 11 13 12 9 7 7 10 8 7 8 10 13 17 20 21 22 22 24 22
3 8 4 4 8 5 8 2 0 2 3 3 1 3 4 7 8 6 6 5 5 7 10 13 13 13 13 14 12 10 8 8 7 6 6 7 9 12 16 18 21 22 22 21
3 8 6 4 3 3 0 5 7 6 5 7 4 3 8 11 8 7 6 5 6 8 10 12 12 11 12 14 14 13 10 7 6 6 6 6 6 9 12 17 19 21 23 26
5 5 9 10 12 9 7 11 10 10 8 7 7 5 6 6 8 7 7 7 8 10 10 11 12 11 12 13 14 12 10 8 7 6 6 5 5 7 10 12 16 19 20 23

GFSCGP_925_spd_120.txt.gz
Wind_Speed
5 5 14 18 14 5 16 12 9 12 9 6 13 12 12 9 8 8 8 7 9 12 16 25 27 26 28 28 28 30 32 29 29 28 29 26 29 26 24 23 21 21 20 19
5 15 12 13 15 13 9 14 10 8 6 4 7 14 13 12 11 10 10 9 9 8 10 20 25 28 29 31 32 31 33 32 32 29 28 27 25 23 25 24 24 24 24 23
14 6 11 12 14 13 15 13 9 5 5 3 4 7 9 8 13 12 11 9 10 10 10 10 21 28 29 29 31 32 33 34 34 32 28 24 21 21 23 24 27 28 29 29
6 8 19 15 15 9 5 1 7 11 7 2 6 5 7 14 19 18 17 13 13 11 8 10 21 26 31 34 32 34 35 35 35 32 30 30 29 27 27 30 31 31 31 31
8 15 17 18 16 11 2 9 9 7 5 3 5 2 5 2 12 18 18 16 14 13 11 11 18 31 35 32 35 36 36 35 34 36 35 34 29 27 28 26 28 31 33 33
8 8 10 6 6 9 13 13 11 6 3 3 7 6 5 5 5 4 7 16 18 13 11 11 24 30 30 35 36 36 36 36 36 37 39 35 32 29 28 31 30 33 35 35
9 13 5 14 14 11 2 9 3 2 2 5 1 6 12 7 8 1 6 6 7 12 10 10 10 17 25 32 36 36 37 36 38 38 38 41 36 34 33 33 33 32 34 34
8 4 9 15 10 11 16 2 5 7 5 2 2 7 5 6 6 5 7 7 2 6 7 10 10 16 24 30 33 34 33 35 36 38 40 39 39 36 36 35 32 34 36 37
12 4 13 18 8 15 6 4 3 6 2 3 5 5 7 12 7 6 6 1 2 3 4 4 6 14 15 21 29 35 35 36 34 38 38 37 38 39 38 36 36 37 36 34
8 8 3 11 10 2 7 8 4 1 5 4 5 4 5 4 6 6 6 8 7 6 6 3 3 9 14 17 23 26 27 32 35 35 36 38 38 39 40 37 39 38 36 35
14 6 3 5 6 11 5 6 4 5 4 4 0 4 3 7 5 3 7 5 5 5 3 2 3 4 4 8 12 16 25 29 30 34 35 35 35 36 36 36 38 38 35 36
4 6 7 7 2 4 4 8 4 4 4 3 3 5 5 7 6 5 6 5 5 6 4 1 1 3 6 9 11 15 16 18 24 26 26 31 28 29 31 34 34 33 34 34
10 5 8 4 5 3 9 11 13 4 3 6 5 5 7 8 5 5 8 5 5 5 5 3 2 3 5 6 8 10 11 14 15 18 19 23 26 22 25 27 29 32 34 34
7 5 6 12 6 11 8 11 12 5 3 3 8 5 4 6 7 6 5 5 7 6 5 3 4 5 5 5 6 8 9 11 13 16 19 21 25 29 26 24 27 31 33 34
6 5 6 7 12 15 24 26 18 19 21 12 19 13 10 7 9 8 7 2 4 6 4 5 3 3 5 8 9 10 11 11 13 15 17 19 19 19 20 20 21 25 27 29
4 4 5 5 9 12 15 17 23 27 24 20 13 15 4 9 6 1 2 1 4 5 5 5 3 4 7 10 11 11 12 14 14 16 17 16 16 17 19 20 21 22 24 24
11 6 5 2 6 8 1 25 25 22 18 25 15 18 4 6 6 5 5 6 8 5 6 7 7 5 5 5 7 12 13 13 17 18 17 16 15 16 16 17 18 19 19 21
10 6 3 3 5 3 7 18 19 24 24 26 23 13 7 7 9 7 8 9 8 9 8 5 5 5 2 1 3 6 8 12 15 15 16 16 17 17 16 15 15 16 18 20
5 5 4 6 3 4 7 13 20 14 18 22 27 19 15 7 4 10 8 7 9 1 4 5 3 5 6 4 1 3 3 5 9 14 16 15 15 16 16 16 16 17 18 19
4 3 3 4 6 11 3 13 13 9 18 16 17 18 17 9 10 16 10 6 6 10 9 6 3 4 3 5 4 3 2 1 2 6 12 16 15 16 18 17 16 16 17 19
12 14 14 3 4 7 7 10 10 11 8 6 16 17 10 9 12 4 7 6 8 8 9 8 9 10 8 7 5 5 5 6 5 6 5 8 13 15 14 15 15 14 15 15
11 12 9 3 2 14 9 7 20 7 1 4 5 5 7 7 7 7 8 7 7 7 9 10 11 12 12 11 8 9 11 8 6 6 6 4 4 8 11 11 13 12 13 14
5 7 9 12 8 3 4 7 3 4 6 6 7 5 6 8 7 8 7 8 7 8 8 11 13 14 16 15 13 11 9 7 8 8 7 6 5 4 7 9 11 11 11 13
2 6 4 4 7 7 8 1 4 3 5 5 5 6 6 7 9 8 7 7 5 8 10 11 15 18 18 16 15 13 10 9 8 9 10 8 7 5 5 7 9 11 12 14
5 10 7 2 2 5 2 5 8 7 7 6 5 3 7 10 8 8 7 6 8 10 13 15 17 19 16 14 16 14 12 10 10 11 11 10 9 7 6 7 10 11 14 15
3 5 8 7 12 7 6 7 8 9 8 9 8 5 5 6 9 9 6 10 12 14 15 18 17 16 14 14 16 15 14 12 10 10 11 10 9 8 8 9 10 9 12 13

GFSCGP_925_spd_123.txt.gz
Wind_Speed
6 8 21 14 16 5 12 8 10 9 8 7 15 6 12 8 6 8 9 8 10 16 25 30 34 32 38 36 34 39 38 37 35 33 32 34 32 30 29 28 26 25 23 24
8 23 17 12 14 13 8 14 8 3 8 9 6 14 8 9 7 9 10 10 10 10 9 23 29 33 39 39 38 38 39 37 41 38 36 31 34 33 32 30 29 28 26 25
21 12 15 13 14 15 10 12 7 5 5 1 3 6 8 8 15 10 13 9 10 13 15 13 24 34 37 39 41 42 42 40 39 38 34 31 26 29 31 31 31 33 30 29
14 10 19 19 18 15 16 7 5 7 12 4 6 5 5 12 15 17 20 12 15 11 10 15 25 29 35 42 43 44 43 42 41 39 36 34 32 30 33 38 38 36 34 34
15 20 25 20 25 18 6 7 8 4 4 4 3 1 7 4 9 18 18 15 11 11 10 11 22 31 38 34 41 44 43 43 42 41 38 37 32 31 29 33 36 37 37 38
5 4 12 11 3 10 11 7 8 5 2 4 8 7 5 5 6 4 8 13 12 10 11 10 25 28 29 33 36 40 40 41 42 42 44 40 36 32 29 32 36 37 38 40
6 9 2 14 10 6 7 11 3 3 4 7 2 5 9 7 6 4 4 7 9 9 10 12 11 20 24 32 38 38 39 38 39 40 40 42 41 38 36 36 36 32 35 36
18 12 16 8 9 13 12 9 5 7 5 4 1 7 6 9 11 6 6 5 6 6 8 10 14 22 26 33 35 35 35 38 39 42 45 45 43 39 39 38 36 36 37 38
16 7 6 14 5 15 5 5 4 6 2 3 4 6 8 9 8 5 6 4 7 5 2 9 10 17 26 30 34 39 39 40 33 39 37 35 40 41 37 36 34 36 39 39
5 7 6 6 7 2 13 11 5 1 5 3 4 4 6 5 7 7 6 8 7 6 4 1 4 12 18 23 32 35 38 41 42 38 39 39 38 39 40 34 37 36 37 38
5 6 3 9 7 13 5 11 4 6 5 5 3 6 7 10 7 8 8 8 8 6 5 5 4 6 8 12 16 22 27 31 33 34 37 38 39 40 40 40 42 42 42 40
6 6 6 4 3 6 4 13 4 7 6 3 3 5 4 6 8 7 7 7 5 5 5 4 4 5 7 10 12 15 18 23 28 30 32 37 39 37 36 39 42 42 41 39
9 5 9 3 6 3 8 9 7 5 4 6 5 5 2 2 6 6 9 7 7 6 6 3 2 5 8 9 11 14 17 20 21 22 25 28 31 33 32 32 32 35 34 32
8 5 6 19 29 9 10 8 5 5 4 5 8 3 4 7 7 7 7 7 8 7 7 4 3 6 8 9 9 9 10 12 14 17 19 21 22 25 26 24 26 27 31 31
6 5 4 7 10 9 18 17 13 10 11 9 16 14 9 11 9 10 10 8 8 8 8 7 6 6 9 8 8 9 9 10 11 12 14 16 16 18 20 23 26 28 30 31
2 5 5 3 11 15 21 23 24 26 22 17 4 7 11 9 6 7 9 9 8 7 8 8 7 7 6 8 9 9 9 10 10 10 11 11 11 13 15 16 18 19 22 21
10 7 6 5 8 11 2 27 29 24 21 25 13 19 9 9 11 9 9 10 9 7 8 7 7 6 4 2 3 6 6 7 9 10 10 10 10 10 12 13 15 17 18 19
7 8 3 5 11 4 8 18 24 26 27 27 21 8 11 9 11 8 8 9 9 9 8 7 7 8 7 4 1 1 2 3 6 8 8 9 10 11 12 13 13 14 15 18
5 4 5 7 5 4 6 7 25 19 26 25 28 13 6 4 2 5 7 9 9 7 6 7 9 8 6 4 3 5 6 5 5 4 5 7 9 11 12 14 14 13 13 15
8 8 5 4 6 12 5 7 11 6 13 19 20 17 11 5 8 12 11 6 6 9 12 14 12 11 8 4 5 7 7 5 3 1 2 3 5 7 10 12 12 13 13 13
9 3 7 9 2 7 8 8 17 9 10 11 19 23 22 16 19 5 7 5 7 9 13 13 13 13 8 6 8 11 9 7 3 1 1 1 1 3 4 6 9 10 10 11
9 10 5 4 2 13 10 17 23 7 2 5 6 9 13 10 8 8 8 8 9 8 13 14 16 13 10 10 12 13 11 6 5 5 5 4 2 1 3 3 3 5 7 9
5 10 10 13 8 1 6 7 5 5 7 5 7 6 9 9 7 9 7 8 7 11 14 14 18 17 14 14 13 16 10 8 9 8 8 7 6 5 3 3 4 5 6 6
3 5 4 5 7 4 6 2 3 3 6 6 6 8 9 9 11 8 8 8 7 11 15 21 22 18 17 15 16 15 11 10 12 11 12 11 11 11 9 7 4 4 7 9
3 8 6 3 3 2 2 5 8 5 6 6 5 5 8 11 7 9 8 8 9 13 18 20 21 19 17 16 17 14 13 11 14 13 13 12 11 12 11 10 8 8 6 6
3 1 8 4 9 6 6 8 7 9 8 8 7 5 4 6 11 11 9 10 14 15 19 20 21 21 17 17 16 14 12 11 11 14 14 13 13 12 12 12 12 9 9 9

GFSCGP_925_spd_129.txt.gz
Wind_Speed
10 9 19 27 19 7 7 6 7 4 5 5 15 16 15 15 3 8 10 9 13 17 24 22 27 35 33 35 38 39 39 39 35 36 34 32 34 33 33 31 30 30 29 28
8 21 29 13 12 11 6 8 10 4 5 7 4 17 15 7 9 14 12 13 15 13 10 16 27 31 36 40 41 40 40 42 41 40 38 31 32 35 34 34 32 32 32 30
20 22 14 16 14 15 16 13 5 2 3 2 5 10 5 10 17 12 11 12 11 16 17 13 20 29 34 35 40 44 43 41 44 42 35 34 29 29 31 35 35 36 34 33
13 18 22 18 18 14 20 5 4 3 3 4 6 6 6 7 12 10 17 14 15 14 12 12 19 24 32 40 42 39 42 44 42 42 35 33 31 29 33 31 35 37 35 36
19 19 23 25 29 23 11 9 6 3 2 1 3 4 6 1 7 11 14 15 18 17 15 16 19 30 35 39 38 42 40 42 43 44 41 36 32 28 29 30 34 35 37 38
9 6 11 8 4 9 7 5 4 2 2 8 9 8 6 8 12 6 7 16 17 14 13 14 26 30 30 34 36 38 41 44 43 44 45 42 39 32 26 31 32 36 38 38
23 14 5 13 11 5 9 9 4 7 6 10 6 8 17 6 7 7 9 10 12 12 14 13 13 20 25 28 33 36 40 38 43 44 44 46 43 36 37 36 35 31 37 40
14 10 19 18 18 16 29 22 5 9 8 6 3 10 6 13 20 9 10 8 6 8 9 13 14 22 26 31 36 36 37 40 39 42 45 44 42 43 43 38 36 39 40 43
12 10 19 15 7 15 14 16 10 5 2 3 6 8 8 10 15 9 11 9 10 9 8 11 11 21 26 30 34 39 38 39 38 44 44 42 44 43 42 42 39 41 43 41
7 7 22 6 5 1 15 16 11 2 5 5 5 6 8 9 14 12 10 14 11 9 9 7 7 19 29 32 34 35 37 39 43 45 43 42 42 43 45 37 42 41 39 35
6 4 7 12 16 20 8 17 9 5 5 6 2 7 8 12 15 12 11 9 10 10 8 8 5 8 20 27 29 33 35 35 36 37 39 39 39 39 38 37 40 40 38 36
29 8 13 27 5 1 20 19 20 12 16 4 0 6 2 11 4 8 10 10 7 8 8 5 5 6 8 16 22 26 30 33 34 35 35 36 35 33 33 35 37 36 36 36
16 7 7 9 4 4 14 17 23 11 3 13 12 9 1 3 6 7 8 9 8 8 7 6 5 6 11 12 14 16 18 22 26 26 27 28 29 29 29 29 29 29 30 30
19 7 24 17 30 24 18 33 28 24 15 23 19 14 5 5 7 6 6 6 7 7 8 6 5 6 9 11 13 13 13 13 15 18 20 23 25 25 25 24 24 24 24 25
16 19 17 24 19 14 21 25 24 28 31 16 27 12 8 9 10 11 7 5 7 8 8 8 7 7 9 10 11 11 11 12 14 15 16 16 15 15 15 15 16 16 15 15
13 10 7 4 10 22 23 21 25 23 28 22 26 17 8 10 3 5 9 9 8 10 10 9 8 7 10 14 14 13 13 13 13 12 11 10 9 9 9 10 10 10 10 11
9 9 14 19 5 12 10 24 28 28 28 29 27 33 8 7 9 11 11 12 16 18 13 10 10 10 17 19 17 16 14 12 12 11 10 10 10 9 9 8 7 7 8 7
14 13 6 5 11 15 8 17 24 30 29 29 27 13 19 16 15 11 10 16 16 11 10 9 7 14 18 17 15 13 13 14 13 12 12 11 10 9 9 8 7 6 5 5
25 15 4 6 12 3 4 9 30 24 32 29 26 29 14 6 4 8 13 14 17 15 13 15 23 19 19 17 17 17 15 14 14 12 11 10 8 8 8 7 6 5 4 2
20 22 10 5 8 14 22 10 13 4 19 19 29 33 30 10 10 19 17 14 11 10 15 16 19 20 21 21 20 19 16 14 13 12 11 9 8 8 7 5 4 3 3 1
14 11 14 10 4 7 7 13 21 13 20 22 24 31 24 15 24 23 10 11 9 9 17 19 23 26 25 21 20 19 18 17 15 14 13 11 9 7 6 7 7 6 5 3
8 9 5 4 3 13 11 21 24 18 3 3 15 26 20 24 11 8 10 10 12 11 13 22 23 23 21 20 21 20 20 18 16 15 15 13 11 11 11 10 8 7 6 4
8 8 8 11 13 1 24 7 3 3 4 4 4 8 22 22 20 10 9 10 9 10 14 18 21 20 16 19 22 23 20 20 19 17 15 14 13 13 13 14 14 13 10 8
1 3 5 5 4 5 10 3 3 2 1 3 3 7 8 8 11 10 8 8 8 8 13 20 21 15 14 17 20 22 23 23 22 21 19 18 17 16 14 14 14 14 13 12
1 4 4 1 3 2 2 3 2 2 1 1 2 3 8 10 8 8 7 8 8 10 17 23 20 16 17 18 18 21 23 24 25 24 22 20 20 19 18 15 13 11 10 8
7 5 1 0 6 5 3 11 13 5 4 3 0 0 4 4 10 7 7 7 10 12 18 18 16 19 20 19 17 18 20 22 25 24 21 22 21 19 19 20 18 12 10 10

GFSCGP_925_spd_132.txt.gz
Wind_Speed
8 7 8 17 17 2 6 5 9 3 6 5 10 16 15 13 4 8 10 9 12 13 20 20 27 32 32 33 35 36 37 36 35 34 33 31 32 32 32 31 29 27 25 24
6 15 16 10 10 7 3 4 4 3 2 5 6 14 12 9 8 12 16 11 14 11 9 15 26 31 35 38 39 38 38 39 39 38 37 33 33 34 33 32 31 29 27 27
16 22 14 10 10 14 13 15 4 3 3 3 6 14 13 9 15 15 11 16 14 16 16 13 19 29 34 37 39 41 43 41 41 40 36 33 28 28 30 34 34 34 31 30
17 14 17 17 19 15 21 6 6 5 1 4 5 7 6 6 16 9 19 17 19 14 15 14 18 23 30 35 37 44 41 42 42 40 37 37 31 28 32 34 35 35 33 34
12 14 17 21 24 19 11 10 6 1 2 3 4 5 7 2 8 12 16 17 15 17 18 18 18 29 35 38 41 41 41 40 42 43 40 38 34 30 30 31 32 32 33 35
12 3 11 9 8 17 8 6 4 2 1 9 16 11 9 9 12 10 6 11 15 15 15 16 25 27 29 32 35 37 40 46 42 42 42 37 34 32 28 32 33 34 35 37
20 10 7 9 9 15 17 10 3 6 6 12 4 10 19 7 9 8 10 11 10 10 10 14 14 19 26 30 36 37 38 35 38 42 42 45 42 34 34 35 38 36 38 39
17 13 15 17 14 10 27 15 5 8 6 8 5 10 6 12 19 18 11 10 7 8 8 10 14 23 27 30 35 35 36 37 40 44 44 44 40 40 42 37 35 36 37 38
7 17 17 11 5 15 12 11 11 5 2 2 5 9 7 11 14 10 10 8 12 10 8 10 9 19 24 28 34 38 39 42 38 41 43 40 42 42 40 39 37 38 38 36
4 5 18 10 8 5 12 16 11 3 4 5 6 7 12 4 20 12 12 13 16 9 9 8 7 17 25 29 33 36 39 41 42 43 41 40 41 40 41 34 37 37 37 34
6 4 8 11 16 20 8 12 7 6 5 5 8 11 8 17 18 16 19 15 14 10 11 8 7 12 21 25 27 32 34 34 35 38 38 38 38 39 38 38 38 37 36 34
21 3 3 24 6 19 23 8 18 9 13 5 0 14 1 9 8 5 10 7 7 8 8 7 8 10 11 20 26 31 32 33 35 36 35 37 37 36 35 36 36 35 34 32
9 9 9 4 4 3 17 15 23 13 3 18 13 21 3 2 7 7 9 9 8 7 6 6 5 7 11 14 20 25 27 30 30 30 32 33 33 33 33 33 32 30 29 28
7 12 15 13 13 6 23 29 26 27 15 22 23 36 17 5 6 8 7 9 7 7 7 6 6 7 11 11 13 16 19 23 25 26 26 28 28 28 27 25 23 23 22 22
16 18 23 31 26 14 18 24 28 25 31 21 30 31 27 11 11 7 6 5 5 7 7 8 8 7 10 13 15 15 16 18 19 22 22 23 22 22 21 21 20 19 19 18
14 16 18 27 21 29 24 24 27 26 30 28 30 29 24 12 12 7 8 7 9 9 10 9 8 8 9 17 19 18 18 17 17 16 16 15 15 15 14 14 13 12 12 11
10 15 10 23 29 18 26 31 32 29 34 32 29 39 17 7 10 16 11 10 12 13 12 10 9 9 16 24 23 22 19 17 17 17 16 15 15 15 14 13 12 11 9 8
11 10 14 13 10 22 19 26 26 32 36 36 31 24 26 25 17 10 12 10 13 14 10 9 9 14 20 21 20 18 18 18 17 17 17 17 17 16 15 14 13 12 11 9
19 10 6 8 17 3 6 12 32 25 35 32 29 33 27 4 6 11 12 14 20 16 12 14 23 22 21 23 22 21 20 19 19 19 19 17 16 16 16 15 14 12 11 9
20 19 10 5 13 17 31 11 10 11 22 21 33 38 34 11 11 19 22 16 18 12 15 19 25 21 21 22 24 24 22 21 21 21 19 17 16 16 16 15 15 14 13 11
11 14 19 20 9 7 4 13 21 18 25 20 26 33 32 17 26 38 9 11 9 12 16 22 25 24 28 27 27 26 24 25 20 19 19 17 16 16 15 16 16 16 14 13
12 10 7 13 15 20 12 18 25 34 2 5 20 27 17 23 26 27 11 10 11 13 12 25 21 24 28 30 30 26 24 20 20 20 19 18 17 17 18 18 17 15 15 13
7 9 8 11 12 3 20 8 6 6 4 3 5 7 20 21 25 18 14 12 13 14 11 24 22 22 27 28 29 26 25 23 22 21 20 18 17 17 18 19 18 16 14 13
5 3 5 4 8 6 14 4 7 7 6 4 1 2 6 13 13 14 8 8 8 8 9 20 23 18 19 23 22 22 24 23 23 21 21 21 21 20 16 16 15 17 16 14
5 5 3 4 4 3 5 11 13 15 9 7 6 4 6 5 7 7 6 7 7 7 11 15 16 17 17 23 22 21 24 25 23 22 22 21 21 22 20 17 16 15 13 11
7 8 4 2 9 8 6 13 16 15 12 11 7 7 5 4 6 6 5 4 6 8 12 12 12 15 18 20 20 21 23 25 26 24 23 23 25 25 25 24 21 13 13 13

GFSCGP_925_spd_135.txt.gz
Wind_Speed
11 9 12 18 15 4 6 5 6 3 4 4 6 16 17 11 6 10 10 12 13 13 16 19 28 33 34 33 35 37 37 37 35 34 33 32 33 32 32 31 29 27 25 24
6 19 22 5 9 8 3 4 4 4 2 6 6 15 15 11 10 13 16 15 12 11 7 16 25 30 35 38 38 37 39 40 39 38 37 29 31 34 33 32 32 30 29 26
20 5 13 15 10 14 13 10 3 4 3 3 5 10 15 7 14 14 13 17 16 17 15 15 19 28 32 37 39 40 42 42 42 42 36 33 25 26 29 34 34 34 32 31
12 11 12 8 8 13 18 11 9 7 3 5 2 8 11 5 10 14 17 17 20 19 15 16 19 25 32 39 38 44 42 42 43 41 37 38 31 28 32 32 37 36 34 33
11 13 17 10 16 11 4 6 9 6 4 3 6 6 8 3 7 15 14 17 19 18 16 19 21 31 37 38 43 47 45 44 42 44 42 40 33 30 28 31 32 32 33 34
8 1 5 17 10 18 9 4 2 3 4 9 17 11 10 10 15 18 8 11 16 16 16 19 26 27 29 32 35 37 39 44 45 45 45 39 37 32 27 32 34 36 35 35
18 10 2 3 9 7 15 11 5 6 5 10 6 10 24 7 7 11 10 12 12 11 13 15 15 19 26 29 35 36 38 41 43 42 41 44 42 39 37 36 37 31 34 37
12 8 15 12 17 10 22 16 5 8 7 8 3 10 8 14 19 19 10 13 7 8 8 11 14 22 27 31 35 35 37 38 40 42 43 46 42 37 39 34 34 35 35 37
12 14 3 10 7 16 9 11 9 4 2 1 5 10 7 8 10 11 12 9 13 14 11 12 13 20 24 27 33 37 37 38 39 43 43 41 39 37 37 38 37 37 37 36
3 6 8 7 5 6 13 10 7 4 8 7 6 8 12 2 15 17 13 13 15 12 10 13 8 17 25 27 30 33 37 38 42 44 44 42 43 44 40 33 39 39 37 35
1 6 1 11 13 19 8 10 7 5 3 5 9 10 8 16 12 16 15 10 10 8 9 9 9 17 23 28 29 32 33 33 35 38 37 37 38 40 38 39 40 39 36 33
13 3 5 11 3 16 19 10 12 7 7 4 2 13 3 8 9 5 8 9 7 8 8 7 8 13 15 23 29 31 32 35 38 39 37 38 37 37 37 38 38 36 34 31
8 6 8 4 5 2 13 19 17 15 1 14 12 17 6 7 6 6 9 9 7 7 6 7 6 7 14 17 21 27 29 32 34 36 36 36 36 36 36 36 35 32 28 27
9 4 8 11 5 3 13 20 25 24 15 22 16 31 24 5 8 6 7 7 7 6 6 4 6 7 12 14 16 21 27 29 30 31 33 34 34 34 34 32 29 26 25 24
6 4 4 15 18 12 10 16 21 25 27 17 28 29 35 20 14 13 8 5 6 7 6 7 8 7 10 14 16 19 24 27 27 27 28 31 29 27 26 25 23 22 22 22
5 9 12 22 19 16 22 23 18 25 26 25 31 29 31 15 9 12 20 11 8 8 9 9 8 7 8 17 21 19 20 23 25 28 28 25 24 23 23 22 22 22 22 21
4 1 4 21 6 12 17 28 30 30 26 26 29 40 45 11 12 14 12 11 17 12 11 10 10 10 17 24 25 24 22 21 22 23 23 23 23 23 23 22 22 21 21 19
5 5 3 14 6 16 17 16 24 28 33 29 31 38 35 25 23 12 11 18 20 12 15 11 9 14 24 23 22 22 22 23 23 23 23 23 23 23 22 22 21 19 19 18
20 10 6 7 11 12 18 16 12 24 36 32 30 35 37 34 3 10 17 18 20 16 14 15 21 20 25 25 26 25 24 23 24 26 26 26 26 26 25 24 23 21 21 20
15 16 10 8 7 10 25 11 11 17 23 31 31 40 40 31 11 26 25 17 19 14 10 13 23 24 27 28 29 31 31 28 29 30 29 27 26 26 26 25 25 23 22 19
3 7 19 20 16 9 20 9 10 16 22 28 28 32 33 20 27 38 22 17 21 19 19 20 25 26 36 33 32 29 29 32 33 26 26 25 24 24 23 24 23 23 21 20
11 7 9 12 9 19 7 5 18 16 27 7 18 30 27 25 28 29 26 17 10 13 12 22 18 24 31 35 38 28 28 33 28 29 27 25 23 23 23 23 22 22 23 22
13 15 11 8 8 5 5 5 9 10 7 5 7 8 17 23 24 28 22 17 12 11 10 21 22 19 30 39 41 29 33 34 34 31 28 26 25 24 24 25 25 25 24 24
5 9 13 15 22 6 9 4 16 12 11 16 9 9 7 11 15 11 9 9 10 7 7 16 16 11 17 31 35 28 36 35 34 30 27 26 26 25 25 25 27 26 25 24
1 8 10 8 5 12 4 12 20 19 15 16 17 8 8 9 11 8 7 7 8 6 6 16 14 11 13 24 25 24 32 34 29 27 27 26 25 27 26 24 24 25 24 26
6 5 2 4 12 10 16 17 24 20 20 19 18 17 11 8 11 9 8 0 2 3 5 8 10 15 15 16 17 20 24 26 27 24 24 25 27 27 27 26 21 16 17 16

GFSCGP_925_spd_138.txt.gz
Wind_Speed
7 7 12 14 12 19 14 18 18 12 8 7 15 18 20 18 17 20 20 17 18 20 23 20 24 27 27 28 28 30 28 27 26 27 26 24 25 23 22 22 22 22 22 22
8 20 25 16 9 17 13 11 14 9 6 7 12 19 21 22 18 21 22 21 23 20 18 23 22 25 30 31 31 31 32 31 31 28 28 24 25 24 24 22 24 25 24 24
20 19 13 20 16 14 17 18 9 11 3 9 9 20 25 19 20 22 23 24 24 23 21 20 24 28 29 32 36 35 36 36 35 32 27 24 18 20 22 25 25 29 29 29
16 24 15 10 18 18 14 13 12 13 4 7 1 9 19 13 14 15 19 21 23 24 22 21 23 27 31 35 34 36 39 38 37 35 31 31 30 28 27 24 25 24 29 29
12 17 13 18 22 21 8 13 19 20 17 11 14 7 18 15 19 20 20 19 21 21 22 23 24 31 35 35 36 39 38 38 38 37 38 35 33 30 27 24 23 24 27 32
19 5 13 24 15 13 11 5 2 3 4 8 22 15 12 18 21 21 22 21 19 19 20 22 31 31 30 30 32 34 37 39 40 40 42 40 39 34 27 28 25 25 26 27
26 23 17 7 17 21 18 7 2 4 6 9 6 15 22 16 18 20 19 17 17 15 15 17 20 21 28 29 32 34 36 38 39 39 40 42 40 37 36 32 31 27 27 25
18 13 26 21 26 17 25 22 9 9 7 12 6 11 9 20 23 23 20 18 14 14 12 14 17 21 26 28 32 34 36 37 38 41 43 42 41 39 37 35 31 30 29 29
15 18 6 15 21 23 20 17 25 13 1 5 6 17 9 9 12 14 17 18 19 17 15 17 15 21 24 25 30 34 35 35 36 40 40 39 39 38 36 36 35 31 29 28
8 9 19 11 16 14 11 7 6 5 9 13 13 22 14 8 16 17 18 18 17 15 13 14 14 18 20 23 27 31 34 36 37 37 37 37 38 39 38 33 33 32 30 26
10 8 1 13 18 21 8 11 9 4 4 11 14 14 18 19 19 19 17 12 12 12 12 13 13 19 20 18 21 26 29 31 31 33 34 34 33 34 33 33 32 32 28 26
22 4 10 16 8 11 23 15 17 9 6 6 8 16 2 4 8 14 10 6 10 12 12 11 11 13 14 16 18 23 25 28 31 31 31 33 32 32 32 33 31 29 28 27
11 10 10 4 3 8 14 24 23 13 3 15 7 13 9 14 9 8 10 12 8 7 9 8 8 9 14 16 16 20 24 28 28 29 31 31 33 32 31 32 31 30 30 28
14 11 13 16 3 2 3 19 22 20 9 10 15 28 30 18 9 11 11 11 9 7 7 7 7 7 11 12 15 17 20 23 25 27 30 31 31 31 31 33 31 30 31 29
7 4 10 15 14 12 13 14 12 19 24 14 22 28 34 26 21 22 19 14 9 11 10 8 6 7 8 12 16 18 19 21 23 25 26 28 29 30 30 29 31 32 31 30
12 4 8 6 15 15 18 18 20 23 19 19 31 33 36 31 19 19 18 18 22 22 19 9 10 8 9 14 18 18 19 22 23 23 25 25 28 32 33 33 32 30 29 28
5 5 3 7 9 11 12 23 21 24 23 20 19 36 39 28 24 22 19 19 21 21 20 18 16 11 12 17 20 20 22 21 26 28 26 29 29 29 29 28 27 28 27 26
5 3 2 4 1 10 12 7 14 20 22 24 28 34 36 31 30 20 20 22 24 21 18 16 16 18 17 19 24 24 25 23 24 25 27 28 28 28 28 28 29 28 27 26
14 6 4 5 7 14 21 16 11 10 20 20 26 33 36 38 16 27 32 30 28 21 22 22 26 25 20 24 25 24 25 27 28 29 30 31 31 31 30 29 29 28 27 25
12 13 7 4 5 8 28 3 11 13 18 19 18 28 32 30 14 26 31 24 28 26 24 21 24 23 22 24 22 24 23 25 26 30 34 32 32 33 33 31 29 27 26 25
5 5 14 12 7 11 17 6 3 9 22 9 15 24 25 22 20 34 24 21 20 23 23 29 23 22 30 25 27 25 24 26 33 32 31 32 33 34 33 33 31 29 27 26
9 6 6 7 8 16 3 9 16 7 16 15 19 18 19 19 25 31 26 26 24 25 20 20 18 23 27 29 30 24 25 39 36 35 32 33 33 33 33 33 31 29 31 30
6 10 5 8 6 13 9 10 8 12 11 16 18 23 21 24 24 22 22 22 21 19 14 17 20 21 21 27 32 24 32 29 34 34 36 35 32 32 31 32 31 31 32 26
5 6 7 8 18 16 14 5 12 19 17 19 18 22 22 23 23 22 16 13 11 9 9 14 15 9 12 27 33 32 26 33 35 31 28 31 30 28 31 29 31 27 27 24
4 7 3 9 9 19 8 12 20 24 20 22 23 20 23 21 21 19 18 15 12 9 10 12 10 9 11 20 24 26 25 31 29 25 25 25 24 25 25 23 24 23 23 25
4 4 3 7 12 8 18 18 27 19 22 22 22 26 21 20 21 20 17 13 11 10 12 8 7 4 2 7 11 16 22 28 25 20 20 22 23 21 22 23 20 18 22 21

GFSCGP_925_spd_141.txt.gz
Wind_Speed
8 6 10 11 15 19 15 12 20 19 16 3 19 22 23 21 22 22 20 20 19 20 22 27 27 28 28 27 28 30 31 31 28 29 28 26 25 24 24 24 23 22 22 23
8 14 27 17 12 8 18 15 17 18 14 10 19 24 23 23 21 23 21 23 23 22 21 21 27 29 30 32 32 32 34 33 33 31 30 28 26 25 24 24 24 25 25 26
21 26 18 21 19 15 20 14 13 17 11 17 17 25 25 29 26 25 23 21 23 22 22 22 24 28 29 32 35 36 36 36 36 33 29 26 23 23 24 26 27 29 29 28
16 22 17 20 25 21 21 19 18 16 11 11 10 12 20 24 21 22 21 20 22 22 21 20 21 27 32 34 37 36 37 40 38 36 32 32 29 27 29 28 28 27 30 31
16 15 18 20 19 14 22 14 11 10 14 10 16 7 16 19 24 22 20 19 20 20 18 20 21 28 33 35 36 38 41 39 39 38 37 33 32 31 26 27 27 29 29 34
21 7 15 26 23 18 4 5 7 10 12 11 23 20 14 17 24 23 21 18 18 15 17 17 24 27 31 32 35 35 36 38 39 39 42 40 37 33 29 29 29 28 31 31
25 24 17 9 15 6 8 7 4 4 5 7 17 17 23 15 17 19 17 11 13 13 15 14 15 16 25 28 31 35 37 38 41 43 42 43 40 38 34 33 32 29 29 30
18 18 26 21 20 22 15 10 4 8 4 8 11 9 13 18 17 22 20 13 14 10 11 10 9 15 21 24 27 31 34 37 38 40 42 42 42 38 37 35 32 31 30 31
14 20 11 22 26 21 11 11 21 11 18 6 7 17 16 15 14 11 13 13 15 14 13 12 11 16 20 21 27 32 34 35 37 41 41 41 40 41 38 36 35 33 33 30
14 11 18 14 19 22 26 15 8 7 6 8 12 21 14 9 14 12 14 15 13 12 9 9 10 15 21 22 25 29 33 34 35 36 39 39 39 40 38 35 36 36 34 31
18 13 6 11 16 23 18 21 20 12 12 14 15 15 16 19 19 20 17 14 7 6 7 8 8 11 14 18 21 26 29 31 32 35 35 36 37 38 37 37 37 37 33 32
22 7 12 17 12 14 19 23 23 5 7 9 18 21 13 4 6 7 10 1 4 4 5 6 8 9 9 12 16 20 23 28 31 31 33 35 36 35 36 38 38 34 35 33
15 9 9 6 10 12 9 19 20 18 19 19 7 13 16 19 19 13 7 6 6 4 7 6 5 7 7 10 13 17 20 24 28 30 31 33 35 36 37 37 35 33 32 33
8 15 14 15 14 6 6 16 21 21 15 12 17 25 32 25 18 11 13 7 7 5 5 7 8 6 8 11 14 16 18 20 21 24 28 30 32 35 35 34 33 34 34 32
8 5 15 23 20 21 20 15 11 11 19 18 25 27 36 27 23 21 19 18 18 17 12 12 11 10 11 9 13 16 18 17 20 22 25 30 31 30 30 31 31 32 32 32
10 4 6 5 14 16 20 23 23 23 22 18 23 27 34 29 24 27 22 20 20 21 18 14 15 11 11 14 15 17 20 23 21 23 26 27 27 29 31 30 32 33 34 34
9 6 2 5 8 13 10 23 23 23 23 22 22 28 30 29 20 18 20 22 22 22 16 16 17 20 18 15 19 20 23 22 24 24 25 26 27 30 33 34 34 33 32 30
2 2 1 4 3 9 12 13 16 17 20 20 22 28 31 26 21 18 21 24 23 22 25 25 23 22 28 24 23 23 21 22 25 28 27 29 31 32 35 35 35 35 33 33
9 5 3 4 6 14 21 18 15 17 22 17 21 27 27 19 18 25 22 19 23 24 25 22 30 30 30 29 22 20 22 24 26 28 29 31 30 29 33 34 34 34 33 31
12 10 6 4 5 7 16 8 10 12 17 12 15 19 18 15 14 9 25 26 21 19 19 19 31 32 30 31 22 22 25 23 26 27 33 31 31 33 35 36 36 35 33 33
5 5 12 11 9 12 5 11 11 11 7 18 16 16 17 10 13 22 21 22 21 22 31 33 29 26 30 29 25 24 22 25 33 32 33 33 32 34 34 33 34 34 33 31
9 8 6 7 8 15 12 3 13 7 7 11 18 18 21 22 22 24 23 21 21 23 27 33 29 26 28 28 23 22 21 34 31 31 31 32 32 31 30 30 28 28 30 29
6 10 4 9 7 10 9 6 7 13 14 14 18 23 21 25 24 24 24 23 21 22 24 30 28 31 28 21 24 21 34 27 28 29 31 32 30 30 31 32 29 27 27 25
7 6 6 8 11 8 8 8 12 17 18 17 16 19 24 26 25 22 18 19 20 19 20 31 30 23 23 23 24 35 26 23 27 28 27 27 27 25 27 25 27 25 25 23
3 5 4 9 11 19 11 13 17 24 19 19 20 20 20 24 23 22 19 18 18 20 27 28 24 24 25 25 22 20 22 20 24 23 20 21 22 25 26 26 28 27 27 28
3 2 3 8 10 5 14 18 25 20 21 22 23 25 21 22 23 22 17 18 20 20 25 25 24 24 23 23 17 18 14 14 19 14 16 17 19 21 22 23 19 22 28 26